[[{"header":{"parameterUnit":"m.s-1","parameterCategory":1,"la1":30.6,"la2":29.2853,"lo1":-89.7004,"lo2":-87.6739,"dy":0.0162,"dx":0.0183,"nx":112,"ny":82,"refTime":"2023-06-01T12:00:00:Z","depth":0,"parameterNumber":2,"parameterNumberName":"U-component_of_WINDS"},"data":[0.0,0.0,0.0,0.0,0.0,0.0,0.0,0.0,0.0,0.0,0.0,0.0,0.0,0.0,0.0,0.0,0.0,0.0,0.0,0.0,0.0,0.0,0.0,0.0,0.0,0.0,0.0,0.0,0.0,0.0,0.0,0.0,0.0,0.0,0.0,0.0,0.0,0.0,0.0,0.0,0.0,0.0,0.0,0.0,0.0,0.0,0.0,0.0,0.0,0.0,0.0,0.0,0.0,0.0,0.0,0.0,0.0,0.0,0.0,0.0,0.0,0.0,0.0,0.0,0.0,0.0,0.0,0.0,0.0,0.0,0.0,0.0,0.0,0.0,0.0,0.0,0.0,0.0,0.0,0.0,0.0,0.0,0.0,0.0,0.0,0.0,0.0,0.0,0.0,0.0,2.4438,2.4659,2.4901,2.4706,2.3731,2.3736,2.3394,2.2439,0.0,0.0,0.0,0.0,0.0,0.0,0.0,0.0,0.0,0.0,0.0,0.0,0.0,0.0,0.0,0.0,0.0,0.0,0.0,0.0,0.0,0.0,0.0,0.0,0.0,0.0,0.0,0.0,0.0,0.0,0.0,0.0,0.0,0.0,0.0,0.0,0.0,0.0,0.0,0.0,0.0,0.0,0.0,0.0,0.0,0.0,0.0,0.0,0.0,0.0,0.0,0.0,0.0,0.0,0.0,0.0,0.0,0.0,0.0,0.0,0.0,0.0,0.0,0.0,0.0,0.0,0.0,0.0,0.0,0.0,0.0,0.0,0.0,0.0,0.0,0.0,0.0,0.0,0.0,0.0,0.0,0.0,0.0,0.0,0.0,0.0,0.0,0.0,0.0,0.0,0.0,0.0,0.0,0.0,0.0,0.0,0.0,0.0,0.0,0.0,0.0,0.0,0.0,0.0,2.4036,2.5304,2.5432,2.5232,2.4793,2.3859,2.3112,2.2678,0.0,0.0,0.0,0.0,0.0,0.0,0.0,0.0,0.0,0.0,0.0,0.0,0.0,0.0,0.0,0.0,0.0,0.0,0.0,0.0,0.0,0.0,0.0,0.0,0.0,0.0,0.0,0.0,0.0,0.0,0.0,0.0,0.0,0.0,0.0,0.0,0.0,0.0,0.0,0.0,0.0,0.0,0.0,0.0,0.0,0.0,0.0,0.0,0.0,0.0,0.0,0.0,0.0,0.0,0.0,0.0,0.0,0.0,0.0,0.0,0.0,0.0,0.0,0.0,0.0,0.0,0.0,0.0,0.0,0.0,0.0,0.0,0.0,0.0,0.0,0.0,0.0,0.0,0.0,0.0,0.0,0.0,0.0,0.0,0.0,0.0,0.0,0.0,0.0,0.0,0.0,0.0,0.0,0.0,0.0,0.0,0.0,0.0,0.0,0.0,0.0,0.0,0.0,2.391,2.4482,2.5757,2.5656,2.5271,2.4672,2.3763,2.3069,2.2721,2.257,0.0,0.0,0.0,0.0,0.0,0.0,0.0,0.0,0.0,0.0,0.0,0.0,0.0,0.0,0.0,0.0,0.0,0.0,0.0,0.0,0.0,0.0,0.0,0.0,0.0,0.0,0.0,0.0,0.0,0.0,0.0,0.0,0.0,0.0,0.0,0.0,0.0,0.0,0.0,0.0,0.0,0.0,0.0,0.0,0.0,0.0,0.0,0.0,0.0,0.0,0.0,0.0,0.0,0.0,0.0,0.0,0.0,0.0,0.0,0.0,0.0,0.0,0.0,0.0,0.0,0.0,0.0,0.0,0.0,0.0,0.0,0.0,0.0,0.0,0.0,0.0,0.0,0.0,0.0,0.0,0.0,0.0,0.0,0.0,0.0,0.0,0.0,0.0,0.0,0.0,0.0,0.0,0.0,0.0,0.0,0.0,0.0,0.0,0.0,0.0,0.0,0.0,2.4831,2.4917,2.5988,2.574,2.5208,2.4495,2.3513,2.29,2.283,2.2319,0.0,0.0,0.0,0.0,0.0,0.0,0.0,0.0,0.0,0.0,0.0,0.0,0.0,0.0,0.0,0.0,0.0,0.0,0.0,0.0,0.0,0.0,0.0,0.0,0.0,0.0,0.0,0.0,0.0,0.0,0.0,0.0,0.0,0.0,0.0,0.0,0.0,0.0,0.0,0.0,0.0,0.0,0.0,0.0,0.0,0.0,0.0,0.0,0.0,0.0,0.0,0.0,0.0,0.0,0.0,0.0,0.0,0.0,0.0,0.0,0.0,0.0,0.0,0.0,0.0,0.0,0.0,0.0,0.0,0.0,0.0,0.0,0.0,0.0,0.0,0.0,0.0,0.0,0.0,0.0,0.0,0.0,0.0,0.0,0.0,0.0,0.0,0.0,0.0,0.0,0.0,0.0,0.0,0.0,0.0,0.0,0.0,0.0,0.0,0.0,0.0,0.0,2.454,2.4917,2.5988,2.574,2.5311,2.4818,2.3173,2.2468,2.3112,2.1979,0.0,0.0,0.0,0.0,0.0,0.0,0.0,0.0,0.0,0.0,0.0,0.0,0.0,0.0,0.0,0.0,0.0,0.0,0.0,0.0,0.0,0.0,0.0,0.0,0.0,0.0,0.0,0.0,0.0,0.0,0.0,0.0,0.0,0.0,0.0,0.0,0.0,0.0,0.0,0.0,0.0,0.0,0.0,0.0,0.0,0.0,0.0,0.0,0.0,0.0,0.0,0.0,0.0,0.0,0.0,0.0,0.0,0.0,0.0,0.0,0.0,0.0,0.0,0.0,0.0,0.0,0.0,0.0,0.0,0.0,0.0,0.0,0.0,0.0,0.0,0.0,0.0,0.0,0.0,0.0,0.0,0.0,0.0,0.0,0.0,0.0,0.0,0.0,0.0,0.0,0.0,0.0,0.0,0.0,0.0,0.0,0.0,0.0,0.0,0.0,0.0,0.0,2.4506,2.4804,2.5631,2.5596,2.5216,2.4499,2.3006,2.2397,2.3136,0.0,0.0,0.0,0.0,0.0,0.0,0.0,0.0,0.0,0.0,0.0,0.0,0.0,0.0,0.0,0.0,0.0,0.0,0.0,0.0,0.0,0.0,0.0,0.0,0.0,0.0,0.0,0.0,0.0,0.0,0.0,0.0,0.0,0.0,0.0,0.0,0.0,0.0,0.0,0.0,0.0,0.0,0.0,0.0,0.0,0.0,0.0,0.0,0.0,0.0,0.0,0.0,0.0,0.0,0.0,0.0,0.0,0.0,0.0,0.0,0.0,0.0,0.0,0.0,0.0,0.0,0.0,0.0,0.0,0.0,0.0,0.0,0.0,0.0,0.0,0.0,0.0,0.0,0.0,0.0,0.0,0.0,0.0,0.0,0.0,0.0,0.0,0.0,0.0,0.0,0.0,0.0,0.0,0.0,0.0,0.0,0.0,0.0,0.0,0.0,0.0,0.0,2.4354,2.4802,2.5166,2.5482,2.5604,2.5261,2.4279,2.2695,2.2171,2.3136,0.0,0.0,0.0,0.0,0.0,0.0,0.0,0.0,0.0,0.0,0.0,0.0,0.0,0.0,0.0,0.0,0.0,0.0,0.0,0.0,0.0,0.0,0.0,0.0,0.0,0.0,0.0,0.0,0.0,0.0,0.0,0.0,0.0,0.0,0.0,0.0,0.0,0.0,0.0,0.0,0.0,0.0,0.0,0.0,0.0,0.0,0.0,0.0,0.0,0.0,0.0,0.0,0.0,0.0,0.0,0.0,0.0,0.0,0.0,0.0,0.0,0.0,0.0,0.0,0.0,0.0,0.0,0.0,0.0,0.0,0.0,0.0,0.0,0.0,0.0,0.0,0.0,0.0,0.0,0.0,0.0,0.0,0.0,0.0,0.0,0.0,0.0,0.0,0.0,0.0,0.0,0.0,0.0,0.0,0.0,0.0,0.0,0.0,0.0,0.0,0.0,0.0,2.4421,2.5489,2.6028,2.5561,2.579,2.5493,2.4299,2.2249,2.1647,0.0,0.0,0.0,0.0,0.0,0.0,0.0,0.0,0.0,0.0,0.0,0.0,0.0,0.0,0.0,0.0,0.0,0.0,0.0,0.0,0.0,0.0,0.0,0.0,0.0,0.0,0.0,0.0,0.0,0.0,0.0,0.0,0.0,0.0,0.0,0.0,0.0,0.0,0.0,0.0,0.0,0.0,0.0,0.0,0.0,0.0,0.0,0.0,0.0,0.0,0.0,0.0,0.0,0.0,0.0,0.0,0.0,0.0,0.0,0.0,0.0,0.0,0.0,0.0,0.0,0.0,0.0,0.0,0.0,0.0,0.0,0.0,0.0,0.0,0.0,0.0,0.0,0.0,0.0,0.0,0.0,0.0,0.0,0.0,0.0,0.0,0.0,0.0,0.0,0.0,0.0,0.0,0.0,0.0,0.0,0.0,0.0,0.0,0.0,0.0,0.0,0.0,0.0,2.4421,2.5261,2.5721,2.5535,2.5604,2.5237,2.4279,2.2713,2.2171,2.3136,0.0,0.0,0.0,0.0,0.0,0.0,0.0,0.0,0.0,0.0,0.0,0.0,0.0,0.0,0.0,0.0,0.0,0.0,0.0,0.0,0.0,0.0,0.0,0.0,0.0,0.0,0.0,0.0,0.0,0.0,0.0,0.0,0.0,0.0,0.0,0.0,0.0,0.0,0.0,0.0,0.0,0.0,0.0,0.0,0.0,0.0,0.0,0.0,0.0,0.0,0.0,0.0,0.0,0.0,0.0,0.0,0.0,0.0,0.0,0.0,0.0,0.0,0.0,0.0,0.0,0.0,0.0,0.0,0.0,0.0,0.0,0.0,0.0,0.0,0.0,0.0,0.0,0.0,0.0,0.0,0.0,0.0,0.0,0.0,0.0,0.0,0.0,0.0,0.0,0.0,0.0,0.0,0.0,0.0,0.0,0.0,0.0,0.0,0.0,0.0,0.0,0.0,2.4455,2.553,2.6182,2.5993,2.5808,2.541,2.4737,2.3088,2.2397,2.3136,0.0,0.0,0.0,0.0,0.0,0.0,0.0,0.0,0.0,0.0,0.0,0.0,0.0,0.0,0.0,0.0,0.0,0.0,0.0,0.0,0.0,0.0,0.0,0.0,0.0,0.0,0.0,0.0,0.0,0.0,0.0,0.0,0.0,0.0,0.0,0.0,0.0,0.0,0.0,0.0,0.0,0.0,0.0,0.0,0.0,0.0,0.0,0.0,0.0,0.0,0.0,0.0,0.0,0.0,0.0,0.0,0.0,0.0,0.0,0.0,0.0,0.0,0.0,0.0,0.0,0.0,0.0,0.0,0.0,0.0,0.0,0.0,0.0,0.0,0.0,0.0,0.0,0.0,0.0,0.0,0.0,0.0,0.0,0.0,0.0,0.0,0.0,0.0,0.0,0.0,0.0,0.0,0.0,0.0,0.0,0.0,0.0,0.0,0.0,0.0,0.0,0.0,2.4577,2.6145,2.7083,2.6637,2.6218,2.576,2.5326,2.3397,2.2486,2.3153,0.0,0.0,0.0,0.0,0.0,0.0,0.0,0.0,0.0,0.0,0.0,0.0,0.0,0.0,0.0,0.0,0.0,0.0,0.0,0.0,0.0,0.0,0.0,0.0,0.0,0.0,0.0,0.0,0.0,0.0,0.0,0.0,0.0,0.0,0.0,0.0,0.0,0.0,0.0,0.0,0.0,0.0,0.0,0.0,0.0,0.0,0.0,0.0,0.0,0.0,0.0,0.0,0.0,0.0,0.0,0.0,0.0,0.0,0.0,0.0,1.9691,1.998,0.0,0.0,0.0,0.0,0.0,0.0,0.0,0.0,0.0,0.0,0.0,0.0,0.0,0.0,0.0,0.0,0.0,0.0,0.0,0.0,0.0,0.0,0.0,0.0,0.0,0.0,0.0,0.0,0.0,0.0,0.0,0.0,0.0,0.0,0.0,0.0,0.0,0.0,0.0,0.0,2.5255,2.6231,2.6536,2.5834,2.5685,2.5285,2.4518,2.3534,2.3012,2.3189,2.2496,0.0,0.0,0.0,0.0,0.0,0.0,0.0,0.0,0.0,0.0,0.0,0.0,0.0,0.0,0.0,0.0,0.0,0.0,0.0,0.0,0.0,0.0,0.0,0.0,0.0,0.0,0.0,0.0,0.0,0.0,0.0,0.0,0.0,0.0,0.0,0.0,0.0,0.0,0.0,0.0,0.0,0.0,0.0,0.0,0.0,0.0,0.0,0.0,0.0,0.0,0.0,0.0,0.0,0.0,0.0,0.0,0.0,0.0,0.0,1.954,1.969,0.0,0.0,0.0,0.0,0.0,0.0,0.0,0.0,0.0,0.0,0.0,0.0,0.0,0.0,0.0,0.0,0.0,0.0,0.0,0.0,0.0,0.0,0.0,0.0,0.0,0.0,0.0,0.0,0.0,0.0,0.0,0.0,0.0,0.0,0.0,0.0,0.0,0.0,0.0,0.0,2.5443,2.6234,2.648,2.5911,2.5649,2.5159,2.4378,2.3606,2.3117,2.2972,2.2544,0.0,0.0,0.0,0.0,0.0,0.0,0.0,0.0,0.0,0.0,0.0,0.0,0.0,0.0,0.0,0.0,0.0,0.0,0.0,0.0,0.0,0.0,0.0,0.0,0.0,0.0,0.0,0.0,0.0,0.0,0.0,0.0,0.0,0.0,0.0,0.0,0.0,0.0,0.0,0.0,0.0,0.0,0.0,0.0,0.0,0.0,0.0,0.0,0.0,0.0,0.0,0.0,0.0,2.0034,2.0034,2.0034,2.0034,1.9974,1.9869,1.9869,1.9794,1.969,1.969,0.0,0.0,0.0,0.0,0.0,0.0,0.0,0.0,0.0,0.0,0.0,0.0,0.0,0.0,0.0,0.0,0.0,0.0,0.0,0.0,0.0,0.0,1.969,1.969,1.969,1.969,1.969,0.0,0.0,0.0,0.0,0.0,0.0,0.0,0.0,0.0,0.0,0.0,2.5645,2.6437,2.6704,2.6221,2.5768,2.5208,2.4445,2.3697,2.3117,2.2721,2.25,2.2175,0.0,0.0,0.0,0.0,0.0,0.0,0.0,0.0,0.0,0.0,0.0,0.0,0.0,0.0,0.0,0.0,0.0,0.0,0.0,0.0,0.0,0.0,0.0,0.0,0.0,0.0,0.0,0.0,0.0,0.0,0.0,0.0,1.8912,1.9495,0.0,0.0,0.0,0.0,0.0,0.0,0.0,0.0,0.0,0.0,0.0,0.0,0.0,2.0543,2.0453,2.1096,2.144,2.144,2.144,2.144,2.144,2.144,2.1126,2.0572,2.0572,0.0,1.969,1.969,0.0,0.0,0.0,0.0,0.0,0.0,0.0,0.0,0.0,0.0,0.0,0.0,0.0,0.0,0.0,0.0,0.0,0.0,0.0,0.0,0.0,0.0,1.969,1.969,1.969,1.969,1.969,1.969,1.969,1.969,1.969,1.9869,0.0,0.0,0.0,0.0,0.0,0.0,2.6421,2.7199,2.7267,2.6212,2.5757,2.5182,2.4378,2.3902,2.3369,2.2746,2.2686,2.251,2.2237,2.1415,0.0,0.0,0.0,0.0,0.0,0.0,0.0,0.0,0.0,0.0,0.0,0.0,0.0,0.0,0.0,0.0,0.0,0.0,0.0,0.0,0.0,0.0,0.0,0.0,0.0,0.0,0.0,0.0,0.0,1.9016,1.9226,1.9151,1.9465,1.969,0.0,0.0,0.0,0.0,0.0,0.0,0.0,0.0,0.0,2.0341,2.0607,2.0902,2.1261,2.1545,2.1695,2.1695,2.1695,2.1695,2.1695,2.1695,2.1545,2.1261,2.1261,2.0887,2.0228,1.9854,1.969,1.969,0.0,0.0,0.0,0.0,1.969,1.969,1.969,1.969,1.969,1.969,0.0,0.0,0.0,0.0,0.0,0.0,0.0,1.969,1.969,1.969,1.969,1.969,1.969,1.969,1.969,1.9989,2.0154,1.9765,1.9989,2.0363,2.0662,2.0722,0.0,0.0,0.0,2.5798,2.7163,2.7621,2.7114,2.5371,2.5213,2.4723,2.3509,2.3239,2.3021,2.2721,2.2563,2.2426,2.231,2.1807,2.1693,0.0,0.0,0.0,0.0,0.0,0.0,0.0,0.0,0.0,0.0,0.0,0.0,0.0,0.0,0.0,0.0,0.0,0.0,0.0,0.0,0.0,0.0,0.0,0.0,0.0,0.0,0.0,0.0,1.9375,1.9495,1.9016,1.9417,1.976,0.0,0.0,0.0,0.0,0.0,0.0,2.067,1.9987,2.0245,2.1662,2.1708,2.1926,2.2443,2.2607,2.2607,2.2443,2.2622,2.2517,2.2188,2.2516,2.245,2.2143,2.2143,2.1741,2.1077,2.0287,1.9839,1.969,1.969,1.969,1.969,1.969,1.969,1.969,1.969,1.969,1.969,1.969,1.969,1.972,1.9686,0.0,0.0,0.0,0.0,2.0198,2.0198,2.0198,2.0198,2.0198,2.0198,2.0198,2.0198,2.0737,2.0961,2.0109,2.0498,2.1021,2.1186,2.135,0.0,2.5121,2.5853,2.6493,2.7649,2.7994,2.7334,2.527,2.5013,2.4538,2.3388,2.2998,2.2797,2.2738,2.2527,2.236,2.231,2.2227,2.2194,2.225,0.0,0.0,0.0,0.0,0.0,0.0,0.0,0.0,0.0,0.0,0.0,0.0,0.0,0.0,0.0,0.0,0.0,0.0,0.0,0.0,0.0,0.0,0.0,0.0,0.0,0.0,0.0,0.0,0.0,1.963,1.9801,0.0,0.0,0.0,0.0,2.0624,2.0604,2.0651,2.068,2.1226,2.1585,2.1715,2.3452,2.4433,2.4433,2.5106,2.5091,2.4448,2.5121,2.4747,2.352,2.4713,2.4534,2.332,2.332,2.2933,2.2229,2.1092,2.0273,1.969,1.969,1.969,1.969,1.969,1.969,1.969,1.969,1.969,1.969,1.969,1.969,1.9722,1.9676,2.0143,0.0,0.0,2.109,2.159,2.159,2.159,2.159,2.159,2.159,2.159,2.159,2.2113,2.2203,2.0917,2.1201,2.1844,2.2473,0.0,2.4097,2.5958,2.7394,2.8152,2.7835,2.8467,2.8332,2.6759,2.563,2.4971,2.4901,2.3831,2.3063,2.2816,2.273,2.2563,2.231,2.2535,2.2753,2.2964,2.3186,0.0,0.0,0.0,0.0,0.0,0.0,0.0,0.0,0.0,0.0,0.0,0.0,0.0,0.0,0.0,0.0,0.0,0.0,0.0,0.0,0.0,0.0,0.0,0.0,0.0,0.0,0.0,0.0,2.0932,2.103,0.0,2.0991,2.0629,2.0676,2.1235,2.0576,2.0809,2.2429,2.2033,2.253,2.4159,2.4508,2.4852,2.5255,2.5495,2.5495,2.527,2.5495,2.536,2.4896,2.5304,2.5288,2.4803,2.4379,2.3803,2.3122,2.2299,2.1335,2.0348,2.0348,2.0348,2.0348,2.0348,2.0348,2.0288,1.9839,1.969,1.969,1.969,1.9989,2.0356,2.0336,2.0822,2.1341,2.1351,2.152,2.1695,2.1695,2.1695,2.1695,2.1695,2.1695,2.1695,2.1695,2.2218,2.2652,2.2577,2.2443,2.2532,2.3161,2.3445,2.4508,2.7243,2.8084,2.8607,2.9181,2.911,2.8399,2.686,2.5924,2.5176,2.4602,2.3786,2.324,2.3074,2.2686,2.2415,2.231,2.2969,2.3241,2.2992,2.3709,2.3606,0.0,0.0,0.0,0.0,0.0,0.0,0.0,0.0,0.0,0.0,0.0,0.0,0.0,0.0,0.0,0.0,0.0,0.0,0.0,0.0,0.0,0.0,0.0,0.0,0.0,2.141,2.1844,2.2293,2.2215,2.2174,2.2338,2.1796,2.1787,2.2527,2.2085,2.2526,2.4124,2.3705,2.4216,2.5889,2.5742,2.584,2.6273,2.6273,2.6153,2.5944,2.6168,2.6033,2.5615,2.6229,2.6367,2.6137,2.5678,2.5262,2.4771,2.3495,2.2473,2.165,2.1216,2.1051,2.1051,2.1051,2.1051,2.0976,2.0528,2.0363,2.0363,2.0363,2.0677,2.1042,2.1055,2.1505,2.2028,2.2031,2.2159,2.2338,2.2338,2.2338,2.2338,2.2338,2.2338,2.2338,2.2338,2.2682,2.3176,2.3819,2.361,2.3535,2.4163,2.4642,2.5803,2.8375,2.8922,2.9394,3.0364,2.982,2.8772,2.7249,2.642,2.5589,2.462,2.4064,2.3551,2.3067,2.2794,2.2564,2.2327,2.3126,2.3407,2.2992,2.3341,2.3113,2.2346,0.0,0.0,0.0,0.0,0.0,0.0,0.0,0.0,0.0,0.0,0.0,0.0,0.0,0.0,0.0,0.0,0.0,0.0,0.0,0.0,0.0,0.0,0.0,2.1754,2.2832,2.364,2.3655,2.326,2.3171,2.3611,2.3216,2.3419,2.4566,2.5306,2.5705,2.5705,2.6283,2.6669,2.6654,2.7284,2.767,2.7625,2.764,2.7275,2.6632,2.726,2.6901,2.5736,2.7509,2.7955,2.7358,2.7342,2.7326,2.7131,2.4698,2.3683,2.3578,2.2233,2.1724,2.1724,2.1739,2.1739,2.1724,2.1724,2.171,2.1695,2.1724,2.1739,2.1739,2.1758,2.2248,2.2807,2.2773,2.3201,2.3655,2.3655,2.3655,2.3655,2.3655,2.3655,2.3655,2.3655,2.3655,2.3864,2.4507,2.4642,2.4896,2.554,2.6741,2.8061,2.9316,3.0044,0.0,3.119,3.0598,2.9567,2.8009,2.7215,2.6313,2.5184,2.4752,2.4028,2.2808,2.3119,2.3054,2.2344,2.3004,2.3285,2.3044,2.2178,2.171,2.1738,0.0,0.0,0.0,0.0,0.0,0.0,0.0,0.0,0.0,0.0,0.0,0.0,0.0,0.0,0.0,0.0,0.0,0.0,0.0,0.0,0.0,2.2353,2.3071,2.3071,2.3804,2.4522,2.5001,2.4969,2.4908,2.5061,2.4552,2.4684,2.5901,2.5706,2.6167,2.7573,2.779,2.7963,2.8047,2.8719,2.8562,2.7625,2.8068,2.7979,2.7355,2.7535,2.738,2.7085,2.7997,2.8342,2.8185,2.814,2.8073,2.7961,2.6281,2.5873,2.6083,2.3431,2.2413,2.2458,2.2921,2.2787,2.2413,2.2413,2.2099,2.1769,2.2248,2.2712,2.3163,2.3644,2.4283,2.4791,2.4817,2.4908,2.5061,2.5061,2.5061,2.5061,2.5061,2.5061,2.5061,2.5061,2.5061,2.5255,2.5914,2.6048,2.6108,2.6288,2.7005,2.8155,2.9936,3.0729,3.1341,3.1921,3.1343,3.0531,2.9583,2.8805,2.7896,2.6695,2.5814,2.4798,2.3655,2.2948,2.2513,2.231,2.3004,2.3518,2.3781,2.244,2.1931,0.0,0.0,0.0,0.0,0.0,0.0,0.0,0.0,0.0,0.0,0.0,0.0,0.0,0.0,0.0,0.0,0.0,0.0,0.0,0.0,0.0,0.0,2.4193,2.5046,2.5615,2.5794,2.6213,2.7156,2.7036,2.6976,2.7245,2.6692,2.6755,2.773,2.7683,2.8076,2.9224,2.9268,2.9289,2.94,2.952,2.9071,2.8008,2.8667,2.8667,2.7993,2.8283,2.8556,2.8865,2.9454,2.9701,2.9715,2.9657,2.9475,2.9075,2.775,2.7442,2.7576,0.0,0.0,0.0,0.0,2.46,2.4253,2.3981,2.3655,2.34,2.3789,2.4148,2.4522,2.4911,2.53,2.5615,2.5615,2.5615,2.5615,2.5615,2.5615,2.5615,2.5615,2.5615,2.5615,2.5615,2.5615,2.5809,2.6467,2.6587,0.0,2.7719,2.8365,2.9469,3.151,3.2073,3.2492,3.3161,3.229,3.1376,3.0632,2.9617,2.8455,2.7108,2.6434,0.0,0.0,0.0,2.3439,2.2922,2.3194,0.0,0.0,0.0,2.2228,2.26,2.1796,0.0,0.0,2.1443,2.1198,0.0,0.0,0.0,0.0,0.0,0.0,0.0,0.0,0.0,0.0,0.0,0.0,0.0,0.0,0.0,0.0,2.6333,2.732,2.8727,2.8397,2.8412,2.946,2.9071,2.8951,2.952,2.9056,2.8981,2.9639,3.0193,3.0537,3.0612,3.0612,0.0,0.0,0.0,2.9499,2.8801,2.9516,2.9516,2.8943,2.9508,3.0102,3.0732,3.131,3.1523,3.1506,3.1527,3.113,3.0443,2.9118,2.8656,2.8559,2.7033,2.6864,2.7432,2.6851,2.6588,2.6514,2.5923,0.0,0.0,2.5689,2.5719,2.5734,2.5809,2.5839,2.5839,2.5839,2.5839,2.5839,2.5839,2.5839,2.5839,2.5839,2.5839,2.5839,2.5839,2.5839,2.6004,2.6587,2.6849,2.7564,2.9492,3.0245,3.1288,3.328,3.3614,3.3781,3.4327,3.322,3.2087,3.1275,2.9939,0.0,2.708,2.6793,2.6099,2.4726,2.5152,2.496,2.3737,2.3502,2.3374,2.3295,2.2847,2.2641,2.271,2.2428,2.2347,2.2397,2.1895,2.1506,0.0,0.0,0.0,0.0,0.0,0.0,0.0,0.0,0.0,0.0,0.0,0.0,0.0,0.0,0.0,2.6243,2.741,2.8861,3.0702,3.0851,3.0477,2.9669,2.9475,2.9445,2.9564,2.946,2.9654,3.0283,3.0432,3.0746,3.13,3.1345,3.1076,3.0522,3.0926,3.083,3.0238,3.088,3.1125,3.1005,3.115,0.0,3.1438,3.2014,3.2281,3.2293,3.216,3.2049,3.1789,3.0342,3.0141,3.043,2.8087,2.7612,2.8153,2.7512,2.7302,2.721,2.6617,2.6048,2.5689,2.6228,2.6408,2.6497,2.7036,2.7186,0.0,2.7186,2.7186,2.7186,2.7186,2.7186,2.7186,2.7186,2.7186,2.7186,2.7186,2.7186,2.723,2.7365,2.8271,2.951,3.0959,3.0831,3.1196,3.3307,3.3996,3.4139,3.3694,3.3372,3.2679,3.1326,3.0412,2.9533,2.8619,2.7402,2.6319,2.5439,2.4949,2.4406,2.372,2.3867,2.3746,2.3295,2.2847,2.2784,2.3228,2.2622,2.2535,2.2915,2.2862,2.2755,0.0,0.0,0.0,0.0,0.0,0.0,0.0,0.0,0.0,0.0,0.0,2.4328,2.5001,0.0,2.753,2.8846,2.9909,3.1016,3.2332,3.2512,3.2273,3.1614,3.1539,3.1539,3.1539,3.124,3.1315,3.1943,3.1689,3.1802,3.2463,3.2479,3.2223,3.1576,3.2148,3.1862,3.0578,3.1546,3.1695,3.1073,3.1718,3.2255,3.2625,3.3251,3.3506,3.3489,3.3457,3.3186,3.278,3.207,3.1968,3.2181,3.0925,3.0634,3.082,3.0218,2.9993,2.9856,2.8943,2.8351,2.8027,2.7725,2.759,2.759,2.7575,2.7625,2.7685,2.7993,2.8083,2.8083,2.8083,2.8083,2.8083,2.8083,2.8083,2.8173,2.8502,2.8577,2.8718,2.9032,2.9631,3.0649,3.2318,3.2297,3.2643,3.4334,3.4852,3.4928,3.4556,3.3863,3.3119,3.2374,3.0987,2.9956,2.9583,2.8146,2.6945,2.6201,2.5581,2.5011,2.4473,2.4312,2.4144,2.3937,2.3696,2.3649,2.3898,2.3497,2.3204,2.3078,2.3427,2.3414,0.0,0.0,0.0,0.0,0.0,0.0,0.0,2.2547,2.3161,2.4328,2.5211,2.6228,2.7694,2.8727,2.9879,3.1407,3.2273,3.2931,3.3589,3.3679,3.3739,3.3873,3.3649,3.3499,3.3499,3.3021,3.2976,3.3683,3.3126,3.3017,3.3707,3.3576,3.3291,3.2813,3.3215,3.2825,3.1313,3.2391,3.2414,3.1505,3.2599,3.3404,3.4021,3.448,3.4709,3.4709,3.4556,3.4083,3.3406,3.3406,3.3491,3.3609,3.3609,3.3711,3.371,3.2835,3.2406,3.2145,3.0998,3.0525,3.0243,2.9288,2.8877,2.8734,2.8318,2.8101,2.812,2.8815,2.8966,2.9018,2.9173,2.9158,2.9173,2.9018,2.907,2.931,2.9713,2.9765,2.9963,3.0474,3.0822,3.1526,3.3108,3.3713,3.4368,3.5431,3.5622,3.5571,3.5419,3.4235,3.3355,3.3203,3.1343,3.004,2.9905,2.8619,2.7621,2.7165,2.6632,2.6114,2.5621,2.5186,2.4887,2.4807,2.4742,2.4646,2.4604,2.4662,2.4275,2.3482,2.4113,2.3963,2.2355,2.2415,2.2685,2.4462,2.4104,2.4148,0.0,2.729,2.7126,2.7889,2.8996,2.9744,2.9415,3.0851,3.2138,3.2362,3.2961,3.3619,3.4277,3.4367,3.4592,3.522,3.4218,3.3499,3.3499,3.3425,3.3698,3.4531,3.3834,3.3728,3.4523,3.3909,3.3486,3.3396,3.3471,3.3707,3.4149,3.4292,3.46,3.5027,3.5182,3.5295,3.5362,3.5431,3.5504,3.5453,3.4776,3.4083,3.3406,3.3406,3.3795,3.437,3.437,3.4776,3.511,3.3217,3.2099,3.1518,3.0864,3.0195,2.9803,3.0243,2.9983,2.9606,3.0135,2.9877,2.9516,3.0197,3.0366,3.0503,3.1084,3.1278,3.1084,3.0503,3.0838,3.1116,3.0596,3.0474,3.0525,3.0561,3.1552,3.2446,3.2674,3.4206,3.5431,3.556,3.5622,3.5368,3.4709,3.3914,3.3152,3.2476,3.1021,2.9837,2.9161,2.8315,2.8078,2.8687,2.8007,2.7437,2.7064,2.7013,2.651,2.5495,2.5413,2.5394,2.5363,2.5911,2.5738,2.4891,2.5529,2.4848,2.3703,2.4026,2.4374,2.5199,2.5363,2.5704,2.7111,2.7814,2.8457,2.9505,3.1107,3.2287,3.194,3.3213,3.4315,3.4315,3.4499,3.5105,3.6226,3.603,3.5815,3.6193,3.6066,3.5838,3.537,3.5347,3.5506,3.5807,3.5123,3.5071,3.5827,3.5502,3.5347,3.5419,3.5812,3.5776,3.53,3.57,3.5824,3.5744,3.5693,3.5638,3.5685,3.6081,3.6535,3.6891,3.5673,3.5233,3.5334,3.4878,3.4878,3.5148,3.5148,3.5622,3.6118,3.4796,3.4151,3.3796,3.3145,3.2736,3.2437,3.194,3.1561,3.1346,3.1239,3.0964,3.0908,3.1602,3.146,3.1337,3.2012,3.1546,3.101,3.113,3.1062,3.1012,3.1119,3.1467,3.1877,3.2262,3.3092,3.3892,3.4306,3.5052,3.5622,3.5622,3.5622,3.5504,3.5182,3.4134,3.2949,3.1765,3.1106,3.0446,2.9702,2.933,2.911,2.8991,2.867,2.8144,2.732,2.7294,2.7118,2.6786,2.6742,2.6872,2.7212,2.7469,2.7141,2.6394,2.7019,2.6417,2.5312,2.5907,2.6314,2.6925,2.7658,2.8311,2.8495,2.9474,3.0615,3.1748,3.3147,3.4176,3.4121,3.5259,3.611,3.5931,3.603,3.6538,3.7648,3.7279,3.6955,3.6988,3.7657,3.7847,3.7291,3.7138,3.7116,3.72,3.6613,3.6506,3.7247,3.7038,3.6965,3.7045,3.7544,3.7327,3.6362,3.6809,3.6821,3.6388,3.6356,3.6323,3.6306,3.6872,3.7381,3.7838,3.6738,3.6569,3.7043,3.6485,3.6248,3.6248,3.6248,3.6603,3.7026,3.6468,3.6093,3.584,3.5164,3.4775,3.4497,3.3729,3.3319,3.312,3.28,3.2604,3.2565,3.3006,3.2798,3.2516,3.3013,3.2394,3.1735,3.2086,3.1865,3.1774,3.2228,3.2772,3.3287,3.3786,3.4448,3.505,3.5555,3.5958,3.6248,3.6248,3.6079,3.5859,3.5639,3.432,3.2916,3.163,3.1309,3.097,3.0446,3.0226,2.9956,2.9617,2.9397,2.896,2.8201,2.8158,2.8152,2.815,2.8128,2.8352,2.8706,2.8881,2.8598,2.7844,2.8489,2.8105,2.7316,2.7918,2.8636,3.0688,3.1876,3.2673,3.3347,3.4006,3.4706,3.5473,3.5597,3.553,3.5561,3.6715,3.7483,3.6706,3.7203,3.7764,3.7806,3.7764,3.7748,3.779,3.8414,3.8854,3.8854,3.8173,3.806,3.8799,3.8173,3.806,3.8821,3.8117,3.779,3.7758,3.779,3.7794,3.7715,3.7732,3.7783,3.7858,3.7824,3.7824,3.7824,3.7872,3.7889,3.7905,3.7855,3.7855,3.7872,3.7855,3.7838,3.7838,3.7838,3.7855,3.7872,3.7855,3.7367,3.667,3.5927,3.5245,3.4832,3.5414,3.5161,3.4771,3.5374,3.5102,3.4565,3.4477,3.4419,3.4436,3.4536,3.4521,3.4292,3.3674,3.4005,3.4495,3.4528,3.4528,3.4528,3.4576,3.5152,3.5646,3.5696,3.6898,3.7838,3.7838,3.7212,3.6468,3.5723,3.432,3.3119,3.2364,3.1613,3.119,3.1157,3.0514,3.0395,3.1089,3.0463,3.0152,3.0302,3.032,3.0047,2.9559,2.952,2.9549,2.9579,3.0123,2.9997,2.926,2.9937,2.9785,2.8315,2.946,3.0599,3.1792,3.2722,3.3542,3.423,3.5265,3.6158,3.6421,3.5985,3.5449,3.4873,3.5642,3.6247,3.5964,3.699,3.8149,3.9172,3.887,3.8526,3.8579,3.9274,3.9478,3.8992,3.917,3.9226,3.8908,3.869,3.8635,3.8908,3.869,3.8761,3.9279,3.9332,3.9337,3.931,3.931,3.9362,3.9343,3.8853,3.8633,3.8616,3.8125,3.843,3.9292,3.8328,3.8176,3.8582,3.8108,3.7905,3.7905,3.7905,3.821,3.8633,3.8633,3.8805,3.8807,3.7599,3.7034,3.687,3.7082,3.7034,3.687,3.712,3.6969,3.6816,3.6799,3.6046,3.5399,3.5927,3.5019,3.3973,3.4185,3.4444,3.4649,3.4649,3.5429,3.6059,3.6059,3.667,3.7131,3.7131,3.7576,3.7905,3.7905,3.7263,3.6315,3.5047,3.4438,3.3846,3.3102,3.2814,3.2662,3.2662,3.2442,3.2408,3.2645,3.2442,3.1957,3.115,3.1134,3.0833,3.0233,3.0193,3.0417,3.0881,3.1091,3.1008,3.0777,3.0984,3.0644,3.0142,3.1523,3.274,3.3727,3.4574,3.5365,3.6102,3.6495,3.6924,3.7453,3.6547,3.5429,3.4936,3.525,3.5446,3.4873,3.5838,3.7143,3.8704,3.8506,3.8454,3.9277,3.9783,3.9884,3.9428,3.98,3.9901,3.9368,3.9315,3.9315,3.9315,3.9315,3.9558,4.007,4.007,4.007,4.007,4.007,4.007,4.007,3.9597,3.9377,3.9377,3.8903,3.9191,4.002,3.9089,3.8954,3.9343,3.887,3.8684,3.8684,3.8684,3.8971,3.9377,3.9377,3.9681,3.9918,3.87,3.8294,3.8294,3.8294,3.8294,3.8297,3.827,3.8238,3.8187,3.7917,3.7176,3.6525,3.6754,3.5803,3.4848,3.5251,3.5411,3.5497,3.5787,3.6555,3.7186,3.7186,3.7767,3.8294,3.8294,3.8514,3.8599,3.8328,3.7889,3.7026,3.5504,3.4827,3.432,3.3846,3.3558,3.3406,3.3406,3.3406,3.3305,3.3074,3.3031,3.2566,3.1494,3.1444,3.128,3.0851,3.0866,3.1091,3.1482,3.1482,3.1482,3.1482,3.1482,3.1219,3.2696,3.4015,3.4962,3.6417,3.7381,3.8125,3.8751,3.782,3.7218,3.857,3.7053,3.5482,3.5432,3.5482,3.5093,3.3653,3.4225,3.5284,3.6738,3.6958,3.7736,3.9884,4.0104,4.0087,4.0121,4.0104,4.007,4.007,4.007,4.007,4.007,4.007,4.007,4.007,4.007,4.007,4.007,4.007,4.007,4.007,4.007,4.007,4.007,4.007,4.007,4.007,4.007,4.007,4.007,4.007,4.007,4.007,4.007,4.007,4.007,4.007,4.007,3.9986,3.9292,3.9056,3.9056,3.9056,3.9056,3.9058,3.8994,3.8962,3.8799,3.8092,3.7905,3.7712,3.7078,3.6869,3.6841,3.6847,3.6868,3.707,3.7795,3.799,3.8024,3.8024,3.8582,3.9056,3.9056,3.9631,3.9834,3.9157,3.9005,3.8464,3.7026,3.5537,3.4607,3.4607,3.3947,3.3525,3.3525,3.3525,3.3235,3.2537,3.2537,3.2192,3.148,3.1458,3.1457,3.1524,3.1511,3.1511,3.1482,3.1511,3.1511,3.1482,3.1482,3.1482,3.3863,3.5182,3.6299,3.6671,3.7753,3.8481,3.755,3.7896,3.8218,3.7533,3.5554,3.3789,3.3235,3.4021,3.4665,3.4286,3.673,3.8785,3.9174,3.9242,3.9648,4.0781,4.0409,4.0307,4.0865,4.0409,4.007,4.007,4.007,4.007,4.007,4.007,4.007,4.007,4.007,4.007,4.007,4.007,4.007,4.007,4.007,4.007,4.007,4.007,4.007,4.007,4.007,4.007,4.007,4.007,4.007,4.007,4.007,4.007,4.007,4.007,4.007,4.0054,3.9868,3.98,3.98,3.98,3.98,3.9834,3.9783,3.9782,3.9782,3.9575,3.9122,3.8655,3.8471,3.802,3.7636,3.7599,3.8034,3.847,3.8668,3.914,3.9529,3.9529,3.9681,3.98,3.98,3.9952,4.002,3.9834,3.9343,3.8667,3.7736,3.6789,3.6197,3.6197,3.552,3.5064,3.5064,3.5064,3.4745,3.4096,3.4049,3.3518,3.2346,3.2307,3.2032,3.1524,3.2018,3.2018,3.1482,3.2018,3.2018,3.1482,3.1482,3.1482,3.5779,3.6857,3.7669,3.7347,3.7905,3.821,3.7043,3.6907,3.6789,3.5943,3.4252,3.2882,3.2797,3.3186,3.3626,3.3964,3.5791,3.7499,3.8497,3.892,3.9512,4.0578,4.0629,4.0612,4.0696,4.0324,4.007,4.007,4.007,4.007,4.007,4.007,4.007,4.007,4.007,4.007,4.007,4.007,4.007,4.007,4.007,4.007,4.007,4.007,4.007,4.007,4.007,4.007,4.007,4.007,4.007,4.007,4.007,4.007,4.007,4.007,4.007,4.007,4.007,4.007,4.007,4.007,4.007,4.007,4.007,4.007,4.007,4.007,3.9783,3.9462,3.9462,3.9174,3.887,3.887,3.9174,3.9462,3.9462,3.9783,4.007,4.007,4.007,4.007,4.007,4.007,4.007,4.007,3.9732,3.9326,3.892,3.7652,3.6772,3.6772,3.6079,3.5622,3.5622,3.5622,3.5299,3.4624,3.4333,3.3684,3.2641,3.2563,3.2334,3.1958,3.2617,3.2766,3.2392,3.2482,3.2332,3.1958,3.1616,3.1482,3.802,3.8673,3.8948,3.8201,3.7936,3.7652,3.6688,3.5453,3.4438,3.4235,3.3254,3.256,3.3034,3.2814,3.2814,3.3575,3.3863,3.4759,3.6907,3.7787,3.87,4.007,4.0713,4.0882,4.0426,4.0189,4.0121,4.0223,4.0138,4.007,4.007,4.007,4.007,4.007,4.007,4.007,4.007,4.007,4.007,4.007,4.007,4.007,4.007,4.007,4.007,4.007,4.007,4.007,4.007,4.007,4.007,4.007,4.007,4.007,4.007,4.007,4.007,4.007,4.007,4.007,4.007,4.007,4.007,4.007,4.007,4.007,4.007,4.007,4.007,4.007,4.007,4.007,4.007,4.007,4.007,4.007,4.007,4.007,4.007,4.007,4.007,4.007,4.007,4.007,4.007,4.007,4.007,4.0037,3.9952,3.8176,3.6924,3.6924,3.6146,3.5622,3.5622,3.5622,3.5299,3.4624,3.4134,3.3534,3.2765,3.2783,3.2751,3.2647,3.329,3.3589,3.3499,3.3006,3.2736,3.2632,3.2063,3.1794,4.001,3.9931,3.9485,3.877,3.8242,3.7381,3.5351,3.4675,3.415,3.2916,3.2949,3.2882,3.1782,3.2966,3.4353,3.5115,3.6299,3.7686,3.9276,3.9614,4.002,4.0916,4.0578,4.0696,4.1796,4.0798,4.0341,4.0967,4.0426,4.007,4.007,4.007,4.007,4.007,4.007,4.007,4.007,4.007,4.007,4.007,4.007,4.007,4.007,4.007,4.007,4.007,4.007,4.007,4.007,4.007,4.007,4.007,4.007,4.007,4.007,4.007,4.007,4.007,4.007,4.007,4.007,4.007,4.007,4.007,4.007,4.007,4.007,4.007,4.007,4.007,4.007,4.007,4.007,4.007,4.007,4.007,4.007,4.007,4.007,4.007,4.007,4.007,4.007,4.007,4.007,4.007,4.007,3.9868,3.9259,3.8311,3.7719,3.7719,3.6451,3.5622,3.5622,3.5622,3.5299,3.4624,3.5054,3.4759,3.3377,3.3959,3.401,3.332,3.3963,3.4038,3.3499,3.3918,3.3858,3.332,3.3215,3.3155,4.1239,4.0815,4.0179,3.9318,3.8374,3.7062,3.4829,3.4007,3.3328,3.2015,3.2307,3.273,3.2408,3.3525,3.4742,3.5504,3.6231,3.7246,3.8734,3.9276,3.9783,4.0527,4.0646,4.0781,4.1102,4.0493,4.0223,4.0595,4.029,4.007,4.007,4.007,4.007,4.007,4.007,4.007,4.007,4.007,4.007,4.007,4.007,4.007,4.007,4.007,4.007,4.007,4.007,4.007,4.007,4.007,4.007,4.007,4.007,4.007,4.007,4.007,4.007,4.007,4.007,4.007,4.007,4.007,4.007,4.007,4.007,4.007,4.007,4.007,4.007,4.007,4.007,4.007,4.007,4.007,4.007,4.007,4.007,4.007,4.007,4.007,4.007,4.007,4.007,4.007,4.007,4.007,4.007,3.9952,3.9597,3.892,3.8176,3.7398,3.6299,3.5774,3.618,3.6214,3.5904,3.5201,3.5526,3.5059,3.3562,3.4191,3.441,3.4008,3.4666,3.4861,3.4532,3.4502,3.4307,3.3993,3.3649,3.3499,4.223,4.175,4.1034,3.9944,3.8485,3.6811,3.4671,3.3419,3.2455,3.1409,3.1901,3.2645,3.3085,3.3897,3.4742,3.5504,3.5622,3.6197,3.7905,3.8633,3.9259,3.9986,4.0595,4.0798,4.0358,4.0172,4.0155,4.0307,4.0172,4.007,4.007,4.007,4.007,4.007,4.007,4.007,4.007,4.007,4.007,4.007,4.007,4.007,4.007,4.007,4.007,4.007,4.007,4.007,4.007,4.007,4.007,4.007,4.007,4.007,4.007,4.007,4.007,4.007,4.007,4.007,4.007,4.007,4.007,4.007,4.007,4.007,4.007,4.007,4.007,4.007,4.007,4.007,4.007,4.007,4.007,4.007,4.007,4.007,4.007,4.007,4.007,4.007,4.007,4.007,4.007,4.007,4.007,4.002,3.9868,3.9343,3.8481,3.7161,3.6468,3.6366,3.6975,3.6899,3.6515,3.596,3.591,3.5348,3.3955,3.4623,3.4856,3.4696,3.5235,3.5504,3.5504,3.4966,3.4696,3.4681,3.4158,3.3918,4.3155,4.2958,4.2181,4.0598,3.872,3.6682,3.4666,3.3003,3.1783,3.1308,3.2324,3.3119,3.2493,3.3541,3.4742,3.5504,3.5622,3.6383,3.8582,3.8954,3.9259,3.9986,4.0138,4.0426,4.1035,4.0476,4.0358,4.1052,4.046,4.007,4.007,4.007,4.007,4.007,4.007,4.007,4.007,4.007,4.007,4.007,4.007,4.007,4.007,4.007,4.007,4.007,4.007,4.007,4.007,4.007,4.007,4.007,4.007,4.007,4.007,4.007,4.007,4.007,4.007,4.007,4.007,4.007,4.007,4.007,4.007,4.007,4.007,4.007,4.007,4.007,4.007,4.007,4.007,4.007,4.007,4.007,4.007,4.007,4.007,4.007,4.007,4.007,4.007,4.007,4.007,4.007,4.007,3.9834,3.9174,3.9039,3.8684,3.7889,3.7736,3.7736,3.7787,3.712,3.6668,3.66,3.6583,3.6226,3.5378,3.6013,3.6073,3.5415,3.5474,3.5504,3.5504,3.5444,3.5415,3.5415,3.5355,3.5325,4.3149,4.3105,4.2408,4.1103,3.9173,3.7131,3.542,3.4175,3.314,3.2441,3.347,3.4455,3.4163,3.4695,3.5203,3.5402,3.5146,3.5571,3.7398,3.7263,3.7736,3.9834,3.9698,3.9715,4.046,4.0257,4.0206,4.051,4.0257,4.007,4.007,4.007,4.007,4.007,4.007,4.007,4.007,4.007,4.007,4.007,4.007,4.007,4.007,4.007,4.007,4.007,4.007,4.007,4.007,4.007,4.007,4.007,4.007,4.007,4.007,4.007,4.007,4.007,4.007,4.007,4.007,4.007,4.007,4.007,4.007,4.007,4.007,4.007,4.007,4.007,4.007,4.007,4.007,4.007,4.007,4.007,4.007,4.007,4.007,4.007,4.007,4.007,4.007,4.007,4.007,4.007,4.007,3.9969,3.9681,3.9648,3.9529,3.9242,3.843,3.8091,3.8514,3.827,3.7936,3.7494,3.7397,3.6796,3.5623,3.5813,3.5782,3.5504,3.5504,3.5504,3.5504,3.5504,3.5504,3.5504,3.5504,3.5504,4.2415,4.2849,4.2632,4.1397,3.9568,3.7631,3.5973,3.4984,3.4135,3.3171,3.4216,3.5312,3.5312,3.5455,3.5613,3.5624,3.5369,3.5554,3.662,3.6688,3.7398,3.9512,3.9495,3.9512,4.002,4.007,4.007,4.007,4.007,4.007,4.007,4.007,4.007,4.007,4.007,4.007,4.007,4.007,4.007,4.007,4.007,4.007,4.007,4.007,4.007,4.007,4.007,4.007,4.007,4.007,4.007,4.007,4.007,4.007,4.007,4.007,4.007,4.007,4.007,4.007,4.007,4.007,4.007,4.007,4.007,4.007,4.007,4.007,4.007,4.007,4.007,4.007,4.007,4.007,4.007,4.007,4.007,4.007,4.007,4.007,4.007,4.007,4.007,4.007,4.007,4.007,4.007,4.007,4.007,4.007,4.007,4.007,3.9157,3.8751,3.9276,3.9093,3.8755,3.8305,3.7762,3.6999,3.5918,3.5637,3.5504,3.5504,3.5504,3.5504,3.5504,3.5504,3.5504,3.5504,3.5504,3.5504,4.091,4.2286,4.3112,4.1515,3.99,3.8156,3.6055,3.4984,3.4135,3.3171,3.4216,3.5312,3.5312,3.5455,3.5783,3.6291,3.6635,3.6755,3.6772,3.8041,3.8971,3.9005,3.9631,4.007,4.007,4.007,4.007,4.007,4.007,4.007,4.007,4.007,4.007,4.007,4.007,4.007,4.007,4.007,4.007,4.007,4.007,4.007,4.007,4.007,4.007,4.007,4.007,4.007,4.007,4.007,4.007,4.007,4.007,4.007,4.007,4.007,4.007,4.007,4.007,4.007,4.007,4.007,4.007,4.007,4.007,4.007,4.007,4.007,4.007,4.007,4.007,4.007,4.007,4.007,4.007,4.007,4.007,4.007,4.007,4.007,4.007,4.007,4.007,4.007,4.007,4.007,4.007,4.007,4.007,4.007,4.007,4.007,4.007,4.0054,4.007,3.9368,3.8891,3.8891,3.7467,3.6615,3.66,3.5894,3.5504,3.5504,3.5504,3.5504,3.5504,3.5504,3.5504,3.5504,3.5504,3.5504,3.9093,3.9827,3.9974,3.8891,3.7845,3.6879,3.623,3.5871,3.5556,3.5065,3.6094,3.6875,3.6174,3.6094,3.6224,3.6374,3.6146,3.6349,3.7398,3.7516,3.8041,3.9546,3.9935,4.007,4.007,4.007,4.007,4.007,4.007,4.007,4.007,4.007,4.007,4.007,4.007,4.0324,4.0849,4.0341,4.0341,4.0849,4.0324,4.007,4.007,4.007,4.007,4.007,4.007,4.007,4.007,4.007,4.007,4.007,4.007,4.007,4.007,4.007,4.007,4.007,4.007,4.007,4.007,4.007,4.007,4.007,4.007,4.007,4.007,4.007,4.007,4.007,4.007,4.007,4.007,4.007,4.007,4.007,4.007,4.007,4.007,4.007,4.007,4.007,4.007,4.007,4.007,4.007,4.007,4.007,4.007,4.007,4.007,4.007,4.007,4.007,4.007,3.985,3.9731,3.9731,3.8745,3.8157,3.8157,3.6964,3.6275,3.6275,3.5782,3.5504,3.5504,3.5504,3.5504,3.5504,3.5504,3.5504,3.7716,3.8469,3.8579,3.8065,3.7349,3.667,3.6358,3.6523,3.6656,3.629,3.7128,3.7631,3.6825,3.6539,3.6478,3.6755,3.6608,3.6806,3.777,3.821,3.8954,4.0341,4.051,4.0392,4.0104,4.007,4.007,4.007,4.007,4.007,4.007,4.007,4.007,4.007,4.007,4.0307,4.0781,4.0307,4.0307,4.0781,4.0307,4.007,4.007,4.007,4.007,4.007,4.007,4.007,0.0,4.007,4.007,4.007,4.007,4.007,4.007,4.007,4.007,4.007,4.007,4.007,4.007,4.007,4.007,4.007,4.007,4.007,4.007,4.007,4.007,4.007,4.007,4.007,4.007,4.007,4.007,4.007,4.007,4.007,4.007,4.007,4.007,4.007,4.007,4.007,4.007,4.007,4.007,4.007,4.007,4.007,4.007,4.007,4.007,4.007,4.007,4.007,4.007,4.007,3.9315,3.8799,3.8525,3.7247,3.6508,3.6165,3.5718,3.5504,3.5504,3.5504,3.5504,3.5504,3.5504,3.5504,0.0,3.7826,3.8358,3.8358,3.7826,3.7129,3.645,3.6872,0.0,3.6877,3.7352,3.7736,3.7285,3.6803,3.67,3.7378,3.7667,3.7872,3.7973,3.9851,4.1187,4.1171,4.117,4.0882,4.0171,4.0087,4.007,4.007,4.007,4.0104,4.0155,4.0104,4.0104,4.0155,4.0104,4.0104,4.0155,4.0155,4.0155,4.0155,4.0104,4.007,4.007,4.007,4.007,4.007,4.007,4.007,4.007,4.007,4.007,4.007,4.007,4.007,4.007,4.007,4.007,4.007,4.007,4.007,4.007,4.007,4.007,4.007,4.007,4.007,4.007,4.007,4.007,4.007,4.007,4.007,4.007,4.007,4.007,4.007,4.007,4.007,4.007,4.007,4.007,4.007,4.007,4.007,4.007,4.007,4.007,4.007,4.007,4.007,4.007,4.007,4.007,4.007,4.007,4.007,4.007,4.007,3.9315,3.858,3.7937,3.704,3.6275,3.5619,3.5504,3.5504,3.5504,3.5504,3.5504,3.5504,3.5504,3.5504,3.5275,0.0,3.4945,3.4945,3.5275,3.5716,0.0,3.645,3.6772,3.7455,3.7598,3.7507,3.7253,3.7114,3.7128,3.7446,3.7267,3.7449,3.8582,4.0155,4.1121,4.1003,4.1137,4.0815,3.9903,3.9995,4.007,4.007,4.007,4.0341,4.0916,4.0392,4.0341,4.0916,4.0375,4.0358,4.0933,4.0933,4.0933,4.0933,4.0358,4.007,4.007,4.007,4.007,4.007,4.007,4.007,4.007,4.007,4.007,4.007,4.007,4.007,4.007,4.007,4.007,4.007,4.007,4.007,4.007,4.007,4.007,4.007,4.007,4.007,4.007,4.007,4.007,4.007,4.007,4.007,4.007,4.007,4.007,4.007,4.007,4.007,4.007,4.007,4.007,4.007,4.007,4.007,4.007,4.007,4.007,4.007,4.007,4.007,4.007,4.007,4.007,4.007,4.007,4.007,4.007,4.007,3.9315,3.8799,3.8635,3.7306,3.6492,3.6322,3.5782,3.5504,3.5504,3.5504,3.5504,3.5504,3.5504,3.5504,3.4339,3.4137,3.3899,3.4266,3.466,3.5119,3.5605,3.6303,3.7014,3.7603,3.7893,3.7953,3.7578,3.736,3.7468,3.8275,3.7806,3.7804,3.9292,4.0389,4.1047,4.1062,4.0832,4.0865,4.1294,4.0588,4.0489,4.1345,4.0814,4.062,4.1047,4.103,4.1052,4.1187,4.1136,4.0967,4.0696,4.0696,4.0696,4.0679,4.0273,4.007,4.007,4.007,4.007,4.007,4.007,4.007,4.007,4.007,4.007,4.007,4.007,4.007,4.007,4.007,4.007,4.007,4.007,4.007,4.007,4.007,4.007,4.007,4.007,4.007,4.007,4.007,4.007,4.007,4.007,4.007,4.007,4.007,4.007,4.007,4.007,4.007,4.007,4.007,4.007,4.007,4.007,4.007,4.007,4.007,4.007,4.007,4.007,4.007,4.007,4.007,4.007,4.007,4.007,4.007,4.007,4.007,3.9662,3.9315,3.8908,3.8101,3.7291,3.66,3.5894,3.5504,3.5504,3.5504,3.5504,3.5504,3.5504,3.5504,3.3807,3.3899,3.4119,3.466,3.4899,3.499,3.499,3.6101,3.7184,3.747,3.7936,3.8253,3.7943,3.7578,3.7765,3.9084,3.8868,3.9007,4.039,4.115,4.1583,4.1613,4.1171,4.1437,4.2936,4.155,4.1147,4.2687,4.1708,4.1146,4.1372,4.1851,4.1911,4.1546,4.1916,4.1474,4.0087,4.0189,4.0189,4.007,4.007,4.007,4.007,4.007,4.007,4.007,4.007,4.007,4.007,4.007,4.007,4.007,4.007,4.007,4.007,4.007,4.007,4.007,4.007,4.007,4.007,4.007,4.007,4.007,4.007,4.007,4.007,4.007,4.007,4.007,4.007,4.007,4.007,4.007,4.007,4.007,4.007,4.007,4.007,4.007,4.007,4.007,4.007,4.007,4.007,4.007,4.007,4.007,4.007,4.007,4.007,4.007,4.007,4.007,4.007,4.007,4.007,4.007,3.9952,3.9489,3.8564,3.8564,3.7873,3.6446,3.5846,3.5504,3.5504,3.5504,3.5504,3.5504,3.5504,3.5504,3.3807,3.4302,3.466,3.4119,3.4504,3.499,3.499,3.5192,3.5789,3.7202,3.7055,3.6918,3.7745,3.7825,3.7936,3.8415,4.0017,4.1568,4.2687,4.388,4.4336,4.3623,4.412,4.3814,4.2106,4.2317,4.2423,4.2005,4.1778,4.2229,4.3553,4.2661,4.2379,4.2953,4.1921,4.095,4.0087,4.0713,4.0713,4.007,4.007,4.007,4.007,4.007,4.007,4.007,4.007,4.007,4.007,4.007,4.007,4.007,4.007,4.007,4.007,4.007,4.007,4.007,4.007,4.007,4.007,4.007,4.007,4.007,4.007,4.007,4.007,4.007,4.007,4.007,4.007,4.007,4.007,4.007,4.007,4.007,4.007,4.007,4.007,4.007,4.007,4.007,4.007,4.007,4.007,4.007,4.007,4.007,4.007,4.007,4.007,4.007,4.007,4.007,4.007,4.007,4.007,4.007,3.9437,3.8453,3.7008,3.6948,3.6569,3.5668,3.5554,3.5504,3.5504,3.5504,3.5504,3.5504,3.5504,3.5504,3.3678,3.4082,3.4266,3.3899,3.4412,3.488,3.4468,3.4679,3.5367,3.6597,3.689,3.7344,3.8729,3.8526,3.8362,3.9136,4.1682,4.3347,4.2775,4.3494,4.3951,4.367,4.3635,4.3792,4.4198,4.3864,4.3921,4.461,4.3994,4.3721,4.3984,4.3491,4.3004,4.2635,4.1699,4.1035,4.0696,4.0629,4.0426,4.007,4.007,4.007,4.007,4.007,4.007,4.007,4.007,4.007,4.007,4.007,4.007,4.007,4.007,4.007,4.007,4.007,4.007,4.007,4.007,4.007,4.007,4.007,4.007,4.007,4.007,4.007,4.007,4.007,4.007,4.007,4.007,4.007,4.007,4.007,4.007,4.007,4.007,4.007,4.007,4.007,4.007,4.007,4.007,4.007,4.007,4.007,4.007,4.007,4.007,4.007,4.007,4.007,4.007,4.007,4.007,4.007,4.007,4.007,3.9782,3.9209,3.8509,3.8044,3.77,3.7322,3.6523,3.6117,3.6117,3.5668,3.5504,3.5504,3.5504,3.5504,3.3623,3.3935,3.4045,3.3844,3.4266,3.4605,3.4192,3.4578,3.5339,3.6597,3.7349,3.8163,3.9461,3.9067,3.903,4.0486,4.3103,4.457,4.3328,4.3669,4.4077,4.4237,4.3769,4.4202,4.6145,4.5285,4.5142,4.6433,4.5401,4.4554,4.4098,4.4062,4.3491,4.2352,4.1825,4.1476,4.1154,4.0724,4.0385,4.007,4.007,4.007,4.007,4.007,4.007,4.007,4.007,4.007,4.007,4.007,4.007,4.007,4.007,4.007,4.007,4.007,4.007,4.007,4.007,4.007,4.007,4.007,4.007,4.007,4.007,4.007,4.007,4.007,4.007,4.007,4.007,4.007,4.007,4.007,4.007,4.007,4.007,4.007,4.007,4.007,4.007,4.007,4.007,4.007,4.007,4.007,4.007,4.007,4.007,4.007,4.007,4.007,4.007,4.007,4.007,4.007,4.007,4.007,4.007,4.002,3.985,3.9209,3.8799,3.8635,3.7306,3.6615,3.6615,3.5831,3.5504,3.5504,3.5504,3.5504,3.377,3.4357,3.4715,3.399,3.3844,3.4082,3.4752,3.4954,3.565,3.8046,3.8579,3.8729,3.9079,3.9256,4.0015,4.2171,4.3913,4.5233,4.5918,4.6639,4.7108,4.7119,4.7083,4.6812,4.6272,4.5963,4.5535,4.4929,4.4086,4.3921,4.4601,4.4116,4.356,4.2943,4.2811,4.2191,4.0943,4.1437,4.1168,4.007,4.007,4.007,4.007,4.007,4.007,4.007,4.007,4.007,4.007,4.007,4.007,4.007,4.007,4.007,4.007,4.007,4.007,4.007,4.007,4.007,4.007,4.007,4.007,4.007,4.007,4.007,4.007,4.007,4.007,4.007,4.007,4.007,4.007,4.007,4.007,4.007,4.007,4.007,4.007,4.007,4.007,4.007,4.007,4.007,4.007,4.007,4.007,4.007,4.007,4.007,4.007,4.007,4.007,4.007,4.007,4.007,4.007,4.007,4.007,3.9782,3.9032,3.8908,3.858,3.7863,3.7024,3.6615,3.6615,3.5831,3.5504,3.5504,3.5504,3.5504,3.2926,3.4027,3.4807,3.4009,3.4578,3.5422,3.5752,3.5807,3.6229,3.7661,3.8744,3.968,4.0384,4.1402,4.2279,4.2745,4.4055,4.4988,4.4936,4.5497,4.596,4.6061,4.6431,4.6537,4.6206,4.6478,4.6324,4.5516,4.5149,4.4911,4.4727,4.4157,4.3552,4.2848,4.2406,4.1964,4.1446,4.1664,4.1578,4.115,4.0797,4.0625,4.0577,4.0237,4.007,4.007,4.007,4.007,4.007,4.007,4.007,4.007,4.007,4.007,4.007,4.007,4.007,4.007,4.007,4.007,4.007,4.007,4.007,4.007,4.007,4.007,4.007,4.007,4.007,4.007,4.007,4.007,4.007,4.007,4.007,4.007,4.007,4.007,4.007,4.007,4.007,4.007,4.007,4.007,4.007,4.007,4.007,4.007,4.007,4.007,4.007,4.007,4.007,4.007,4.007,4.007,4.007,4.007,4.007,3.9952,3.9662,3.9662,3.9506,3.9226,3.8453,3.7831,3.7338,3.6569,3.5943,3.5504,3.5504,3.5504,3.2394,3.3605,3.4504,3.3935,3.5238,3.6798,3.7312,3.7239,3.7422,3.8726,3.9882,4.0939,4.1887,4.2824,4.344,4.3476,4.4317,4.4921,4.4695,4.488,4.5119,4.5473,4.569,4.5892,4.6074,4.6245,4.6122,4.5571,4.5296,4.4892,4.436,4.398,4.3445,4.2711,4.2444,4.2266,4.208,4.2266,4.2346,4.2346,4.175,4.1358,4.1178,4.0625,4.0368,4.0319,4.0154,4.007,4.007,4.007,4.007,4.007,4.007,4.007,4.007,4.007,4.007,4.007,4.007,4.007,4.007,4.007,4.007,4.007,4.007,4.007,4.007,4.007,4.007,4.007,4.007,4.007,4.007,4.007,4.007,4.007,4.007,4.007,4.007,4.007,4.007,4.007,4.007,4.007,4.007,4.007,4.007,4.007,4.007,4.007,4.007,4.007,4.007,4.007,4.007,4.007,4.007,4.007,4.007,4.007,4.007,4.007,4.007,4.007,3.9315,3.8525,3.7822,3.6964,3.6228,3.5504,3.5504,3.5504,3.2394,3.3201,3.3807,3.3807,3.5679,3.7918,3.9515,3.9276,3.9386,4.1809,4.2286,4.2543,4.3332,4.3014,4.3079,4.4455,4.4849,4.5182,4.5792,4.5358,4.5222,4.5792,4.5358,4.5222,4.5847,4.5168,4.4709,4.4709,4.3956,4.3497,4.3497,4.3497,4.325,4.2732,4.3214,4.325,4.2711,4.325,4.3497,4.3479,4.2976,4.2382,4.181,4.1161,4.0903,4.0856,4.0319,4.0121,4.0121,4.007,4.007,4.007,4.007,4.007,4.007,4.007,4.007,4.007,4.007,4.007,4.007,4.007,4.007,4.007,4.007,4.007,4.007,4.007,4.007,4.007,4.007,4.007,4.007,4.007,4.007,4.007,4.007,4.007,4.007,4.007,4.007,4.007,4.007,4.007,4.007,4.007,4.007,4.007,4.007,4.007,4.007,4.007,4.007,4.007,4.007,4.007,4.007,4.007,4.007,4.007,4.007,4.007,4.007,4.007,3.9315,3.8525,3.7822,3.7024,3.6228,3.5504,3.5504,3.5519,3.2394,3.3605,3.4651,3.4651,3.6523,3.8615,3.9662,3.9717,4.0065,4.1919,4.1864,4.1882,4.324,4.3797,4.4035,4.3866,4.4364,4.4527,4.3775,4.3834,4.4071,4.4447,4.4672,4.4858,4.5022,4.4856,4.447,4.3901,4.3626,4.3497,4.3497,4.3497,4.341,4.325,4.341,4.341,4.325,4.341,4.3497,4.3497,4.3339,4.2958,4.2422,4.181,4.1534,4.149,4.092,4.0655,4.0607,4.0254,4.007,4.007,4.007,4.007,4.007,4.007,4.007,4.007,4.007,4.007,4.007,4.007,4.007,4.007,4.007,4.007,4.007,4.007,4.007,4.007,4.007,4.007,4.007,4.007,4.007,4.007,4.007,4.007,4.007,4.007,4.007,4.007,4.007,4.007,4.007,4.007,4.007,4.007,4.007,4.007,4.007,4.007,4.007,4.007,4.007,4.007,4.007,4.007,4.007,4.007,4.007,4.007,4.007,4.007,3.985,3.9385,3.858,3.8342,3.8088,3.7883,3.7883,3.7842,3.1898,3.3311,3.4688,3.5367,3.7606,3.9863,4.0671,4.1093,4.1607,4.258,4.2396,4.2359,4.3314,4.3901,4.4066,4.3571,4.3901,4.3942,4.3123,4.3286,4.3539,4.3705,4.4017,4.4213,4.4213,4.4213,4.4011,4.3534,4.3497,4.3497,4.3497,4.3497,4.3497,4.3497,4.3497,4.3497,4.3497,4.3497,4.3497,4.3497,4.3497,4.3321,4.3014,4.2422,4.2038,4.175,4.092,4.0577,4.0577,4.0254,4.007,4.007,4.007,4.007,4.007,4.007,4.007,4.007,4.007,4.007,4.007,4.007,4.007,4.007,4.007,4.007,4.007,4.007,4.007,4.007,4.007,4.007,4.007,4.007,4.007,4.007,4.007,4.007,4.007,4.007,4.007,4.007,4.007,4.007,4.007,4.007,4.007,4.007,4.007,4.007,4.007,4.007,4.007,4.007,4.007,4.007,4.007,4.007,4.007,4.007,4.007,4.007,4.007,4.007,4.007,3.9714,3.8908,3.9204,3.9233,3.8905,3.9177,3.9104,3.1366,3.2687,3.4211,3.5973,3.8836,4.1423,4.2231,4.2983,4.3461,4.3406,4.3442,4.3497,4.3497,4.3552,4.3589,4.3497,4.3552,4.3571,4.3497,4.3497,4.3497,4.3497,4.3497,4.3497,4.3497,4.3497,4.3497,4.3497,4.3497,4.3497,4.3497,4.3497,4.3497,4.3497,4.3497,4.3497,4.3497,4.3497,4.3497,4.3497,4.3497,4.3497,4.3479,4.2976,4.244,4.181,4.0737,4.0204,4.0171,4.0121,4.007,4.007,4.007,4.007,4.007,4.007,4.007,4.007,4.007,4.007,4.007,4.007,4.007,4.007,4.007,4.007,4.007,4.007,4.007,4.007,4.007,4.007,4.007,4.007,4.007,4.007,4.007,4.007,4.007,4.007,4.007,4.007,4.007,4.007,4.007,4.007,4.007,4.007,4.007,4.007,4.007,4.007,4.007,4.007,4.007,4.007,4.007,4.007,4.007,4.0104,4.0172,4.0121,4.007,4.007,4.0155,3.9831,3.9131,3.9929,3.9975,3.935,4.0022,3.9875,3.2889,3.3532,3.4357,3.6652,3.9662,4.2249,4.3057,4.3369,4.3314,4.269,4.3057,4.3497,4.3497,4.4011,4.425,4.3589,4.403,4.4213,4.3589,4.3497,4.3497,4.3497,4.3497,4.3497,4.3497,4.3497,4.3497,4.3497,4.3497,4.3497,4.3497,4.3497,4.3497,4.3497,4.3497,4.3497,4.3497,4.3497,4.3497,4.3497,4.3497,4.3497,4.3497,4.3375,4.3014,4.248,4.1725,4.1213,4.0754,4.0303,4.007,4.007,4.007,4.007,4.007,4.007,4.007,4.007,4.007,4.007,4.007,4.007,4.007,4.007,4.007,4.007,4.007,4.007,4.007,4.007,4.007,4.007,4.007,4.007,4.007,4.007,4.007,4.007,4.007,4.007,4.007,4.007,4.007,4.007,4.007,4.007,4.007,4.007,4.007,4.007,4.007,4.007,4.007,4.007,4.007,4.007,4.007,4.007,4.007,4.0341,4.0933,4.0392,4.007,4.007,4.0663,4.0898,4.0725,4.1466,4.2051,4.2456,4.2607,4.256,3.2999,3.3788,3.5165,3.8414,4.1056,4.2983,4.3387,4.3497,4.3369,4.2947,4.3204,4.3497,4.3497,4.3828,4.3993,4.3552,4.3846,4.3975,4.3552,4.3497,4.3497,4.3497,4.3497,4.3497,4.3497,4.3497,4.3497,4.3497,4.3497,4.3497,4.3497,4.3497,4.3497,4.3497,4.3497,4.3497,4.3497,4.3497,4.3497,4.3497,4.3497,4.3497,4.3479,4.325,4.2976,4.2673,4.208,4.1464,4.0955,4.0625,4.0336,4.0121,4.0368,4.0497,4.0546,4.0814,4.0891,4.0844,4.0577,4.0497,4.0449,4.0154,4.007,4.007,4.007,4.007,4.007,4.007,4.007,4.007,4.007,4.007,4.007,4.007,4.007,4.007,4.007,4.007,4.007,4.007,4.007,4.007,4.007,4.007,4.007,4.007,4.007,4.007,4.007,4.007,4.007,4.007,4.007,4.007,4.007,4.007,4.007,4.007,4.007,4.0409,4.117,4.0832,4.0781,4.1136,4.1525,4.1728,4.1728,4.2472,4.3031,4.342,4.3809,4.3753,3.2779,3.4183,3.6476,4.0029,4.2213,4.3497,4.3497,4.3497,4.3497,4.3497,4.3497,4.3497,4.3497,4.3497,4.3497,4.3497,4.3497,4.3497,4.3497,4.3497,4.3497,4.3497,4.3497,4.3497,4.3497,4.3497,4.3497,4.3497,4.3497,4.3497,4.3497,4.3497,4.3497,4.3497,4.3497,4.3497,4.3497,4.3497,4.3497,4.3497,4.3497,4.3497,4.3479,4.305,4.2826,4.2826,4.2203,4.1664,4.1206,4.1087,4.0797,4.0417,4.0874,4.1041,4.1133,4.1621,4.181,4.1707,4.1133,4.0903,4.0827,4.0286,4.007,4.007,4.007,4.007,4.007,4.007,4.007,4.007,4.007,4.007,4.007,4.007,4.0172,4.0273,4.0273,4.0172,4.0121,4.0257,4.0172,4.007,4.007,4.007,4.007,4.007,4.007,4.007,4.007,4.007,4.007,4.007,4.007,4.007,4.007,4.007,4.0121,4.0257,4.0155,4.0527,4.1542,4.1457,4.1796,4.2658,4.2557,4.2489,4.2489,4.325,4.3623,4.3639,4.4282,4.4196,3.3458,3.5881,3.8505,3.9753,4.1791,4.3497,4.3497,4.3497,4.3497,4.3497,4.3497,4.3497,4.3497,4.3497,4.3497,4.3497,4.3497,4.3497,4.3497,4.3497,4.3497,4.3497,4.3497,4.3497,4.3497,4.3497,4.3497,4.3497,4.3497,4.3497,4.3497,4.3497,4.3497,4.3497,4.3497,4.3497,4.3497,4.3497,4.3497,4.3497,4.3497,4.3497,4.3497,4.341,4.341,4.3356,4.2808,4.2519,4.244,4.1895,4.1639,4.1578,4.1664,4.1664,4.1664,4.175,4.181,4.1707,4.1133,4.0903,4.0827,4.0286,4.007,4.007,4.007,4.007,4.007,4.007,4.007,4.007,4.007,4.007,4.007,4.007,4.0578,4.1052,4.1052,4.0544,4.0273,4.0933,4.0527,4.007,4.007,4.007,4.007,4.007,4.007,4.007,4.007,4.007,4.007,4.007,4.007,4.007,4.007,4.007,4.0358,4.1018,4.0443,4.0984,4.3031,4.2489,4.2811,4.4248,4.3606,4.3267,4.3267,4.4045,4.4418,4.4418,4.4536,4.4514,3.4853,3.6578,3.8432,4.0157,4.1717,4.2947,4.3387,4.3497,4.3497,4.3497,4.3497,4.3497,4.3497,4.3497,4.3497,4.3497,4.3497,4.3497,4.3497,4.3497,4.3497,4.3497,4.3497,4.3497,4.3497,4.3497,4.3497,4.3497,4.3497,4.3497,4.3497,4.3497,4.3497,4.3497,4.3497,4.3497,4.3497,4.3039,4.2818,4.2818,4.3277,4.3497,4.3497,4.3497,4.3497,4.3497,4.325,4.2976,4.2655,4.2422,4.2121,4.1835,4.2162,4.2302,4.2342,4.2657,4.2772,4.2678,4.2103,4.1664,4.1358,4.1105,4.0594,4.0171,4.0449,4.0319,4.007,4.007,4.007,4.007,4.007,4.007,4.007,4.007,4.0341,4.0798,4.1644,4.1238,4.0679,4.0595,4.0307,4.007,4.007,4.007,4.007,4.007,4.007,4.007,4.007,4.007,4.007,4.007,4.007,4.007,4.007,4.007,4.0392,4.1153,4.0493,4.0899,4.2709,4.2472,4.2811,4.391,4.4012,4.4062,4.4062,4.4418,4.4587,4.4587,4.4587,4.4587,3.5569,3.6707,3.801,4.0249,4.1552,4.2506,4.3314,4.3332,4.3185,4.3185,4.3185,4.3185,4.3185,4.3351,4.3497,4.3497,4.3497,4.3497,4.3497,4.3497,4.3497,4.3497,4.3497,4.3497,4.3497,4.3497,4.3497,4.3497,4.3296,4.3277,4.3479,4.3296,4.3185,4.3185,4.3185,4.3094,4.2892,4.2286,4.2194,4.2598,4.3002,4.3296,4.3497,4.3497,4.3497,4.3497,4.3497,4.325,4.2902,4.2902,4.2637,4.2266,4.2732,4.2902,4.2939,4.3375,4.3497,4.341,4.2902,4.24,4.1979,4.1664,4.0984,4.0368,4.0625,4.0417,4.007,4.007,4.007,4.007,4.007,4.007,4.007,4.007,4.0223,4.0612,4.1525,4.1593,4.1204,4.0257,4.007,4.007,4.007,4.007,4.007,4.007,4.007,4.007,4.007,4.007,4.007,4.007,4.007,4.007,4.007,4.0257,4.0679,4.1424,4.095,4.1305,4.2811,4.2675,4.2929,4.369,4.4282,4.4587,4.4587,4.4587,4.4587,4.4587,4.4587,4.4587,3.4825,3.6266,3.7881,3.9533,4.113,4.2506,4.3314,4.291,4.2359,4.2359,4.2359,4.2359,4.2359,4.2983,4.3497,4.3497,4.3497,4.3497,4.3497,4.3497,4.3497,4.3497,4.3497,4.3497,4.3497,4.3497,4.3497,4.3497,4.2782,4.269,4.3442,4.2782,4.2359,4.2359,4.2359,4.2011,4.124,4.1185,4.1937,4.3424,4.2708,4.2763,4.3497,4.3497,4.3497,4.3497,4.3497,4.3479,4.3444,4.3444,4.3444,4.341,4.3444,4.3444,4.3444,4.3479,4.3497,4.341,4.2902,4.2655,4.248,4.1313,4.0903,4.078,4.0286,4.0121,4.007,4.007,4.007,4.007,4.007,4.007,4.007,4.007,4.0629,4.0967,4.0324,4.1271,4.1813,4.0358,4.007,4.007,4.007,4.007,4.007,4.007,4.007,4.007,4.007,4.007,4.007,4.007,4.007,4.007,4.007,4.073,4.1457,4.2185,4.2202,4.2861,4.4401,4.3758,4.3724,4.4502,4.4553,4.4587,4.4587,4.4587,4.4587,4.4587,4.4587,4.4587,3.477,3.5862,3.711,3.8726,3.9955,4.0965,4.1791,4.1754,4.1534,4.1534,4.1534,4.1699,4.2194,4.2947,4.3497,4.3497,4.3497,4.3497,4.3497,4.3497,4.3497,4.3497,4.3497,4.3497,4.3497,4.302,4.2727,4.2727,4.1992,4.1662,4.1937,4.1699,4.1534,4.1534,4.1534,4.1148,4.0341,4.0855,4.113,4.1185,4.1423,4.1956,4.2727,4.2727,4.3002,4.3497,4.3497,4.3497,4.3497,4.3497,4.3497,4.3497,4.3497,4.3497,4.3497,4.3497,4.3497,4.3479,4.3286,4.2976,4.2616,4.2203,4.1534,4.0856,4.0655,4.0368,4.007,4.007,4.007,4.007,4.007,4.007,4.0204,4.0528,4.1462,4.198,4.0875,4.1137,4.1288,4.0273,4.007,4.024,4.0713,4.0392,4.024,4.073,4.0392,4.007,4.007,4.0493,4.0612,4.0121,4.051,4.0798,4.0798,4.1052,4.1728,4.2929,4.2557,4.276,4.3792,4.3572,4.3555,4.3826,4.4333,4.4587,4.4587,4.4587,4.4587,4.4587,4.4587,4.4587,3.4394,3.544,3.6688,3.8303,3.9294,4.0102,4.0928,4.0891,4.0708,4.0708,4.0708,4.0873,4.1405,4.2359,4.3094,4.3094,4.3094,4.3002,4.2727,4.2928,4.3094,4.3094,4.3332,4.3387,4.3112,4.2598,4.2194,4.1919,4.1148,4.0836,4.1093,4.0855,4.0708,4.0708,4.0451,4.0175,3.99,4.0157,4.0304,4.0304,4.0579,4.1258,4.2304,4.2304,4.2745,4.3497,4.3497,4.3497,4.3497,4.3497,4.3497,4.3497,4.3497,4.3497,4.3497,4.3497,4.3497,4.3497,4.3497,4.325,4.2902,4.2519,4.1853,4.1133,4.075,4.0368,4.007,4.007,4.007,4.0121,4.0336,4.0514,4.0767,4.1133,4.1877,4.2282,4.1373,4.1561,4.1512,4.0324,4.0476,4.0815,4.0832,4.0832,4.0815,4.0832,4.0612,4.046,4.046,4.0899,4.1102,4.0849,4.1271,4.1576,4.1576,4.1813,4.2371,4.3352,4.3183,4.3284,4.3792,4.3809,4.3809,4.3809,4.4316,4.4587,4.4587,4.4587,4.4587,4.4587,4.4587,4.4587,0.0,0.0,0.0,3.823,3.9239,4.0047,4.0891,4.0451,3.9845,3.9845,3.9845,3.9827,3.9845,4.113,4.2194,4.2231,4.2268,4.2029,4.1222,4.1772,4.2268,4.2304,4.2965,4.313,4.2378,4.2268,4.1919,4.113,4.0322,4.0212,4.1001,4.0286,3.9845,3.9845,3.9111,3.9074,3.9845,3.9093,3.9478,4.1038,4.023,4.0689,4.2231,4.2249,4.269,4.3461,4.3479,4.3497,4.3497,4.3497,4.3497,4.3497,4.3497,4.3497,4.3497,4.3497,4.3497,4.3497,4.3497,4.3497,4.3321,4.2185,4.1853,4.1639,4.0514,4.0121,4.0121,4.0121,4.0121,4.0254,4.078,4.1358,4.1853,4.1853,4.1853,4.1853,4.1853,4.2584,4.2627,4.0543,4.1306,4.1865,4.0426,4.1339,4.1796,4.0358,4.0747,4.1204,4.1204,4.1221,4.1508,4.2219,4.2303,4.232,4.232,4.2997,4.3436,4.3453,4.4164,4.4587,4.4587,4.4587,4.4587,4.4587,4.4587,4.4587,4.4587,4.4587,4.4587,4.4587,4.4604,4.4604,3.2871,0.0,0.0,0.0,0.0,0.0,3.9918,3.9606,3.9038,3.9038,3.856,3.8322,3.8927,3.9405,3.9882,4.0469,4.1534,4.2029,4.1222,4.1295,4.1662,4.2231,4.1992,4.1919,4.2268,4.124,4.0469,4.0249,3.9496,3.9129,3.935,3.9148,3.9038,3.9038,3.8817,3.8817,3.9038,3.8817,3.8927,3.9368,3.9148,3.957,4.0579,4.1167,4.1882,4.2653,4.324,4.3497,4.3497,4.3497,4.3497,4.3497,4.3497,4.3497,4.3497,4.3497,4.3497,4.3497,4.3497,4.3497,4.3356,4.2675,4.244,4.2302,4.1552,4.1013,4.0703,4.0703,4.0703,4.0827,4.1402,4.1979,4.244,4.244,4.2752,4.2903,4.2519,4.3089,4.3188,4.1657,4.1799,4.2204,4.2324,4.2296,4.2151,4.1745,4.1407,4.1204,4.1204,4.166,4.2066,4.2269,4.2777,4.3115,4.3115,4.3301,4.3656,4.4215,4.4468,4.4587,4.4587,4.4587,4.4587,4.4587,4.4587,4.4587,4.4587,4.4587,4.4587,4.4587,4.5145,4.5399,3.2614,3.4045,3.5752,3.6578,0.0,0.0,3.8744,3.8524,3.8102,3.7771,3.7331,3.7129,3.7606,3.7973,3.834,3.8817,3.9974,4.0634,4.0175,4.0396,4.0781,4.124,4.1185,4.1167,4.1295,4.0451,3.9753,3.9423,3.8964,3.8707,3.8707,3.8707,3.8707,3.8707,3.8707,3.8707,3.8707,3.8707,3.8707,3.8707,3.8707,3.9129,3.9918,4.0744,4.1552,4.2323,4.28,4.3185,4.3461,4.313,4.3185,4.3497,4.3497,4.3497,4.3497,4.3497,4.3497,4.3497,4.3497,4.3497,4.341,4.2864,4.2711,4.2577,4.1979,4.1534,4.1268,4.1268,4.1446,4.1707,4.2062,4.258,4.3014,4.3014,4.325,4.341,4.3105,4.3377,4.3385,4.2477,4.2713,4.3071,4.3224,4.3253,4.3031,4.2388,4.2202,4.2134,4.2134,4.2506,4.2895,4.32,4.3639,4.391,4.391,4.391,4.4096,4.4553,4.4587,4.4587,4.4587,4.4587,4.4587,4.4587,4.4587,4.4587,4.4587,4.4587,4.4739,4.506,4.55,4.5872,3.2614,3.4339,3.634,3.7147,3.7955,0.0,3.7881,3.7679,3.7422,3.6707,3.6486,3.6431,3.6431,3.7059,3.7555,3.7636,3.8242,3.875,3.8707,3.9313,3.979,3.9882,4.0451,4.0598,3.9955,3.9808,3.946,3.8762,3.8707,3.8707,3.8707,3.8707,3.8707,3.8707,3.8707,3.8707,3.8707,3.8707,3.8707,3.8707,3.8707,3.9074,3.979,4.0689,4.1497,4.2176,4.2359,4.2837,4.3424,4.2727,4.2837,4.3497,4.3497,4.3497,4.3497,4.3497,4.3497,4.3497,4.3497,4.3497,4.341,4.2939,4.2788,4.2693,4.2144,4.1937,4.1895,4.1895,4.2302,4.2711,4.2788,4.3142,4.3497,4.3497,4.3497,4.3497,4.3497,4.3552,4.3561,4.3352,4.3898,4.4205,4.3614,4.4146,4.4173,4.2625,4.298,4.342,4.342,4.342,4.3724,4.4485,4.4587,4.4587,4.4587,4.4587,4.4587,4.4587,4.4587,4.4587,4.4587,4.4587,4.4587,4.4587,4.4587,4.4587,4.4587,4.4587,4.4976,4.5703,4.5788,4.6227,3.2614,3.3917,3.5477,3.6321,3.7129,0.0,3.9166,3.8927,3.8414,3.8267,3.7716,3.7257,3.7257,3.7553,3.796,3.8401,3.8773,3.8933,3.8719,3.8836,3.9166,3.9808,3.9478,3.9368,3.9845,3.9313,3.8872,3.8707,3.8707,3.8707,3.8707,3.8707,3.8707,3.8707,3.8707,3.8707,3.8707,3.8707,3.8707,3.8707,3.8707,3.8781,3.8982,4.0451,4.1203,4.1423,4.269,4.3332,4.3479,4.3314,4.3351,4.3497,4.3497,4.3497,4.3497,4.3497,4.3497,4.3497,4.3497,4.3497,4.3479,4.3375,4.3321,4.3321,4.3196,4.2884,4.2519,4.2519,4.2616,4.2788,4.3214,4.341,4.3497,4.3497,4.3497,4.3497,4.3497,4.4011,4.4619,4.5241,4.508,4.4874,4.4805,4.5122,4.4816,4.3373,4.3318,4.342,4.342,4.342,4.3724,4.4485,4.4587,4.4587,4.4587,4.4587,4.4587,4.4587,4.4587,4.4587,4.4587,4.4587,4.4587,4.4587,4.4587,4.4587,4.4587,4.4587,4.4976,4.572,4.6312,4.6989,3.3201,3.41,3.5302,3.6578,3.7184,0.0,0.0,3.8377,3.7991,3.7588,3.6961,3.6619,3.7026,3.6982,3.7248,3.8361,3.8521,3.8728,3.9404,3.905,3.8854,3.9239,3.8946,3.8854,3.9258,3.8946,3.8707,3.8707,3.8707,3.8707,3.8707,3.8707,3.8707,3.8707,3.8707,3.8707,3.8707,3.8707,3.8707,3.8707,3.8707,3.8707,3.8744,3.9955,4.0506,4.0579,4.1772,4.2525,4.2892,4.2892,4.313,4.3497,4.3497,4.3497,4.3497,4.3497,4.3497,4.3497,4.3497,4.3497,4.3497,4.3497,4.3497,4.3497,4.3497,4.3286,4.3105,4.3105,4.3105,4.3178,4.341,4.3497,4.3497,4.3497,4.3497,4.3497,4.3497,4.3809,4.4342,4.5149,4.5369,4.562,4.6193,4.6118,4.5593,4.461,4.4453,4.4363,4.405,4.3995,4.4147,4.4536,4.4587,4.4587,4.4587,4.4587,4.4587,4.4587,4.4587,4.4587,4.4587,4.4587,4.4587,4.4587,4.4587,4.4587,4.4587,4.4959,4.5331,4.572,4.6447,4.7192,3.4247,3.4871,3.5826,3.7147,3.7606,3.7679,0.0,0.0,0.0,3.6688,3.635,3.6379,3.7056,3.6919,3.7081,3.8206,3.8367,3.8702,3.9757,3.9453,3.9128,3.9148,3.8615,3.8414,3.8891,3.8927,3.8799,3.8487,3.8762,3.8854,3.8707,3.8707,3.8707,3.8707,3.8707,3.8707,3.8707,3.8707,3.8707,3.8707,3.8707,3.8707,3.8726,3.9533,3.9974,4.0175,4.0983,4.1791,4.2525,4.2525,4.291,4.3497,4.3497,4.3497,4.3497,4.3497,4.3497,4.3497,4.3497,4.3497,4.3497,4.3497,4.3497,4.3497,4.3497,4.3497,4.3497,4.3497,4.3497,4.3497,4.3497,4.3497,4.3497,4.3497,4.3497,4.3497,4.3497,4.3608,4.392,4.458,4.548,4.6358,4.7036,4.6865,4.6336,4.5597,4.5511,4.5267,4.4682,4.4587,4.4587,4.4587,4.4587,4.4587,4.4587,4.4587,4.4587,4.4587,4.4587,4.4587,4.4587,4.4587,4.4587,4.4587,4.4587,4.4587,4.4587,4.5331,4.5771,4.594,4.6667,4.7411,3.5807,3.6597,3.7239,3.747,3.8028,3.8377,3.7643,0.0,3.834,3.7514,0.0,3.8707,3.8801,0.0,0.0,3.8452,3.9172,3.9539,3.8648,3.9755,4.0694,4.0822,3.8303,3.7404,3.9551,3.9753,3.9166,3.7734,3.8946,3.9441,3.8744,3.8707,3.8707,3.8707,3.8707,3.8707,3.8707,3.8707,3.8707,3.8707,3.8707,3.8707,3.8726,3.9533,4.0286,4.102,4.1809,4.2616,4.3351,4.3351,4.3406,4.3497,4.3497,4.3497,4.3497,4.3497,4.3497,4.3497,4.3497,4.3497,4.3497,4.3497,4.3497,4.3497,4.3497,4.3497,4.3497,4.3497,4.3497,4.3497,4.3497,4.3497,4.3497,4.3497,4.3497,4.3497,4.3497,4.4066,4.4599,4.469,4.5938,4.6813,4.6422,4.6873,4.6864,4.5699,4.5511,4.5267,4.4682,4.4587,4.4587,4.4587,4.4587,4.4587,4.4587,4.4587,4.4587,4.4587,4.4587,4.4587,4.4587,4.4587,4.4587,4.4587,4.4587,4.4587,4.4587,4.5331,4.6041,4.6684,4.7445,4.8189,3.533,3.5459,3.5697,3.7158,3.7386,3.7331,3.7459,3.812,3.8469,3.7661,0.0,0.0,0.0,0.0,0.0,0.0,3.9872,4.0099,4.0051,3.9694,3.983,4.0857,3.9784,3.8928,3.8757,3.9013,3.8542,3.6909,3.8726,3.935,3.8065,3.845,3.8707,3.8707,3.8707,3.8707,3.8707,3.8707,3.8707,3.8707,3.8707,3.8707,3.8707,3.9056,3.9643,4.0451,4.1258,4.2066,4.2837,4.3296,4.3497,4.3497,4.3497,4.3497,4.3497,4.3497,4.3497,4.3497,4.3497,4.3497,4.3497,4.3497,4.3497,4.3497,4.3497,4.3497,4.3497,4.3497,4.3497,4.3497,4.3497,4.3497,4.3497,4.3497,4.3497,4.3626,4.4103,4.4085,4.4287,4.5223,4.5938,4.647,4.6679,4.7368,4.7614,4.6728,4.6589,4.6353,4.5732,4.5648,4.5648,4.5648,4.5648,4.5494,4.5125,4.552,4.5405,4.466,4.4587,4.4587,4.4587,4.4587,4.4587,4.4587,4.4587,4.4587,4.4587,4.5771,4.6498,4.6802,4.7564,4.8088,3.5147,3.5092,3.5238,3.7037,3.7221,3.7,3.7129,3.7955,3.8414,3.7367,3.7951,0.0,0.0,0.0,3.9738,4.0104,0.0,4.0329,4.0692,3.9927,3.9895,4.1383,4.1548,4.0721,3.8596,3.9342,3.9061,3.6943,3.8796,3.9271,3.7599,3.8046,3.8469,3.8689,3.8707,3.8707,3.8707,3.8707,3.8707,3.8707,3.8707,3.8707,3.8707,3.8707,3.9148,3.9937,4.0763,4.157,4.2359,4.3167,4.3497,4.3497,4.3497,4.3497,4.3497,4.3497,4.3497,4.3497,4.3497,4.3497,4.3497,4.3497,4.3497,4.3497,4.3497,4.3497,4.3497,4.3497,4.3497,4.3497,4.3497,4.3497,4.3497,4.3497,4.3497,4.3644,4.425,4.4085,4.4176,4.5351,4.5938,4.6416,4.7021,4.7774,4.8093,4.7488,4.7385,4.715,4.6478,4.6383,4.6383,4.6383,4.6625,4.6477,4.5858,4.6499,4.6419,4.5269,4.5179,4.5094,4.4891,4.4891,4.479,4.4587,4.4587,4.4587,4.4587,4.6058,4.6786,4.6802,4.7767,4.8206,3.6028,3.6798,3.7386,3.7489,3.8065,3.823,3.6688,3.7551,3.8248,3.6652,3.8051,3.9561,3.958,4.0063,4.0219,3.945,3.9988,0.0,0.0,4.0704,4.2068,4.3101,4.3221,4.2289,3.9879,4.1755,4.1701,3.8208,3.9461,3.9537,3.7599,3.7514,3.7881,3.8689,3.8707,3.8707,3.8707,3.8707,3.8707,3.8707,3.8707,3.8707,3.8707,3.8707,3.9148,3.9937,4.0763,4.157,4.2359,4.3167,4.3497,4.3497,4.3497,4.3497,4.3497,4.3497,4.3497,4.3497,4.3497,4.3497,4.3497,4.3497,4.3497,4.3497,4.3497,4.3497,4.3497,4.3497,4.3497,4.3497,4.3497,4.3497,4.3497,4.3497,4.3497,4.3497,4.3516,4.4121,4.469,4.4745,4.6012,4.7095,4.7113,4.7774,4.8093,4.7488,4.7385,4.715,4.6478,4.6383,4.6383,4.6383,4.7121,4.7354,4.6638,4.7278,4.7489,4.6777,4.6718,4.6397,4.5703,4.5669,4.5331,4.4587,4.4587,4.4587,4.4587,4.6058,4.6786,4.6819,4.8291,4.8968,3.5917,3.5679,3.5569,3.7753,3.7257,3.6413,3.6964,3.7092,3.711,3.7092,3.8014,3.898,3.9505,4.0082,4.0412,4.0142,4.0315,4.0392,0.0,4.1085,4.1923,4.2279,4.2139,4.1296,3.9355,3.9542,3.9064,3.7268,3.7479,3.7413,3.6754,3.6707,3.7055,3.7863,3.79,3.8157,3.8689,3.8707,3.8707,3.8707,3.8707,3.8707,3.8707,3.8707,3.9441,4.0689,4.0414,4.1368,4.3057,4.28,4.302,4.3497,4.3497,4.3497,4.3497,4.3497,4.3497,4.3497,4.3497,4.3497,4.3497,4.3497,4.3497,4.3497,4.3497,4.3497,4.3497,4.3497,4.3497,4.3497,4.3497,4.3497,4.3497,4.3497,4.3497,4.3773,4.4856,4.4892,4.5186,4.6783,4.7095,4.7297,4.781,4.8122,4.821,4.8035,4.7995,4.7937,4.7697,4.7656,4.7656,4.7656,4.791,4.7867,4.7287,4.7202,4.7248,4.7496,4.7073,4.6464,4.5737,4.5703,4.5348,4.4587,4.4587,4.4587,4.4587,4.5585,4.6312,4.6802,4.7817,4.8545,3.5202,3.5055,3.5202,3.7331,3.6872,3.6101,3.689,3.689,3.678,3.7019,3.7687,3.8385,3.8888,3.9735,4.026,3.997,4.0246,4.0489,0.0,4.0969,4.1335,4.1335,4.1717,4.1418,3.9929,3.97,3.8812,3.6883,3.6856,3.6583,3.5881,3.6138,3.667,3.7489,3.7771,3.8175,3.8689,3.8707,3.8707,3.8707,3.8707,3.8707,3.8707,3.8707,3.9276,4.023,3.9992,4.0781,4.2213,4.2286,4.2598,4.3094,4.3387,4.3497,4.3497,4.3497,4.3497,4.3497,4.3497,4.3497,4.3497,4.3497,4.3497,4.3497,4.3497,4.3497,4.3608,4.4176,4.3938,4.3626,4.4195,4.392,4.3497,4.3497,4.3718,4.4213,4.5241,4.5535,4.603,4.759,4.77,4.77,4.8214,4.8306,4.8306,4.8306,4.8306,4.8306,4.8306,4.8306,4.8306,4.8306,4.8838,4.9107,4.8866,4.8318,4.8031,4.8274,4.7614,4.687,4.6126,4.5838,4.5602,4.5382,4.4857,4.484,4.5365,4.5602,4.594,4.643,4.7175,4.7919]},{"header":{"parameterUnit":"m.s-1","parameterCategory":1,"la1":30.6,"la2":29.2853,"lo1":-89.7004,"lo2":-87.6739,"dy":0.0162,"dx":0.0183,"nx":112,"ny":82,"refTime":"2023-06-01T12:00:00:Z","depth":0,"parameterNumber":3,"parameterNumberName":"V-component_of_WINDS"},"data":[0.0,0.0,0.0,0.0,0.0,0.0,0.0,0.0,0.0,0.0,0.0,0.0,0.0,0.0,0.0,0.0,0.0,0.0,0.0,0.0,0.0,0.0,0.0,0.0,0.0,0.0,0.0,0.0,0.0,0.0,0.0,0.0,0.0,0.0,0.0,0.0,0.0,0.0,0.0,0.0,0.0,0.0,0.0,0.0,0.0,0.0,0.0,0.0,0.0,0.0,0.0,0.0,0.0,0.0,0.0,0.0,0.0,0.0,0.0,0.0,0.0,0.0,0.0,0.0,0.0,0.0,0.0,0.0,0.0,0.0,0.0,0.0,0.0,0.0,0.0,0.0,0.0,0.0,0.0,0.0,0.0,0.0,0.0,0.0,0.0,0.0,0.0,0.0,0.0,0.0,1.4038,1.4165,1.345,1.3067,1.3426,1.2687,1.2373,1.2695,0.0,0.0,0.0,0.0,0.0,0.0,0.0,0.0,0.0,0.0,0.0,0.0,0.0,0.0,0.0,0.0,0.0,0.0,0.0,0.0,0.0,0.0,0.0,0.0,0.0,0.0,0.0,0.0,0.0,0.0,0.0,0.0,0.0,0.0,0.0,0.0,0.0,0.0,0.0,0.0,0.0,0.0,0.0,0.0,0.0,0.0,0.0,0.0,0.0,0.0,0.0,0.0,0.0,0.0,0.0,0.0,0.0,0.0,0.0,0.0,0.0,0.0,0.0,0.0,0.0,0.0,0.0,0.0,0.0,0.0,0.0,0.0,0.0,0.0,0.0,0.0,0.0,0.0,0.0,0.0,0.0,0.0,0.0,0.0,0.0,0.0,0.0,0.0,0.0,0.0,0.0,0.0,0.0,0.0,0.0,0.0,0.0,0.0,0.0,0.0,0.0,0.0,0.0,0.0,1.3877,1.4609,1.3239,1.2512,1.3113,1.1896,1.1335,1.1931,0.0,0.0,0.0,0.0,0.0,0.0,0.0,0.0,0.0,0.0,0.0,0.0,0.0,0.0,0.0,0.0,0.0,0.0,0.0,0.0,0.0,0.0,0.0,0.0,0.0,0.0,0.0,0.0,0.0,0.0,0.0,0.0,0.0,0.0,0.0,0.0,0.0,0.0,0.0,0.0,0.0,0.0,0.0,0.0,0.0,0.0,0.0,0.0,0.0,0.0,0.0,0.0,0.0,0.0,0.0,0.0,0.0,0.0,0.0,0.0,0.0,0.0,0.0,0.0,0.0,0.0,0.0,0.0,0.0,0.0,0.0,0.0,0.0,0.0,0.0,0.0,0.0,0.0,0.0,0.0,0.0,0.0,0.0,0.0,0.0,0.0,0.0,0.0,0.0,0.0,0.0,0.0,0.0,0.0,0.0,0.0,0.0,0.0,0.0,0.0,0.0,0.0,0.0,1.4014,1.3922,1.4204,1.2932,1.2121,1.2234,1.1335,1.1065,1.1765,1.29,0.0,0.0,0.0,0.0,0.0,0.0,0.0,0.0,0.0,0.0,0.0,0.0,0.0,0.0,0.0,0.0,0.0,0.0,0.0,0.0,0.0,0.0,0.0,0.0,0.0,0.0,0.0,0.0,0.0,0.0,0.0,0.0,0.0,0.0,0.0,0.0,0.0,0.0,0.0,0.0,0.0,0.0,0.0,0.0,0.0,0.0,0.0,0.0,0.0,0.0,0.0,0.0,0.0,0.0,0.0,0.0,0.0,0.0,0.0,0.0,0.0,0.0,0.0,0.0,0.0,0.0,0.0,0.0,0.0,0.0,0.0,0.0,0.0,0.0,0.0,0.0,0.0,0.0,0.0,0.0,0.0,0.0,0.0,0.0,0.0,0.0,0.0,0.0,0.0,0.0,0.0,0.0,0.0,0.0,0.0,0.0,0.0,0.0,0.0,0.0,0.0,0.0,1.4336,1.4026,1.3818,1.2763,1.1889,1.1292,1.0902,1.0923,1.1507,1.2308,0.0,0.0,0.0,0.0,0.0,0.0,0.0,0.0,0.0,0.0,0.0,0.0,0.0,0.0,0.0,0.0,0.0,0.0,0.0,0.0,0.0,0.0,0.0,0.0,0.0,0.0,0.0,0.0,0.0,0.0,0.0,0.0,0.0,0.0,0.0,0.0,0.0,0.0,0.0,0.0,0.0,0.0,0.0,0.0,0.0,0.0,0.0,0.0,0.0,0.0,0.0,0.0,0.0,0.0,0.0,0.0,0.0,0.0,0.0,0.0,0.0,0.0,0.0,0.0,0.0,0.0,0.0,0.0,0.0,0.0,0.0,0.0,0.0,0.0,0.0,0.0,0.0,0.0,0.0,0.0,0.0,0.0,0.0,0.0,0.0,0.0,0.0,0.0,0.0,0.0,0.0,0.0,0.0,0.0,0.0,0.0,0.0,0.0,0.0,0.0,0.0,0.0,1.4097,1.4026,1.3818,1.2763,1.1668,1.0663,1.0378,1.0417,1.0839,1.1748,0.0,0.0,0.0,0.0,0.0,0.0,0.0,0.0,0.0,0.0,0.0,0.0,0.0,0.0,0.0,0.0,0.0,0.0,0.0,0.0,0.0,0.0,0.0,0.0,0.0,0.0,0.0,0.0,0.0,0.0,0.0,0.0,0.0,0.0,0.0,0.0,0.0,0.0,0.0,0.0,0.0,0.0,0.0,0.0,0.0,0.0,0.0,0.0,0.0,0.0,0.0,0.0,0.0,0.0,0.0,0.0,0.0,0.0,0.0,0.0,0.0,0.0,0.0,0.0,0.0,0.0,0.0,0.0,0.0,0.0,0.0,0.0,0.0,0.0,0.0,0.0,0.0,0.0,0.0,0.0,0.0,0.0,0.0,0.0,0.0,0.0,0.0,0.0,0.0,0.0,0.0,0.0,0.0,0.0,0.0,0.0,0.0,0.0,0.0,0.0,0.0,0.0,1.4077,1.3749,1.2849,1.2346,1.1359,0.9589,0.9884,1.0385,1.0788,0.0,0.0,0.0,0.0,0.0,0.0,0.0,0.0,0.0,0.0,0.0,0.0,0.0,0.0,0.0,0.0,0.0,0.0,0.0,0.0,0.0,0.0,0.0,0.0,0.0,0.0,0.0,0.0,0.0,0.0,0.0,0.0,0.0,0.0,0.0,0.0,0.0,0.0,0.0,0.0,0.0,0.0,0.0,0.0,0.0,0.0,0.0,0.0,0.0,0.0,0.0,0.0,0.0,0.0,0.0,0.0,0.0,0.0,0.0,0.0,0.0,0.0,0.0,0.0,0.0,0.0,0.0,0.0,0.0,0.0,0.0,0.0,0.0,0.0,0.0,0.0,0.0,0.0,0.0,0.0,0.0,0.0,0.0,0.0,0.0,0.0,0.0,0.0,0.0,0.0,0.0,0.0,0.0,0.0,0.0,0.0,0.0,0.0,0.0,0.0,0.0,0.0,1.399,1.4032,1.3451,1.2223,1.1872,1.0918,0.8957,0.9517,1.0221,1.0788,0.0,0.0,0.0,0.0,0.0,0.0,0.0,0.0,0.0,0.0,0.0,0.0,0.0,0.0,0.0,0.0,0.0,0.0,0.0,0.0,0.0,0.0,0.0,0.0,0.0,0.0,0.0,0.0,0.0,0.0,0.0,0.0,0.0,0.0,0.0,0.0,0.0,0.0,0.0,0.0,0.0,0.0,0.0,0.0,0.0,0.0,0.0,0.0,0.0,0.0,0.0,0.0,0.0,0.0,0.0,0.0,0.0,0.0,0.0,0.0,0.0,0.0,0.0,0.0,0.0,0.0,0.0,0.0,0.0,0.0,0.0,0.0,0.0,0.0,0.0,0.0,0.0,0.0,0.0,0.0,0.0,0.0,0.0,0.0,0.0,0.0,0.0,0.0,0.0,0.0,0.0,0.0,0.0,0.0,0.0,0.0,0.0,0.0,0.0,0.0,0.0,0.0,1.4029,1.3839,1.3191,1.2192,1.1415,1.0365,0.8904,0.9216,0.9865,0.0,0.0,0.0,0.0,0.0,0.0,0.0,0.0,0.0,0.0,0.0,0.0,0.0,0.0,0.0,0.0,0.0,0.0,0.0,0.0,0.0,0.0,0.0,0.0,0.0,0.0,0.0,0.0,0.0,0.0,0.0,0.0,0.0,0.0,0.0,0.0,0.0,0.0,0.0,0.0,0.0,0.0,0.0,0.0,0.0,0.0,0.0,0.0,0.0,0.0,0.0,0.0,0.0,0.0,0.0,0.0,0.0,0.0,0.0,0.0,0.0,0.0,0.0,0.0,0.0,0.0,0.0,0.0,0.0,0.0,0.0,0.0,0.0,0.0,0.0,0.0,0.0,0.0,0.0,0.0,0.0,0.0,0.0,0.0,0.0,0.0,0.0,0.0,0.0,0.0,0.0,0.0,0.0,0.0,0.0,0.0,0.0,0.0,0.0,0.0,0.0,0.0,0.0,1.4029,1.4292,1.3821,1.2248,1.1872,1.0973,0.8957,0.9524,1.0221,1.0788,0.0,0.0,0.0,0.0,0.0,0.0,0.0,0.0,0.0,0.0,0.0,0.0,0.0,0.0,0.0,0.0,0.0,0.0,0.0,0.0,0.0,0.0,0.0,0.0,0.0,0.0,0.0,0.0,0.0,0.0,0.0,0.0,0.0,0.0,0.0,0.0,0.0,0.0,0.0,0.0,0.0,0.0,0.0,0.0,0.0,0.0,0.0,0.0,0.0,0.0,0.0,0.0,0.0,0.0,0.0,0.0,0.0,0.0,0.0,0.0,0.0,0.0,0.0,0.0,0.0,0.0,0.0,0.0,0.0,0.0,0.0,0.0,0.0,0.0,0.0,0.0,0.0,0.0,0.0,0.0,0.0,0.0,0.0,0.0,0.0,0.0,0.0,0.0,0.0,0.0,0.0,0.0,0.0,0.0,0.0,0.0,0.0,0.0,0.0,0.0,0.0,0.0,1.4048,1.4371,1.3995,1.2468,1.1897,1.0917,0.9126,0.9741,1.0385,1.0788,0.0,0.0,0.0,0.0,0.0,0.0,0.0,0.0,0.0,0.0,0.0,0.0,0.0,0.0,0.0,0.0,0.0,0.0,0.0,0.0,0.0,0.0,0.0,0.0,0.0,0.0,0.0,0.0,0.0,0.0,0.0,0.0,0.0,0.0,0.0,0.0,0.0,0.0,0.0,0.0,0.0,0.0,0.0,0.0,0.0,0.0,0.0,0.0,0.0,0.0,0.0,0.0,0.0,0.0,0.0,0.0,0.0,0.0,0.0,0.0,0.0,0.0,0.0,0.0,0.0,0.0,0.0,0.0,0.0,0.0,0.0,0.0,0.0,0.0,0.0,0.0,0.0,0.0,0.0,0.0,0.0,0.0,0.0,0.0,0.0,0.0,0.0,0.0,0.0,0.0,0.0,0.0,0.0,0.0,0.0,0.0,0.0,0.0,0.0,0.0,0.0,0.0,1.4189,1.4269,1.3874,1.2705,1.1605,1.0539,0.928,0.9811,1.0426,1.0797,0.0,0.0,0.0,0.0,0.0,0.0,0.0,0.0,0.0,0.0,0.0,0.0,0.0,0.0,0.0,0.0,0.0,0.0,0.0,0.0,0.0,0.0,0.0,0.0,0.0,0.0,0.0,0.0,0.0,0.0,0.0,0.0,0.0,0.0,0.0,0.0,0.0,0.0,0.0,0.0,0.0,0.0,0.0,0.0,0.0,0.0,0.0,0.0,0.0,0.0,0.0,0.0,0.0,0.0,0.0,0.0,0.0,0.0,0.0,0.0,1.5874,1.6107,0.0,0.0,0.0,0.0,0.0,0.0,0.0,0.0,0.0,0.0,0.0,0.0,0.0,0.0,0.0,0.0,0.0,0.0,0.0,0.0,0.0,0.0,0.0,0.0,0.0,0.0,0.0,0.0,0.0,0.0,0.0,0.0,0.0,0.0,0.0,0.0,0.0,0.0,0.0,0.0,1.4655,1.4916,1.4408,1.2392,1.1977,1.106,0.9045,0.999,1.0731,1.0813,1.2024,0.0,0.0,0.0,0.0,0.0,0.0,0.0,0.0,0.0,0.0,0.0,0.0,0.0,0.0,0.0,0.0,0.0,0.0,0.0,0.0,0.0,0.0,0.0,0.0,0.0,0.0,0.0,0.0,0.0,0.0,0.0,0.0,0.0,0.0,0.0,0.0,0.0,0.0,0.0,0.0,0.0,0.0,0.0,0.0,0.0,0.0,0.0,0.0,0.0,0.0,0.0,0.0,0.0,0.0,0.0,0.0,0.0,0.0,0.0,1.6396,1.6522,0.0,0.0,0.0,0.0,0.0,0.0,0.0,0.0,0.0,0.0,0.0,0.0,0.0,0.0,0.0,0.0,0.0,0.0,0.0,0.0,0.0,0.0,0.0,0.0,0.0,0.0,0.0,0.0,0.0,0.0,0.0,0.0,0.0,0.0,0.0,0.0,0.0,0.0,0.0,0.0,1.4838,1.5146,1.4754,1.2989,1.2371,1.1532,1.0098,1.051,1.0965,1.1266,1.2304,0.0,0.0,0.0,0.0,0.0,0.0,0.0,0.0,0.0,0.0,0.0,0.0,0.0,0.0,0.0,0.0,0.0,0.0,0.0,0.0,0.0,0.0,0.0,0.0,0.0,0.0,0.0,0.0,0.0,0.0,0.0,0.0,0.0,0.0,0.0,0.0,0.0,0.0,0.0,0.0,0.0,0.0,0.0,0.0,0.0,0.0,0.0,0.0,0.0,0.0,0.0,0.0,0.0,1.681,1.681,1.681,1.681,1.676,1.6672,1.6672,1.6609,1.6522,1.6522,0.0,0.0,0.0,0.0,0.0,0.0,0.0,0.0,0.0,0.0,0.0,0.0,0.0,0.0,0.0,0.0,0.0,0.0,0.0,0.0,0.0,0.0,1.6522,1.6522,1.6522,1.6522,1.6522,0.0,0.0,0.0,0.0,0.0,0.0,0.0,0.0,0.0,0.0,0.0,1.4956,1.5264,1.5032,1.3796,1.2707,1.1889,1.1399,1.0924,1.0965,1.1765,1.2344,1.2997,0.0,0.0,0.0,0.0,0.0,0.0,0.0,0.0,0.0,0.0,0.0,0.0,0.0,0.0,0.0,0.0,0.0,0.0,0.0,0.0,0.0,0.0,0.0,0.0,0.0,0.0,0.0,0.0,0.0,0.0,0.0,0.0,1.5869,1.6358,0.0,0.0,0.0,0.0,0.0,0.0,0.0,0.0,0.0,0.0,0.0,0.0,0.0,1.7237,1.7162,1.7702,1.799,1.799,1.799,1.799,1.799,1.799,1.7727,1.7262,1.7262,0.0,1.6522,1.6522,0.0,0.0,0.0,0.0,0.0,0.0,0.0,0.0,0.0,0.0,0.0,0.0,0.0,0.0,0.0,0.0,0.0,0.0,0.0,0.0,0.0,0.0,1.6522,1.6522,1.6522,1.6522,1.6522,1.6522,1.6522,1.6522,1.6522,1.6672,0.0,0.0,0.0,0.0,0.0,0.0,1.5486,1.5703,1.5427,1.3937,1.2772,1.1944,1.1497,1.0517,1.0466,1.1715,1.1873,1.2286,1.2968,1.4107,0.0,0.0,0.0,0.0,0.0,0.0,0.0,0.0,0.0,0.0,0.0,0.0,0.0,0.0,0.0,0.0,0.0,0.0,0.0,0.0,0.0,0.0,0.0,0.0,0.0,0.0,0.0,0.0,0.0,1.5957,1.6132,1.607,1.6333,1.6522,0.0,0.0,0.0,0.0,0.0,0.0,0.0,0.0,0.0,1.7144,1.7913,1.817,1.784,1.8078,1.8204,1.8204,1.8204,1.8204,1.8204,1.8204,1.8078,1.784,1.784,1.7526,1.6974,1.666,1.6522,1.6522,0.0,0.0,0.0,0.0,1.6522,1.6522,1.6522,1.6522,1.6522,1.6522,0.0,0.0,0.0,0.0,0.0,0.0,0.0,1.6522,1.6522,1.6522,1.6522,1.6522,1.6522,1.6522,1.6522,1.6773,1.6911,1.6584,1.6773,1.7087,1.7338,1.7388,0.0,0.0,0.0,1.7076,1.592,1.5947,1.5576,1.4136,1.3195,1.2394,1.1721,1.1209,1.1166,1.1765,1.2187,1.2559,1.2881,1.4365,1.5261,0.0,0.0,0.0,0.0,0.0,0.0,0.0,0.0,0.0,0.0,0.0,0.0,0.0,0.0,0.0,0.0,0.0,0.0,0.0,0.0,0.0,0.0,0.0,0.0,0.0,0.0,0.0,0.0,1.6258,1.6358,1.5957,1.6511,1.6802,0.0,0.0,0.0,0.0,0.0,0.0,1.7811,1.8802,1.9128,1.8665,1.9206,1.9313,1.8832,1.897,1.897,1.8832,1.8982,1.8894,1.8618,1.8561,1.8425,1.8091,1.8091,1.7842,1.7297,1.6873,1.6647,1.6522,1.6522,1.6522,1.6522,1.6522,1.6522,1.6522,1.6522,1.6522,1.6522,1.6522,1.6522,1.6547,1.6888,0.0,0.0,0.0,0.0,1.6948,1.6948,1.6948,1.6948,1.6948,1.6948,1.6948,1.6948,1.74,1.7589,1.6873,1.72,1.7639,1.7777,1.7915,0.0,1.7754,1.7935,1.7618,1.6287,1.6162,1.5781,1.459,1.3652,1.2842,1.2175,1.1781,1.1616,1.1774,1.2295,1.2715,1.2881,1.4365,1.5397,1.5725,0.0,0.0,0.0,0.0,0.0,0.0,0.0,0.0,0.0,0.0,0.0,0.0,0.0,0.0,0.0,0.0,0.0,0.0,0.0,0.0,0.0,0.0,0.0,0.0,0.0,0.0,0.0,0.0,0.0,1.6471,1.7441,0.0,0.0,0.0,0.0,1.7383,1.839,1.9006,1.9033,1.9622,1.9953,1.9898,2.0386,2.0592,2.0592,2.1066,2.1054,2.0605,2.1079,2.0765,1.9736,1.957,1.8911,1.7894,1.7894,1.7597,1.7134,1.7309,1.7011,1.6522,1.6522,1.6522,1.6522,1.6522,1.6522,1.6522,1.6522,1.6522,1.6522,1.6522,1.6522,1.6696,1.7873,1.7821,0.0,0.0,1.8577,1.8116,1.8116,1.8116,1.8116,1.8116,1.8116,1.8116,1.8116,1.8555,1.8631,1.7551,1.779,1.8329,1.8857,0.0,1.934,1.8431,1.9004,1.8722,1.6396,1.6436,1.6357,1.5449,1.3989,1.3068,1.3032,1.1688,1.1124,1.1751,1.1832,1.2187,1.2881,1.3877,1.506,1.6305,1.7393,0.0,0.0,0.0,0.0,0.0,0.0,0.0,0.0,0.0,0.0,0.0,0.0,0.0,0.0,0.0,0.0,0.0,0.0,0.0,0.0,0.0,0.0,0.0,0.0,0.0,0.0,0.0,0.0,1.7564,1.7961,0.0,1.7614,1.8332,1.8864,1.912,2.022,2.09,2.0824,2.1746,2.1852,2.1002,2.1493,2.1604,2.1192,2.1393,2.1393,2.1204,2.1393,2.128,2.0891,2.0859,2.057,2.0175,1.983,1.9362,1.8807,1.8546,1.7903,1.7074,1.7074,1.7074,1.7074,1.7074,1.7074,1.7024,1.6647,1.6522,1.6522,1.6522,1.6773,1.7156,1.76,1.7784,1.7987,1.8397,1.838,1.8204,1.8204,1.8204,1.8204,1.8204,1.8204,1.8204,1.8204,1.8643,1.9007,1.8945,1.8832,1.8907,1.9434,1.9673,1.967,1.9253,1.9482,1.9024,1.7189,1.6807,1.6396,1.5508,1.4667,1.3598,1.2199,1.2382,1.2163,1.1191,1.1999,1.2618,1.2881,1.4214,1.5383,1.64,1.7704,1.9202,0.0,0.0,0.0,0.0,0.0,0.0,0.0,0.0,0.0,0.0,0.0,0.0,0.0,0.0,0.0,0.0,0.0,0.0,0.0,0.0,0.0,0.0,0.0,0.0,0.0,1.7965,1.8329,1.8706,1.889,1.8938,1.8744,1.9283,1.979,2.0283,2.1609,2.233,2.23,2.3193,2.3283,2.2406,2.2575,2.2462,2.2046,2.2046,2.1945,2.1769,2.1958,2.1845,2.1493,2.1145,2.0879,2.0698,2.0334,1.9915,1.9528,1.9368,1.8857,1.8166,1.7802,1.7664,1.7664,1.7664,1.7664,1.7601,1.7225,1.7087,1.7087,1.7087,1.735,1.7735,1.8142,1.8367,1.8566,1.8984,1.8925,1.8744,1.8744,1.8744,1.8744,1.8744,1.8744,1.8744,1.8744,1.9032,1.9447,1.9987,1.9811,1.9748,2.0275,2.0677,2.0709,2.0053,2.0158,1.964,1.7797,1.7217,1.6611,1.5732,1.5254,1.4184,1.2208,1.3066,1.2987,1.125,1.2376,1.3027,1.2891,1.4033,1.5201,1.64,1.8566,2.0181,2.1113,0.0,0.0,0.0,0.0,0.0,0.0,0.0,0.0,0.0,0.0,0.0,0.0,0.0,0.0,0.0,0.0,0.0,0.0,0.0,0.0,0.0,0.0,0.0,1.8254,1.9158,1.9836,1.9849,2.0309,2.041,1.99,2.036,2.072,2.0797,2.2389,2.3349,2.3349,2.3874,2.4118,2.4105,2.3509,2.3115,2.3078,2.309,2.2887,2.2347,2.2874,2.2573,2.15,2.0449,1.9666,1.9157,1.9145,1.9134,1.9174,1.9558,1.9784,1.9697,1.8656,1.8229,1.8229,1.8242,1.8242,1.8229,1.8229,1.8216,1.8204,1.8229,1.8242,1.8485,1.9677,1.9597,1.9308,2.0505,2.0347,1.9849,1.9849,1.9849,1.9849,1.9849,1.9849,1.9849,1.9849,1.9849,2.0024,2.0655,2.0769,2.0891,2.143,2.2339,2.2421,2.0719,2.0939,0.0,1.8281,1.7666,1.707,1.6253,1.5713,1.4811,1.325,1.372,1.3456,1.1936,1.2881,1.3311,1.29,1.3281,1.4409,1.6361,1.9882,2.171,2.1738,0.0,0.0,0.0,0.0,0.0,0.0,0.0,0.0,0.0,0.0,0.0,0.0,0.0,0.0,0.0,0.0,0.0,0.0,0.0,0.0,0.0,1.8756,1.9359,1.9359,1.9974,2.0577,2.0978,2.1138,2.118,2.1029,2.1532,2.2323,2.3219,2.4182,2.4832,2.5156,2.5353,2.4957,2.406,2.4205,2.3966,2.3078,2.3552,2.3477,2.2852,2.3002,2.2975,2.2627,2.1776,2.126,2.1046,1.998,1.9566,1.9488,1.892,1.8884,1.9125,1.889,1.8807,1.8844,1.9233,1.912,1.8807,1.8807,1.8543,1.8267,1.8668,1.9058,1.9522,2.0283,2.0648,2.0894,2.1196,2.118,2.1029,2.1029,2.1029,2.1029,2.1029,2.1029,2.1029,2.1029,2.1029,2.1192,2.1744,2.1857,2.1907,2.2058,2.1771,2.141,2.1059,2.063,1.987,1.8616,1.8096,1.7627,1.708,1.6631,1.5702,1.4194,1.4383,1.3959,1.238,1.2786,1.2998,1.2881,1.3281,1.4553,1.6807,2.0028,2.1931,0.0,0.0,0.0,0.0,0.0,0.0,0.0,0.0,0.0,0.0,0.0,0.0,0.0,0.0,0.0,0.0,0.0,0.0,0.0,0.0,0.0,0.0,2.03,2.1016,2.1493,2.1644,2.1995,2.2786,2.2686,2.2636,2.2862,2.3,2.3463,2.4425,2.5035,2.5503,2.5742,2.5781,2.5461,2.4669,2.477,2.4393,2.3502,2.4054,2.4054,2.3489,2.3109,2.3021,2.3166,2.1696,2.1088,2.1,2.0193,1.9694,1.9519,1.9072,1.9037,1.922,0.0,0.0,0.0,0.0,1.9743,1.9552,1.9945,1.9849,1.9635,1.9962,2.0263,2.0577,2.0903,2.123,2.1493,2.1493,2.1493,2.1493,2.1493,2.1493,2.1493,2.1493,2.1493,2.1493,2.1493,2.1493,2.1656,2.2209,2.2309,0.0,2.2347,2.2161,2.1806,2.1254,2.0828,2.0205,1.9242,1.8643,1.8115,1.7686,1.71,1.6181,1.4949,1.4955,0.0,0.0,0.0,1.3738,1.3841,1.4847,0.0,0.0,0.0,2.2325,2.2699,2.4528,0.0,0.0,2.5555,2.6061,0.0,0.0,0.0,0.0,0.0,0.0,0.0,0.0,0.0,0.0,0.0,0.0,0.0,0.0,0.0,0.0,2.2096,2.2924,2.4104,2.3828,2.3841,2.472,2.4393,2.4293,2.477,2.4381,2.4318,2.487,2.5335,2.5624,2.5686,2.5686,0.0,0.0,0.0,2.4643,2.3954,2.4439,2.4439,2.3753,2.2951,2.2787,2.3053,2.0921,1.9986,1.9975,1.9796,1.9547,1.9208,1.9456,1.9511,1.9445,1.8666,1.8636,1.9119,1.996,2.0309,2.0437,2.1274,0.0,0.0,2.1556,2.1581,2.1594,2.1656,2.1681,2.1681,2.1681,2.1681,2.1681,2.1681,2.1681,2.1681,2.1681,2.1681,2.1681,2.1681,2.1681,2.182,2.2309,2.233,2.2321,2.2427,2.2791,2.2628,2.1406,2.1209,2.0905,1.9919,1.918,1.8525,1.8057,1.7285,0.0,1.5635,1.5469,1.5068,1.4204,1.4521,1.4849,1.5195,1.6997,1.8017,1.8118,2.112,2.274,2.281,2.535,2.6632,2.6692,2.6093,2.644,0.0,0.0,0.0,0.0,0.0,0.0,0.0,0.0,0.0,0.0,0.0,0.0,0.0,0.0,0.0,2.202,2.3,2.4217,2.5762,2.5887,2.5573,2.4895,2.4732,2.4707,2.4808,2.472,2.4883,2.541,2.5536,2.5799,2.6264,2.6302,2.6076,2.5611,2.595,2.5301,2.3412,2.4018,2.3668,2.232,2.2117,0.0,2.2115,2.0989,2.0467,2.0375,1.9324,1.8784,1.8725,1.8141,1.8021,1.8374,1.8678,1.9066,1.9622,2.0544,2.0855,2.0974,2.1844,2.1857,2.1556,2.2008,2.2159,2.2234,2.2686,2.2811,0.0,2.2811,2.2811,2.2811,2.2811,2.2811,2.2811,2.2811,2.2811,2.2811,2.2811,2.2811,2.2849,2.2962,2.269,2.2339,2.2083,2.1789,2.1541,2.1219,2.0629,2.0009,1.9453,1.9268,1.8867,1.8086,1.7559,1.7051,1.6523,1.582,1.5195,1.4687,1.4404,1.452,1.5184,1.648,1.7491,1.8118,2.112,2.2984,2.3534,2.557,2.6856,2.743,2.7245,2.736,0.0,0.0,0.0,0.0,0.0,0.0,0.0,0.0,0.0,0.0,0.0,2.0413,2.0978,0.0,2.31,2.4205,2.5096,2.6025,2.713,2.7281,2.708,2.6527,2.6465,2.6465,2.6465,2.6214,2.6276,2.6804,2.659,2.6332,2.6171,2.6893,2.6681,2.5343,2.6619,2.6382,2.4432,2.5318,2.5099,2.3736,2.2834,2.2481,2.2633,2.098,2.0232,2.0222,1.9511,1.916,1.8926,1.8516,1.8457,1.8674,1.8951,1.9235,1.9634,2.0479,2.0807,2.1003,2.2309,2.2652,2.2494,2.2957,2.315,2.315,2.3138,2.3078,2.3128,2.3489,2.3565,2.3565,2.3565,2.3565,2.3565,2.3565,2.3565,2.364,2.3916,2.3979,2.3779,2.3301,2.3047,2.2576,2.1697,2.1377,2.1097,2.0937,2.0529,2.0166,1.9951,1.9551,1.9121,1.8691,1.7891,1.7295,1.708,1.625,1.5557,1.5127,1.5219,1.5628,1.6352,1.7342,1.836,1.9384,2.1524,2.3139,2.4107,2.5755,2.6929,2.7625,2.7919,2.7904,0.0,0.0,0.0,0.0,0.0,0.0,0.0,1.892,1.9434,2.0413,2.1154,2.2008,2.3238,2.4104,2.5071,2.6471,2.708,2.7632,2.8185,2.826,2.831,2.8423,2.8235,2.8109,2.8109,2.7708,2.7548,2.7766,2.7551,2.6976,2.5982,2.7311,2.7321,2.5636,2.7259,2.7179,2.5357,2.623,2.6015,2.4614,2.3146,2.2637,2.284,2.0923,2.0039,2.0039,1.9951,1.9678,1.9287,1.9287,1.9336,1.9404,1.9404,1.9463,1.9659,2.0319,2.0744,2.1075,2.2728,2.3423,2.3628,2.3823,2.4016,2.4004,2.3344,2.3268,2.3491,2.3753,2.3878,2.3814,2.3624,2.3612,2.3624,2.3814,2.3751,2.3735,2.4384,2.4536,2.4263,2.349,2.3226,2.28,2.1707,2.1272,2.0958,2.0663,2.0566,2.0537,2.0449,1.9766,1.9258,1.917,1.8096,1.7344,1.7266,1.6523,1.5947,1.5684,1.6161,1.6878,1.7857,1.8467,1.9444,2.0815,2.2083,2.3286,2.4284,2.5762,2.6842,2.7616,2.8233,2.8181,1.431,1.5695,1.7407,1.894,1.9519,2.0263,0.0,2.2899,2.2761,2.3401,2.433,2.4958,2.4682,2.5887,2.6967,2.7155,2.7657,2.821,2.8762,2.8837,2.9026,2.9553,2.8712,2.8109,2.8109,2.8047,2.7656,2.6737,2.7521,2.7557,2.6491,2.7459,2.7974,2.7776,2.7961,2.6932,2.4471,2.4573,2.3448,2.1151,2.0931,2.0894,2.0934,2.0663,2.0498,2.0469,2.0078,1.9678,1.9287,1.9287,1.9512,1.9844,1.9844,2.0078,2.0476,2.0555,2.1145,2.1967,2.2942,2.3911,2.4459,2.3628,2.3957,2.4514,2.3544,2.3872,2.4439,2.3592,2.3406,2.3195,2.2377,2.2105,2.2377,2.3195,2.2715,2.24,2.3266,2.349,2.3423,2.3344,2.3029,2.2719,2.2562,2.1478,2.0663,2.0634,2.0566,2.042,2.0039,1.958,1.9141,1.875,1.791,1.7227,1.6836,1.6348,1.6211,1.6562,1.6333,1.6979,1.8862,1.9003,1.9796,2.1393,2.2682,2.3371,2.3548,2.5351,2.6652,2.7523,2.8105,2.8086,1.4956,1.6901,1.8703,1.9424,2.0447,2.1568,2.2749,2.3339,2.3879,2.4757,2.5302,2.5798,2.6564,2.7015,2.7296,2.7296,2.8312,2.8682,2.7672,2.8023,2.8234,2.7522,2.7301,2.7376,2.8009,2.7245,2.6877,2.7352,2.7565,2.7155,2.615,2.7365,2.7245,2.5381,2.65,2.6352,2.4602,2.4882,2.4392,2.2991,2.2195,2.1839,2.1761,2.1253,2.1094,2.1299,2.0596,2.0342,2.04,2.0137,2.0137,2.0293,2.0293,2.0566,2.0958,2.0701,2.0825,2.1324,2.2252,2.2816,2.3137,2.2993,2.3248,2.3407,2.2696,2.2808,2.308,2.296,2.3385,2.3614,2.2624,2.3236,2.401,2.3887,2.3943,2.423,2.4976,2.4695,2.413,2.3547,2.285,2.2115,2.1541,2.0958,2.0566,2.0566,2.0566,2.0498,2.0312,1.9707,1.9023,1.834,1.7959,1.7578,1.7148,1.6934,1.6807,1.6738,1.6553,1.7246,1.9041,1.9112,2.0158,2.2376,2.2941,2.3774,2.4827,2.5615,2.644,2.7213,2.7858,2.8082,1.5587,1.7475,1.9206,1.9562,2.1032,2.2419,2.2565,2.3655,2.4792,2.5253,2.5781,2.6462,2.7631,2.7423,2.7211,2.7447,2.8276,2.8291,2.673,2.7209,2.7221,2.6141,2.6002,2.6378,2.7093,2.6368,2.6231,2.7151,2.7092,2.6645,2.5599,2.6909,2.6611,2.4288,2.5683,2.5895,2.4642,2.5062,2.4836,2.3971,2.2939,2.2477,2.2467,2.1719,2.1582,2.1846,2.1211,2.1113,2.1387,2.1064,2.0928,2.0928,2.0928,2.1133,2.1377,2.1055,2.1155,2.1429,2.1973,2.2368,2.2617,2.2644,2.29,2.3084,2.286,2.2936,2.3228,2.3652,2.4269,2.4614,2.344,2.419,2.5018,2.4178,2.434,2.4713,2.518,2.4696,2.3963,2.322,2.2585,2.2008,2.1258,2.1076,2.0928,2.0928,2.083,2.0703,2.0576,1.9814,1.9004,1.8262,1.8076,1.7881,1.7578,1.7451,1.7295,1.71,1.6973,1.7747,1.9655,1.9717,2.0927,2.3516,2.3602,2.4215,2.5621,2.5777,2.6205,2.7006,2.7631,2.8105,1.5851,1.6941,1.8155,1.9551,2.1198,2.2666,2.3134,2.4934,2.6153,2.507,2.6101,2.7263,2.7287,2.6921,2.686,2.7912,2.7279,2.6565,2.6472,2.6565,2.6554,2.6461,2.5546,2.4872,2.4872,2.587,2.6036,2.4957,2.587,2.6036,2.4851,2.5953,2.6461,2.6438,2.6461,2.5733,2.4259,2.427,2.3495,2.1967,2.1948,2.1948,2.1948,2.1865,2.1875,2.1885,2.1855,2.1855,2.1865,2.1855,2.1846,2.1846,2.1846,2.1855,2.1865,2.1855,2.2452,2.3137,2.2778,2.3328,2.3939,2.2998,2.3383,2.4234,2.4769,2.562,2.6403,2.6455,2.653,2.6186,2.4634,2.4284,2.4236,2.3689,2.2829,2.2081,2.2103,2.2103,2.2103,2.2027,2.2394,2.2709,2.2631,2.2171,2.1846,2.1846,2.1484,2.1055,2.0625,1.9814,1.9121,1.8592,1.8252,1.8008,1.7988,1.7617,1.7549,1.7949,1.7588,1.8568,2.1218,2.1329,2.2437,2.4693,2.477,2.4795,2.482,2.5388,2.6076,2.6929,2.7433,2.8141,1.6348,1.7789,1.94,2.0254,2.1761,2.3161,2.3746,2.4923,2.5791,2.5384,2.4848,2.4592,2.5337,2.4726,2.4219,2.4602,2.5661,2.5975,2.4478,2.4882,2.5019,2.399,2.3715,2.3604,2.3313,2.3886,2.4392,2.4787,2.5126,2.521,2.4787,2.5126,2.5052,2.4307,2.4221,2.3988,2.3503,2.3503,2.3186,2.2715,2.2432,2.2305,2.2295,2.2012,2.2187,2.2685,2.2129,2.2041,2.2275,2.2002,2.1885,2.1885,2.1885,2.206,2.2305,2.2305,2.263,2.3088,2.2369,2.2362,2.2594,2.2281,2.2362,2.2705,2.2859,2.3213,2.3454,2.3444,2.3745,2.3765,2.2559,2.296,2.3568,2.2734,2.3015,2.3481,2.3481,2.3118,2.2862,2.2862,2.2471,2.22,2.22,2.2024,2.1885,2.1885,2.1514,2.0967,2.0234,1.9883,1.9541,1.9111,1.8945,1.8857,1.8857,1.873,1.8711,1.8848,1.873,1.9583,2.171,2.18,2.2919,2.5256,2.5335,2.5523,2.5912,2.6088,2.6367,2.6637,2.6815,2.7351,1.7402,1.8754,2.0063,2.0769,2.192,2.2966,2.3445,2.427,2.4788,2.4555,2.3621,2.3118,2.3787,2.2892,2.2149,2.2431,2.3385,2.3777,2.2571,2.3022,2.3335,2.2791,2.2969,2.3027,2.2764,2.2978,2.3387,2.4125,2.4211,2.4211,2.4211,2.4211,2.3887,2.3135,2.3135,2.3135,2.3135,2.3135,2.3135,2.3135,2.2861,2.2734,2.2734,2.2461,2.2627,2.3105,2.2568,2.249,2.2715,2.2441,2.2334,2.2334,2.2334,2.25,2.2734,2.2734,2.291,2.3047,2.2344,2.2109,2.2109,2.2109,2.2109,2.2222,2.2768,2.2975,2.3059,2.3464,2.3798,2.3833,2.2967,2.3474,2.3951,2.2783,2.3217,2.383,2.3463,2.3064,2.2788,2.2788,2.2469,2.2109,2.2109,2.2236,2.2285,2.2129,2.1875,2.1377,2.0498,2.0107,1.9814,1.9541,1.9375,1.9287,1.9287,1.9287,1.9423,1.9775,1.9847,2.0747,2.2777,2.2846,2.3786,2.5887,2.59,2.6088,2.6533,2.6533,2.6533,2.6533,2.6533,2.6782,1.8877,1.9639,2.0185,2.1025,2.1582,2.2012,2.2373,2.295,2.3256,2.2606,2.2595,2.2713,2.2682,2.1531,2.0775,2.1439,2.0666,2.0371,2.1211,2.1338,2.1787,2.3027,2.3154,2.3144,2.3164,2.3154,2.3135,2.3135,2.3135,2.3135,2.3135,2.3135,2.3135,2.3135,2.3135,2.3135,2.3135,2.3135,2.3135,2.3135,2.3135,2.3135,2.3135,2.3135,2.3135,2.3135,2.3135,2.3135,2.3135,2.3135,2.3135,2.3135,2.3135,2.3135,2.3135,2.3135,2.3135,2.3086,2.2685,2.2549,2.2549,2.2549,2.2549,2.2778,2.4248,2.4702,2.4957,2.6058,2.6295,2.6162,2.5602,2.5458,2.5084,2.3587,2.3262,2.3051,2.2152,2.1934,2.1953,2.1953,2.2275,2.2549,2.2549,2.2881,2.2998,2.2607,2.2519,2.2207,2.1377,2.0518,1.998,1.998,1.96,1.9355,1.9355,1.9355,1.9773,2.0828,2.0828,2.1919,2.4265,2.4357,2.5022,2.6452,2.6559,2.6559,2.6533,2.6559,2.6559,2.6533,2.6533,2.6533,1.9551,2.0312,2.0957,2.1172,2.1797,2.2217,2.168,2.2211,2.2512,2.167,2.0839,2.0102,1.9773,1.994,2.0115,2.0297,2.142,2.2393,2.2617,2.2656,2.2891,2.3545,2.333,2.3271,2.3594,2.333,2.3135,2.3135,2.3135,2.3135,2.3135,2.3135,2.3135,2.3135,2.3135,2.3135,2.3135,2.3135,2.3135,2.3135,2.3135,2.3135,2.3135,2.3135,2.3135,2.3135,2.3135,2.3135,2.3135,2.3135,2.3135,2.3135,2.3135,2.3135,2.3135,2.3135,2.3135,2.3125,2.3018,2.2978,2.2978,2.2978,2.2978,2.2998,2.3434,2.3551,2.3551,2.3897,2.374,2.3456,2.3345,2.3071,2.2726,2.2369,2.2516,2.2661,2.2438,2.2598,2.2822,2.2822,2.291,2.2978,2.2978,2.3066,2.3105,2.2998,2.2715,2.2324,2.1787,2.124,2.0898,2.0898,2.0508,2.0244,2.0244,2.0244,2.0671,2.1617,2.1691,2.2608,2.4708,2.479,2.5366,2.6452,2.6866,2.6866,2.6533,2.6866,2.6866,2.6533,2.6533,2.6533,2.0449,2.1279,2.1748,2.1562,2.1885,2.206,2.1387,2.1309,2.124,2.0752,1.9775,1.8984,1.8936,1.916,1.9414,1.9609,2.0664,2.165,2.2227,2.2471,2.2812,2.3428,2.3457,2.3447,2.3496,2.3281,2.3135,2.3135,2.3135,2.3135,2.3135,2.3135,2.3135,2.3135,2.3135,2.3135,2.3135,2.3135,2.3135,2.3135,2.3135,2.3135,2.3135,2.3135,2.3135,2.3135,2.3135,2.3135,2.3135,2.3135,2.3135,2.3135,2.3135,2.3135,2.3135,2.3135,2.3135,2.3135,2.3135,2.3135,2.3135,2.3135,2.3135,2.3135,2.3135,2.3135,2.3135,2.3135,2.2969,2.2783,2.2783,2.2617,2.2441,2.2441,2.2617,2.2783,2.2783,2.2969,2.3135,2.3135,2.3135,2.3135,2.3135,2.3135,2.3135,2.3135,2.2939,2.2705,2.2471,2.1738,2.123,2.123,2.083,2.0566,2.0566,2.0566,2.1001,2.1952,2.2403,2.3368,2.4933,2.5671,2.63,2.6816,2.7369,2.7494,2.718,2.7256,2.713,2.6816,2.6647,2.6533,2.0967,2.188,2.2148,2.1723,2.1792,2.1738,2.1182,2.0469,1.9883,1.9766,1.9199,1.8799,1.9072,1.8945,1.8945,1.9385,1.9551,2.0068,2.1309,2.1816,2.2344,2.3135,2.3506,2.3603,2.334,2.3203,2.3164,2.3223,2.3174,2.3135,2.3135,2.3135,2.3135,2.3135,2.3135,2.3135,2.3135,2.3135,2.3135,2.3135,2.3135,2.3135,2.3135,2.3135,2.3135,2.3135,2.3135,2.3135,2.3135,2.3135,2.3135,2.3135,2.3135,2.3135,2.3135,2.3135,2.3135,2.3135,2.3135,2.3135,2.3135,2.3135,2.3135,2.3135,2.3135,2.3135,2.3135,2.3135,2.3135,2.3135,2.3135,2.3135,2.3135,2.3135,2.3135,2.3135,2.3135,2.3135,2.3135,2.3135,2.3135,2.3135,2.3135,2.3135,2.3135,2.3135,2.3135,2.3115,2.3066,2.2041,2.1318,2.1318,2.0869,2.0566,2.0566,2.0566,2.1001,2.1952,2.2916,2.392,2.5028,2.6429,2.7239,2.7394,2.7934,2.8185,2.8109,2.7695,2.7469,2.7381,2.6904,2.6678,1.9191,2.0236,2.0884,2.0398,2.1089,2.1582,2.041,2.0019,1.9717,1.9004,1.9023,1.8984,1.835,1.9033,1.9834,2.0273,2.0957,2.1758,2.2676,2.2871,2.3105,2.3623,2.3428,2.3496,2.4131,2.3555,2.3291,2.3652,2.334,2.3135,2.3135,2.3135,2.3135,2.3135,2.3135,2.3135,2.3135,2.3135,2.3135,2.3135,2.3135,2.3135,2.3135,2.3135,2.3135,2.3135,2.3135,2.3135,2.3135,2.3135,2.3135,2.3135,2.3135,2.3135,2.3135,2.3135,2.3135,2.3135,2.3135,2.3135,2.3135,2.3135,2.3135,2.3135,2.3135,2.3135,2.3135,2.3135,2.3135,2.3135,2.3135,2.3135,2.3135,2.3135,2.3135,2.3135,2.3135,2.3135,2.3135,2.3135,2.3135,2.3135,2.3135,2.3135,2.3135,2.3135,2.3135,2.3018,2.2666,2.2119,2.1777,2.1777,2.1045,2.0566,2.0566,2.0566,2.1001,2.1952,2.2548,2.3666,2.5611,2.6294,2.7053,2.7959,2.8499,2.8561,2.8109,2.8461,2.8411,2.7959,2.7871,2.7821,1.9011,2.0128,2.0694,1.9496,1.9976,2.0438,1.9108,1.8657,1.8474,1.8298,1.8652,1.8896,1.8711,1.9355,2.0059,2.0498,2.0918,2.1504,2.2363,2.2676,2.2969,2.3398,2.3467,2.3545,2.373,2.3379,2.3223,2.3437,2.3262,2.3135,2.3135,2.3135,2.3135,2.3135,2.3135,2.3135,2.3135,2.3135,2.3135,2.3135,2.3135,2.3135,2.3135,2.3135,2.3135,2.3135,2.3135,2.3135,2.3135,2.3135,2.3135,2.3135,2.3135,2.3135,2.3135,2.3135,2.3135,2.3135,2.3135,2.3135,2.3135,2.3135,2.3135,2.3135,2.3135,2.3135,2.3135,2.3135,2.3135,2.3135,2.3135,2.3135,2.3135,2.3135,2.3135,2.3135,2.3135,2.3135,2.3135,2.3135,2.3135,2.3135,2.3135,2.3135,2.3135,2.3135,2.3135,2.3066,2.2861,2.2471,2.2041,2.1592,2.0957,2.0654,2.0889,2.0908,2.136,2.2318,2.3292,2.4435,2.5753,2.7075,2.7989,2.8536,2.9089,2.9252,2.8976,2.895,2.8787,2.8524,2.8235,2.8109,1.8472,1.9579,2.0124,1.8414,1.8667,1.8959,1.7952,1.7397,1.7257,1.7861,1.8418,1.8848,1.9102,1.957,2.0059,2.0498,2.0566,2.0898,2.1885,2.2305,2.2666,2.3086,2.3437,2.3555,2.3301,2.3193,2.3184,2.3271,2.3193,2.3135,2.3135,2.3135,2.3135,2.3135,2.3135,2.3135,2.3135,2.3135,2.3135,2.3135,2.3135,2.3135,2.3135,2.3135,2.3135,2.3135,2.3135,2.3135,2.3135,2.3135,2.3135,2.3135,2.3135,2.3135,2.3135,2.3135,2.3135,2.3135,2.3135,2.3135,2.3135,2.3135,2.3135,2.3135,2.3135,2.3135,2.3135,2.3135,2.3135,2.3135,2.3135,2.3135,2.3135,2.3135,2.3135,2.3135,2.3135,2.3135,2.3135,2.3135,2.3135,2.3135,2.3135,2.3135,2.3135,2.3135,2.3135,2.3105,2.3018,2.2715,2.2217,2.1455,2.1055,2.0996,2.1348,2.1519,2.2049,2.2799,2.4336,2.5447,2.6172,2.7788,2.8861,2.9114,2.9566,2.9792,2.9792,2.934,2.9114,2.9101,2.8662,2.8461,1.6028,1.703,1.7796,1.7024,1.7138,1.7595,1.7663,1.718,1.6899,1.7803,1.8662,1.9121,1.876,1.9365,2.0059,2.0498,2.0566,2.1006,2.2275,2.249,2.2666,2.3086,2.3174,2.334,2.3691,2.3369,2.3301,2.3701,2.3359,2.3135,2.3135,2.3135,2.3135,2.3135,2.3135,2.3135,2.3135,2.3135,2.3135,2.3135,2.3135,2.3135,2.3135,2.3135,2.3135,2.3135,2.3135,2.3135,2.3135,2.3135,2.3135,2.3135,2.3135,2.3135,2.3135,2.3135,2.3135,2.3135,2.3135,2.3135,2.3135,2.3135,2.3135,2.3135,2.3135,2.3135,2.3135,2.3135,2.3135,2.3135,2.3135,2.3135,2.3135,2.3135,2.3135,2.3135,2.3135,2.3135,2.3135,2.3135,2.3135,2.3135,2.3135,2.3135,2.3135,2.3135,2.3135,2.2998,2.2617,2.2539,2.2334,2.1875,2.1787,2.1787,2.1816,2.2747,2.336,2.3429,2.4908,2.6199,2.7269,2.7885,2.8694,2.9716,2.9767,2.9792,2.9792,2.9741,2.9716,2.9716,2.9666,2.9641,1.5705,1.6763,1.735,1.5984,1.6026,1.6338,1.5955,1.5485,1.563,1.7158,1.8173,1.861,1.8453,1.943,2.012,1.9322,1.9784,2.0537,2.1592,2.1514,2.1787,2.2998,2.292,2.293,2.3359,2.3242,2.3213,2.3389,2.3242,2.3135,2.3135,2.3135,2.3135,2.3135,2.3135,2.3135,2.3135,2.3135,2.3135,2.3135,2.3135,2.3135,2.3135,2.3135,2.3135,2.3135,2.3135,2.3135,2.3135,2.3135,2.3135,2.3135,2.3135,2.3135,2.3135,2.3135,2.3135,2.3135,2.3135,2.3135,2.3135,2.3135,2.3135,2.3135,2.3135,2.3135,2.3135,2.3135,2.3135,2.3135,2.3135,2.3135,2.3135,2.3135,2.3135,2.3135,2.3135,2.3135,2.3135,2.3135,2.3135,2.3135,2.3135,2.3135,2.3135,2.3135,2.3135,2.3076,2.291,2.2891,2.2822,2.2656,2.2187,2.1992,2.2236,2.2655,2.3134,2.3771,2.5344,2.6611,2.7335,2.8487,2.9365,2.9792,2.9792,2.9792,2.9792,2.9792,2.9792,2.9792,2.9792,2.9792,1.5438,1.6341,1.6793,1.5375,1.5189,1.5204,1.4717,1.4401,1.4754,1.681,1.7812,1.8285,1.8285,1.9552,2.0149,1.8743,1.9505,2.0527,2.1143,2.1182,2.1592,2.2812,2.2803,2.2812,2.3105,2.3135,2.3135,2.3135,2.3135,2.3135,2.3135,2.3135,2.3135,2.3135,2.3135,2.3135,2.3135,2.3135,2.3135,2.3135,2.3135,2.3135,2.3135,2.3135,2.3135,2.3135,2.3135,2.3135,2.3135,2.3135,2.3135,2.3135,2.3135,2.3135,2.3135,2.3135,2.3135,2.3135,2.3135,2.3135,2.3135,2.3135,2.3135,2.3135,2.3135,2.3135,2.3135,2.3135,2.3135,2.3135,2.3135,2.3135,2.3135,2.3135,2.3135,2.3135,2.3135,2.3135,2.3135,2.3135,2.3135,2.3135,2.3135,2.3135,2.3135,2.3135,2.3135,2.3135,2.3135,2.3135,2.3135,2.3135,2.2607,2.2373,2.2676,2.3028,2.3517,2.4169,2.5953,2.7129,2.7561,2.8987,2.9792,2.9792,2.9792,2.9792,2.9792,2.9792,2.9792,2.9792,2.9792,2.9792,1.489,1.5391,1.5691,1.511,1.4522,1.4171,1.4567,1.4401,1.4754,1.681,1.7812,1.8285,1.8285,1.9552,2.0245,1.9195,2.0203,2.1221,2.123,2.1963,2.25,2.2519,2.2881,2.3135,2.3135,2.3135,2.3135,2.3135,2.3135,2.3135,2.3135,2.3135,2.3135,2.3135,2.3135,2.3135,2.3135,2.3135,2.3135,2.3135,2.3135,2.3135,2.3135,2.3135,2.3135,2.3135,2.3135,2.3135,2.3135,2.3135,2.3135,2.3135,2.3135,2.3135,2.3135,2.3135,2.3135,2.3135,2.3135,2.3135,2.3135,2.3135,2.3135,2.3135,2.3135,2.3135,2.3135,2.3135,2.3135,2.3135,2.3135,2.3135,2.3135,2.3135,2.3135,2.3135,2.3135,2.3135,2.3135,2.3135,2.3135,2.3135,2.3135,2.3135,2.3135,2.3135,2.3135,2.3135,2.3135,2.3135,2.3135,2.3135,2.3135,2.3125,2.3135,2.4125,2.4777,2.4777,2.6849,2.8096,2.8084,2.9197,2.9792,2.9792,2.9792,2.9792,2.9792,2.9792,2.9792,2.9792,2.9792,2.9792,1.4229,1.4496,1.4549,1.4155,1.3774,1.3514,1.3636,1.359,1.4185,1.6538,1.6735,1.7,1.8531,1.9191,1.9362,1.9036,2.0036,2.0986,2.1592,2.166,2.1963,2.2832,2.3057,2.3135,2.3135,2.3135,2.3135,2.3135,2.3135,2.3135,2.3135,2.3135,2.3135,2.3135,2.3135,2.3281,2.3584,2.3291,2.3291,2.3584,2.3281,2.3135,2.3135,2.3135,2.3135,2.3135,2.3135,2.3135,2.3135,2.3135,2.3135,2.3135,2.3135,2.3135,2.3135,2.3135,2.3135,2.3135,2.3135,2.3135,2.3135,2.3135,2.3135,2.3135,2.3135,2.3135,2.3135,2.3135,2.3135,2.3135,2.3135,2.3135,2.3135,2.3135,2.3135,2.3135,2.3135,2.3135,2.3135,2.3135,2.3135,2.3135,2.3135,2.3135,2.3135,2.3135,2.3135,2.3135,2.3135,2.3135,2.3135,2.3135,2.3135,2.3135,2.3135,2.3474,2.3637,2.3637,2.5041,2.5859,2.5859,2.7602,2.8597,2.8597,2.9365,2.9792,2.9792,2.9792,2.9792,2.9792,2.9792,2.9792,1.3728,1.4001,1.4041,1.3854,1.3594,1.3347,1.3233,1.3293,1.3888,1.5873,1.5952,1.6265,1.806,1.8718,1.9091,1.9236,2.0292,2.125,2.1807,2.206,2.249,2.3291,2.3389,2.332,2.3154,2.3135,2.3135,2.3135,2.3135,2.3135,2.3135,2.3135,2.3135,2.3135,2.3135,2.3271,2.3545,2.3271,2.3271,2.3545,2.3271,2.3135,2.3135,2.3135,2.3135,2.3135,2.3135,2.3135,0.0,2.3135,2.3135,2.3135,2.3135,2.3135,2.3135,2.3135,2.3135,2.3135,2.3135,2.3135,2.3135,2.3135,2.3135,2.3135,2.3135,2.3135,2.3135,2.3135,2.3135,2.3135,2.3135,2.3135,2.3135,2.3135,2.3135,2.3135,2.3135,2.3135,2.3135,2.3135,2.3135,2.3135,2.3135,2.3135,2.3135,2.3135,2.3135,2.3135,2.3135,2.3135,2.3135,2.3135,2.3135,2.3135,2.3135,2.3135,2.3135,2.3135,2.4211,2.4957,2.5378,2.7186,2.8267,2.8767,2.9443,2.9792,2.9792,2.9792,2.9792,2.9792,2.9792,2.9792,0.0,1.3768,1.3961,1.3961,1.3768,1.3514,1.3267,1.342,0.0,1.5087,1.5472,1.5921,1.709,1.8149,1.9003,1.9562,2.0879,2.1865,2.1924,2.3008,2.3779,2.365,2.3769,2.3603,2.296,2.3028,2.3135,2.3135,2.3135,2.3154,2.3184,2.3154,2.3154,2.3184,2.3154,2.3154,2.3184,2.3184,2.3184,2.3184,2.3154,2.3135,2.3135,2.3135,2.3135,2.3135,2.3135,2.3135,2.3135,2.3135,2.3135,2.3135,2.3135,2.3135,2.3135,2.3135,2.3135,2.3135,2.3135,2.3135,2.3135,2.3135,2.3135,2.3135,2.3135,2.3135,2.3135,2.3135,2.3135,2.3135,2.3135,2.3135,2.3135,2.3135,2.3135,2.3135,2.3135,2.3135,2.3135,2.3135,2.3135,2.3135,2.3135,2.3135,2.3135,2.3135,2.3135,2.3135,2.3135,2.3135,2.3135,2.3135,2.3135,2.3135,2.3135,2.3135,2.3135,2.3135,2.4211,2.5294,2.6318,2.7533,2.8597,2.9624,2.9792,2.9792,2.9792,2.9792,2.9792,2.9792,2.9792,2.9792,1.2839,0.0,1.2719,1.2719,1.2839,1.2999,0.0,1.3267,1.3748,1.5323,1.481,1.4775,1.6879,1.7504,1.8108,1.9389,2.0552,2.1621,2.2275,2.3184,2.3384,2.2147,2.3038,2.321,2.1553,2.2398,2.3135,2.3135,2.3135,2.3291,2.3623,2.332,2.3291,2.3623,2.331,2.3301,2.3633,2.3633,2.3633,2.3633,2.3301,2.3135,2.3135,2.3135,2.3135,2.3135,2.3135,2.3135,2.3135,2.3135,2.3135,2.3135,2.3135,2.3135,2.3135,2.3135,2.3135,2.3135,2.3135,2.3135,2.3135,2.3135,2.3135,2.3135,2.3135,2.3135,2.3135,2.3135,2.3135,2.3135,2.3135,2.3135,2.3135,2.3135,2.3135,2.3135,2.3135,2.3135,2.3135,2.3135,2.3135,2.3135,2.3135,2.3135,2.3135,2.3135,2.3135,2.3135,2.3135,2.3135,2.3135,2.3135,2.3135,2.3135,2.3135,2.3135,2.3135,2.3135,2.4211,2.4957,2.521,2.7105,2.8255,2.8505,2.9365,2.9792,2.9792,2.9792,2.9792,2.9792,2.9792,2.9792,1.2498,1.2425,1.2338,1.2472,1.2701,1.2869,1.2959,1.3213,1.3655,1.4529,1.4262,1.4379,1.6242,1.6927,1.7671,1.8875,2.042,2.1826,2.2685,2.2735,2.2636,2.2528,2.3102,2.3003,2.1726,2.2498,2.2675,2.1753,2.2045,2.24,2.2636,2.2626,2.299,2.3779,2.375,2.3652,2.3496,2.3496,2.3496,2.3486,2.3252,2.3135,2.3135,2.3135,2.3135,2.3135,2.3135,2.3135,2.3135,2.3135,2.3135,2.3135,2.3135,2.3135,2.3135,2.3135,2.3135,2.3135,2.3135,2.3135,2.3135,2.3135,2.3135,2.3135,2.3135,2.3135,2.3135,2.3135,2.3135,2.3135,2.3135,2.3135,2.3135,2.3135,2.3135,2.3135,2.3135,2.3135,2.3135,2.3135,2.3135,2.3135,2.3135,2.3135,2.3135,2.3135,2.3135,2.3135,2.3135,2.3135,2.3135,2.3135,2.3135,2.3135,2.3135,2.3135,2.3135,2.3135,2.3714,2.4211,2.4787,2.5942,2.7093,2.8084,2.9197,2.9792,2.9792,2.9792,2.9792,2.9792,2.9792,2.9792,1.2305,1.2338,1.2418,1.2701,1.2788,1.2822,1.2822,1.314,1.3534,1.3546,1.3808,1.4302,1.5523,1.6437,1.731,1.8225,2.0126,2.1845,2.2851,2.1995,2.1762,2.3186,2.3057,2.2616,2.1995,2.2325,2.1878,2.0019,2.0568,2.1078,2.1194,2.167,2.252,2.3505,2.4078,2.3945,2.3144,2.3203,2.3203,2.3135,2.3135,2.3135,2.3135,2.3135,2.3135,2.3135,2.3135,2.3135,2.3135,2.3135,2.3135,2.3135,2.3135,2.3135,2.3135,2.3135,2.3135,2.3135,2.3135,2.3135,2.3135,2.3135,2.3135,2.3135,2.3135,2.3135,2.3135,2.3135,2.3135,2.3135,2.3135,2.3135,2.3135,2.3135,2.3135,2.3135,2.3135,2.3135,2.3135,2.3135,2.3135,2.3135,2.3135,2.3135,2.3135,2.3135,2.3135,2.3135,2.3135,2.3135,2.3135,2.3135,2.3135,2.3135,2.3135,2.3135,2.3135,2.3135,2.3299,2.3963,2.5284,2.5284,2.6273,2.8347,2.9287,2.9792,2.9792,2.9792,2.9792,2.9792,2.9792,2.9792,1.2305,1.2485,1.2701,1.2418,1.2559,1.2822,1.2822,1.2896,1.3026,1.354,1.3487,1.3803,1.5442,1.5861,1.6397,1.7811,1.9087,2.0499,2.2222,2.1639,2.1147,2.1276,2.1281,2.1016,2.0196,2.0298,2.0121,1.9587,1.9704,2.0029,2.0657,2.1503,2.2179,2.2599,2.3477,2.3643,2.3144,2.3506,2.3506,2.3135,2.3135,2.3135,2.3135,2.3135,2.3135,2.3135,2.3135,2.3135,2.3135,2.3135,2.3135,2.3135,2.3135,2.3135,2.3135,2.3135,2.3135,2.3135,2.3135,2.3135,2.3135,2.3135,2.3135,2.3135,2.3135,2.3135,2.3135,2.3135,2.3135,2.3135,2.3135,2.3135,2.3135,2.3135,2.3135,2.3135,2.3135,2.3135,2.3135,2.3135,2.3135,2.3135,2.3135,2.3135,2.3135,2.3135,2.3135,2.3135,2.3135,2.3135,2.3135,2.3135,2.3135,2.3135,2.3135,2.3135,2.3135,2.3135,2.4049,2.5452,2.751,2.7591,2.8187,2.9534,2.9702,2.9792,2.9792,2.9792,2.9792,2.9792,2.9792,2.9792,1.2258,1.2405,1.2472,1.2338,1.2525,1.2782,1.2545,1.2708,1.2872,1.332,1.3427,1.3777,1.4867,1.6057,1.7787,2.0373,1.977,1.9755,2.1795,2.1096,2.0729,2.1536,2.1518,2.1241,2.0845,2.0454,1.967,1.8364,1.8674,1.9011,1.9239,2.0512,2.1558,2.2195,2.3233,2.3691,2.3496,2.3457,2.334,2.3135,2.3135,2.3135,2.3135,2.3135,2.3135,2.3135,2.3135,2.3135,2.3135,2.3135,2.3135,2.3135,2.3135,2.3135,2.3135,2.3135,2.3135,2.3135,2.3135,2.3135,2.3135,2.3135,2.3135,2.3135,2.3135,2.3135,2.3135,2.3135,2.3135,2.3135,2.3135,2.3135,2.3135,2.3135,2.3135,2.3135,2.3135,2.3135,2.3135,2.3135,2.3135,2.3135,2.3135,2.3135,2.3135,2.3135,2.3135,2.3135,2.3135,2.3135,2.3135,2.3135,2.3135,2.3135,2.3135,2.3135,2.3135,2.3135,2.3551,2.4382,2.5368,2.6025,2.6521,2.7116,2.8279,2.8858,2.8858,2.9534,2.9792,2.9792,2.9792,2.9792,1.2238,1.2351,1.2392,1.2318,1.2472,1.2681,1.2445,1.2585,1.295,1.332,1.3594,1.3985,1.4754,1.6684,1.8931,2.1414,2.0099,1.9264,2.0899,2.0363,2.032,2.1576,2.1466,2.1202,2.1151,2.0162,1.8814,1.713,1.7541,1.7775,1.7705,1.9159,2.0512,2.1463,2.2473,2.2991,2.3166,2.2574,2.2501,2.3135,2.3135,2.3135,2.3135,2.3135,2.3135,2.3135,2.3135,2.3135,2.3135,2.3135,2.3135,2.3135,2.3135,2.3135,2.3135,2.3135,2.3135,2.3135,2.3135,2.3135,2.3135,2.3135,2.3135,2.3135,2.3135,2.3135,2.3135,2.3135,2.3135,2.3135,2.3135,2.3135,2.3135,2.3135,2.3135,2.3135,2.3135,2.3135,2.3135,2.3135,2.3135,2.3135,2.3135,2.3135,2.3135,2.3135,2.3135,2.3135,2.3135,2.3135,2.3135,2.3135,2.3135,2.3135,2.3135,2.3135,2.3135,2.3135,2.3135,2.3222,2.3474,2.4382,2.4957,2.521,2.7105,2.8096,2.8096,2.9275,2.9792,2.9792,2.9792,2.9792,1.2291,1.2505,1.2721,1.2371,1.2318,1.2405,1.2735,1.2808,1.3064,1.3848,1.4041,1.448,1.5789,1.7375,1.8447,1.8118,1.8414,1.8852,1.9137,1.9438,1.9633,1.9758,1.9743,1.963,1.9403,1.7874,1.6799,1.6353,1.6155,1.6095,1.6454,1.7712,1.8941,2.0025,2.0305,2.0692,2.1427,2.0322,2.0863,2.3135,2.3135,2.3135,2.3135,2.3135,2.3135,2.3135,2.3135,2.3135,2.3135,2.3135,2.3135,2.3135,2.3135,2.3135,2.3135,2.3135,2.3135,2.3135,2.3135,2.3135,2.3135,2.3135,2.3135,2.3135,2.3135,2.3135,2.3135,2.3135,2.3135,2.3135,2.3135,2.3135,2.3135,2.3135,2.3135,2.3135,2.3135,2.3135,2.3135,2.3135,2.3135,2.3135,2.3135,2.3135,2.3135,2.3135,2.3135,2.3135,2.3135,2.3135,2.3135,2.3135,2.3135,2.3135,2.3135,2.3135,2.3135,2.3135,2.3135,2.3551,2.4628,2.4787,2.5294,2.6389,2.7522,2.8096,2.8096,2.9275,2.9792,2.9792,2.9792,2.9792,1.1984,1.2385,1.2755,1.2378,1.2585,1.2893,1.3013,1.3033,1.3186,1.3707,1.4102,1.4836,1.6521,1.7681,1.8603,1.9143,1.8928,1.8981,1.9889,1.943,1.9391,2.0387,1.9829,1.9276,1.9257,1.7841,1.686,1.6567,1.6433,1.6346,1.6279,1.7505,1.8263,1.852,1.9325,1.9904,2.0215,1.9761,1.9943,2.0854,2.1578,2.1943,2.2031,2.2765,2.3135,2.3135,2.3135,2.3135,2.3135,2.3135,2.3135,2.3135,2.3135,2.3135,2.3135,2.3135,2.3135,2.3135,2.3135,2.3135,2.3135,2.3135,2.3135,2.3135,2.3135,2.3135,2.3135,2.3135,2.3135,2.3135,2.3135,2.3135,2.3135,2.3135,2.3135,2.3135,2.3135,2.3135,2.3135,2.3135,2.3135,2.3135,2.3135,2.3135,2.3135,2.3135,2.3135,2.3135,2.3135,2.3135,2.3135,2.3135,2.3135,2.3135,2.3135,2.3135,2.3135,2.3135,2.3135,2.3299,2.3714,2.3714,2.3973,2.4392,2.5452,2.6367,2.7128,2.8187,2.9106,2.9792,2.9792,2.9792,1.179,1.2231,1.2559,1.2351,1.2826,1.3394,1.3581,1.3554,1.3621,1.4095,1.4516,1.5205,1.65,1.752,1.8328,1.8791,1.8812,1.8837,1.9318,1.8935,1.892,1.9537,1.9277,1.8892,1.8498,1.7521,1.6787,1.6587,1.6486,1.6339,1.6146,1.6882,1.7443,1.7692,1.8126,1.8488,1.8956,1.8488,1.8303,1.8303,1.9579,2.0395,2.0755,2.1943,2.2492,2.258,2.295,2.3135,2.3135,2.3135,2.3135,2.3135,2.3135,2.3135,2.3135,2.3135,2.3135,2.3135,2.3135,2.3135,2.3135,2.3135,2.3135,2.3135,2.3135,2.3135,2.3135,2.3135,2.3135,2.3135,2.3135,2.3135,2.3135,2.3135,2.3135,2.3135,2.3135,2.3135,2.3135,2.3135,2.3135,2.3135,2.3135,2.3135,2.3135,2.3135,2.3135,2.3135,2.3135,2.3135,2.3135,2.3135,2.3135,2.3135,2.3135,2.3135,2.3135,2.3135,2.3135,2.3135,2.3135,2.3135,2.3135,2.3135,2.4211,2.5378,2.6483,2.7602,2.8688,2.9792,2.9792,2.9792,1.179,1.2084,1.2305,1.2305,1.2986,1.3801,1.4382,1.4295,1.4335,1.5217,1.5391,1.5484,1.5772,1.6943,1.7515,1.6511,1.7666,1.8255,1.6893,1.7867,1.8156,1.6893,1.7867,1.8156,1.68,1.644,1.6273,1.6273,1.5999,1.5832,1.5832,1.5832,1.6386,1.7591,1.648,1.6386,1.7692,1.6386,1.5832,1.5825,1.7037,1.8319,1.9497,2.0747,2.1293,2.1382,2.258,2.3047,2.3047,2.3135,2.3135,2.3135,2.3135,2.3135,2.3135,2.3135,2.3135,2.3135,2.3135,2.3135,2.3135,2.3135,2.3135,2.3135,2.3135,2.3135,2.3135,2.3135,2.3135,2.3135,2.3135,2.3135,2.3135,2.3135,2.3135,2.3135,2.3135,2.3135,2.3135,2.3135,2.3135,2.3135,2.3135,2.3135,2.3135,2.3135,2.3135,2.3135,2.3135,2.3135,2.3135,2.3135,2.3135,2.3135,2.3135,2.3135,2.3135,2.3135,2.3135,2.3135,2.3135,2.3135,2.3135,2.3135,2.4211,2.5378,2.6483,2.7522,2.8688,2.9792,2.9792,2.9804,1.179,1.2231,1.2612,1.2612,1.3293,1.4055,1.4436,1.4456,1.4583,1.5257,1.5237,1.5244,1.5738,1.6375,1.6574,1.6074,1.6587,1.7092,1.7354,1.6936,1.6917,1.762,1.726,1.6883,1.6498,1.6326,1.6186,1.5979,1.5879,1.5832,1.5832,1.5832,1.6015,1.6386,1.6015,1.6015,1.6386,1.6015,1.5832,1.5832,1.6204,1.703,1.8226,1.9497,2.0034,2.0124,2.1302,2.1845,2.1933,2.2775,2.3135,2.3135,2.3135,2.3135,2.3135,2.3135,2.3135,2.3135,2.3135,2.3135,2.3135,2.3135,2.3135,2.3135,2.3135,2.3135,2.3135,2.3135,2.3135,2.3135,2.3135,2.3135,2.3135,2.3135,2.3135,2.3135,2.3135,2.3135,2.3135,2.3135,2.3135,2.3135,2.3135,2.3135,2.3135,2.3135,2.3135,2.3135,2.3135,2.3135,2.3135,2.3135,2.3135,2.3135,2.3135,2.3135,2.3135,2.3135,2.3135,2.3135,2.3135,2.3135,2.3135,2.3135,2.3474,2.4135,2.5294,2.5619,2.6546,2.7904,2.7904,2.8516,1.161,1.2124,1.2625,1.2872,1.3687,1.4509,1.4803,1.4957,1.5144,1.5498,1.5431,1.5418,1.5765,1.5979,1.6039,1.5858,1.5979,1.632,1.6878,1.6292,1.6171,1.7106,1.6567,1.6092,1.6092,1.6092,1.6019,1.5845,1.5832,1.5832,1.5832,1.5832,1.5832,1.5832,1.5832,1.5832,1.5832,1.5832,1.5832,1.5832,1.5832,1.6197,1.6943,1.8226,1.9047,1.9579,2.1302,2.2031,2.2031,2.2775,2.3135,2.3135,2.3135,2.3135,2.3135,2.3135,2.3135,2.3135,2.3135,2.3135,2.3135,2.3135,2.3135,2.3135,2.3135,2.3135,2.3135,2.3135,2.3135,2.3135,2.3135,2.3135,2.3135,2.3135,2.3135,2.3135,2.3135,2.3135,2.3135,2.3135,2.3135,2.3135,2.3135,2.3135,2.3135,2.3135,2.3135,2.3135,2.3135,2.3135,2.3135,2.3135,2.3135,2.3135,2.3135,2.3135,2.3135,2.3135,2.3135,2.3135,2.3135,2.3135,2.3135,2.3135,2.3135,2.3627,2.4787,2.4976,2.5723,2.7115,2.7305,2.8151,1.1416,1.1897,1.2452,1.3093,1.4135,1.5077,1.5371,1.5645,1.5818,1.5798,1.5812,1.5832,1.5832,1.5852,1.5865,1.5832,1.5852,1.5858,1.5832,1.5832,1.5832,1.5832,1.5832,1.5832,1.5832,1.5832,1.5832,1.5832,1.5832,1.5832,1.5832,1.5832,1.5832,1.5832,1.5832,1.5832,1.5832,1.5832,1.5832,1.5832,1.5832,1.5832,1.5825,1.7037,1.8234,1.9497,2.1774,2.2862,2.296,2.3047,2.3135,2.3135,2.3135,2.3135,2.3135,2.3135,2.3135,2.3135,2.3135,2.3135,2.3135,2.3135,2.3135,2.3135,2.3135,2.3135,2.3135,2.3135,2.3135,2.3135,2.3135,2.3135,2.3135,2.3135,2.3135,2.3135,2.3135,2.3135,2.3135,2.3135,2.3135,2.3135,2.3135,2.3135,2.3135,2.3135,2.3135,2.3135,2.3135,2.3135,2.3135,2.3135,2.3135,2.3135,2.3135,2.3135,2.3135,2.3135,2.3135,2.3154,2.3193,2.3164,2.3135,2.3135,2.3184,2.3697,2.469,2.5072,2.5836,2.6918,2.725,2.8181,1.1971,1.2204,1.2505,1.334,1.4436,1.5378,1.5671,1.5785,1.5765,1.5538,1.5671,1.5832,1.5832,1.6019,1.6106,1.5865,1.6025,1.6092,1.5865,1.5832,1.5832,1.5832,1.5832,1.5832,1.5832,1.5832,1.5832,1.5832,1.5832,1.5832,1.5832,1.5832,1.5832,1.5832,1.5832,1.5832,1.5832,1.5832,1.5832,1.5832,1.5832,1.5832,1.5832,1.6109,1.6943,1.8141,1.9679,2.0773,2.1784,2.2687,2.3135,2.3135,2.3135,2.3135,2.3135,2.3135,2.3135,2.3135,2.3135,2.3135,2.3135,2.3135,2.3135,2.3135,2.3135,2.3135,2.3135,2.3135,2.3135,2.3135,2.3135,2.3135,2.3135,2.3135,2.3135,2.3135,2.3135,2.3135,2.3135,2.3135,2.3135,2.3135,2.3135,2.3135,2.3135,2.3135,2.3135,2.3135,2.3135,2.3135,2.3135,2.3135,2.3135,2.3135,2.3135,2.3135,2.3135,2.3135,2.3135,2.3291,2.3633,2.332,2.3135,2.3135,2.3477,2.3732,2.3989,2.4425,2.4894,2.551,2.5601,2.6465,1.2011,1.2298,1.2799,1.3981,1.4943,1.5645,1.5792,1.5832,1.5785,1.5631,1.5725,1.5832,1.5832,1.5952,1.6012,1.5852,1.5959,1.6005,1.5852,1.5832,1.5832,1.5832,1.5832,1.5832,1.5832,1.5832,1.5832,1.5832,1.5832,1.5832,1.5832,1.5832,1.5832,1.5832,1.5832,1.5832,1.5832,1.5832,1.5832,1.5832,1.5832,1.5832,1.5825,1.6386,1.7037,1.7785,1.8956,2.0223,2.132,2.1943,2.2589,2.3047,2.2492,2.2217,2.2129,2.1587,2.14,2.1489,2.2031,2.2217,2.2306,2.295,2.3135,2.3135,2.3135,2.3135,2.3135,2.3135,2.3135,2.3135,2.3135,2.3135,2.3135,2.3135,2.3135,2.3135,2.3135,2.3135,2.3135,2.3135,2.3135,2.3135,2.3135,2.3135,2.3135,2.3135,2.3135,2.3135,2.3135,2.3135,2.3135,2.3135,2.3135,2.3135,2.3135,2.3135,2.3135,2.3135,2.3135,2.333,2.3769,2.3574,2.3545,2.375,2.3975,2.4092,2.4092,2.4521,2.4844,2.5068,2.5293,2.6159,1.1931,1.2526,1.3366,1.4569,1.5364,1.5832,1.5832,1.5832,1.5832,1.5832,1.5832,1.5832,1.5832,1.5832,1.5832,1.5832,1.5832,1.5832,1.5832,1.5832,1.5832,1.5832,1.5832,1.5832,1.5832,1.5832,1.5832,1.5832,1.5832,1.5832,1.5832,1.5832,1.5832,1.5832,1.5832,1.5832,1.5832,1.5832,1.5832,1.5832,1.5832,1.5832,1.5825,1.685,1.7412,1.7412,1.868,1.9761,2.0657,2.0935,2.1578,2.2403,2.1391,2.1025,2.0845,1.9852,1.9497,1.967,2.0845,2.1293,2.148,2.2677,2.3135,2.3135,2.3135,2.3135,2.3135,2.3135,2.3135,2.3135,2.3135,2.3135,2.3135,2.3135,2.3193,2.3252,2.3252,2.3193,2.3164,2.3242,2.3193,2.3135,2.3135,2.3135,2.3135,2.3135,2.3135,2.3135,2.3135,2.3135,2.3135,2.3135,2.3135,2.3135,2.3135,2.3135,2.3164,2.3242,2.3184,2.3398,2.3984,2.3935,2.4131,2.4629,2.457,2.4531,2.4531,2.4971,2.5185,2.5195,2.5566,2.6294,1.2178,1.306,1.4015,1.4469,1.5211,1.5832,1.5832,1.5832,1.5832,1.5832,1.5832,1.5832,1.5832,1.5832,1.5832,1.5832,1.5832,1.5832,1.5832,1.5832,1.5832,1.5832,1.5832,1.5832,1.5832,1.5832,1.5832,1.5832,1.5832,1.5832,1.5832,1.5832,1.5832,1.5832,1.5832,1.5832,1.5832,1.5832,1.5832,1.5832,1.5832,1.5832,1.5832,1.6015,1.6015,1.6103,1.7404,1.8048,1.8234,1.9314,1.9861,1.9943,1.9761,1.9761,1.9761,1.9579,1.9497,1.967,2.0845,2.1293,2.148,2.2677,2.3135,2.3135,2.3135,2.3135,2.3135,2.3135,2.3135,2.3135,2.3135,2.3135,2.3135,2.3135,2.3428,2.3701,2.3701,2.3408,2.3252,2.3633,2.3398,2.3135,2.3135,2.3135,2.3135,2.3135,2.3135,2.3135,2.3135,2.3135,2.3135,2.3135,2.3135,2.3135,2.3135,2.3135,2.3301,2.3682,2.335,2.3662,2.4844,2.4531,2.4717,2.5547,2.5176,2.498,2.498,2.543,2.5644,2.5644,2.5713,2.583,1.2685,1.3313,1.3988,1.4616,1.5184,1.5631,1.5792,1.5832,1.5832,1.5832,1.5832,1.5832,1.5832,1.5832,1.5832,1.5832,1.5832,1.5832,1.5832,1.5832,1.5832,1.5832,1.5832,1.5832,1.5832,1.5832,1.5832,1.5832,1.5832,1.5832,1.5832,1.5832,1.5832,1.5832,1.5832,1.5832,1.5832,1.5665,1.5585,1.5585,1.5752,1.5832,1.5832,1.5832,1.5832,1.5832,1.6386,1.7037,1.7777,1.8226,1.8864,1.9397,1.8772,1.8503,1.8411,1.7669,1.739,1.7569,1.8856,1.9761,2.0395,2.0944,2.2041,2.296,2.2306,2.258,2.3135,2.3135,2.3135,2.3135,2.3135,2.3135,2.3135,2.3135,2.3291,2.3555,2.4043,2.3809,2.3486,2.3437,2.3271,2.3135,2.3135,2.3135,2.3135,2.3135,2.3135,2.3135,2.3135,2.3135,2.3135,2.3135,2.3135,2.3135,2.3135,2.3135,2.332,2.376,2.3379,2.3613,2.4658,2.4521,2.4717,2.5352,2.541,2.5439,2.5439,2.5644,2.5742,2.5742,2.5742,2.5742,1.2946,1.336,1.3834,1.4649,1.5124,1.5471,1.5765,1.5772,1.5718,1.5718,1.5718,1.5718,1.5718,1.5778,1.5832,1.5832,1.5832,1.5832,1.5832,1.5832,1.5832,1.5832,1.5832,1.5832,1.5832,1.5832,1.5832,1.5832,1.5758,1.5752,1.5825,1.5758,1.5718,1.5718,1.5718,1.5685,1.5611,1.5391,1.5357,1.5504,1.5651,1.5758,1.5832,1.5832,1.5832,1.5832,1.5832,1.6386,1.7225,1.7225,1.777,1.8488,1.7591,1.7225,1.7131,1.6109,1.5832,1.6015,1.7225,1.8326,1.9131,1.9761,2.1221,2.2492,2.1943,2.2403,2.3135,2.3135,2.3135,2.3135,2.3135,2.3135,2.3135,2.3135,2.3223,2.3447,2.3975,2.4014,2.3789,2.3242,2.3135,2.3135,2.3135,2.3135,2.3135,2.3135,2.3135,2.3135,2.3135,2.3135,2.3135,2.3135,2.3135,2.3135,2.3135,2.3242,2.3486,2.3916,2.3643,2.3848,2.4717,2.4639,2.4785,2.5225,2.5566,2.5742,2.5742,2.5742,2.5742,2.5742,2.5742,2.5742,1.2761,1.32,1.3788,1.4389,1.497,1.5471,1.5765,1.5618,1.5418,1.5418,1.5418,1.5418,1.5418,1.5645,1.5832,1.5832,1.5832,1.5832,1.5832,1.5832,1.5832,1.5832,1.5832,1.5832,1.5832,1.5832,1.5832,1.5832,1.5571,1.5538,1.5812,1.5571,1.5418,1.5418,1.5418,1.5291,1.501,1.499,1.5264,1.5805,1.5545,1.5565,1.5832,1.5832,1.5832,1.5832,1.5832,1.5825,1.592,1.592,1.592,1.6015,1.592,1.592,1.592,1.5825,1.5832,1.6015,1.7225,1.7777,1.8141,2.0486,2.1293,2.1569,2.2677,2.3047,2.3135,2.3135,2.3135,2.3135,2.3135,2.3135,2.3135,2.3135,2.3457,2.3652,2.3281,2.3828,2.4141,2.3301,2.3135,2.3135,2.3135,2.3135,2.3135,2.3135,2.3135,2.3135,2.3135,2.3135,2.3135,2.3135,2.3135,2.3135,2.3135,2.3516,2.3935,2.4355,2.4365,2.4746,2.5635,2.5264,2.5244,2.5693,2.5723,2.5742,2.5742,2.5742,2.5742,2.5742,2.5742,2.5742,1.2741,1.3053,1.3507,1.4095,1.4543,1.491,1.5211,1.5197,1.5117,1.5117,1.5117,1.5177,1.5357,1.5631,1.5832,1.5832,1.5832,1.5832,1.5832,1.5832,1.5832,1.5832,1.5832,1.5832,1.5832,1.5658,1.5551,1.5551,1.5284,1.5164,1.5264,1.5177,1.5117,1.5117,1.5117,1.4977,1.4683,1.487,1.497,1.499,1.5077,1.5271,1.5551,1.5551,1.5651,1.5832,1.5832,1.5832,1.5832,1.5832,1.5832,1.5832,1.5832,1.5832,1.5832,1.5832,1.5832,1.5825,1.6292,1.7037,1.787,1.868,2.0034,2.1382,2.1845,2.2492,2.3135,2.3135,2.3135,2.3135,2.3135,2.3135,2.2862,2.212,2.1699,2.1505,2.1848,2.3038,2.3838,2.3252,2.3135,2.3232,2.3506,2.332,2.3232,2.3516,2.332,2.3135,2.3135,2.3379,2.3447,2.3164,2.3389,2.3555,2.3555,2.3701,2.4092,2.4785,2.457,2.4687,2.5283,2.5156,2.5146,2.5303,2.5596,2.5742,2.5742,2.5742,2.5742,2.5742,2.5742,2.5742,1.2518,1.2899,1.3353,1.3941,1.4302,1.4596,1.4897,1.4883,1.4816,1.4816,1.4816,1.4877,1.507,1.5418,1.5685,1.5685,1.5685,1.5651,1.5551,1.5625,1.5685,1.5685,1.5772,1.5792,1.5691,1.5504,1.5357,1.5257,1.4977,1.4863,1.4957,1.487,1.4816,1.4816,1.4723,1.4623,1.4522,1.4616,1.4669,1.4669,1.477,1.5017,1.5398,1.5398,1.5558,1.5832,1.5832,1.5832,1.5832,1.5832,1.5832,1.5832,1.5832,1.5832,1.5832,1.5832,1.5832,1.5832,1.5832,1.6386,1.7225,1.8048,1.9405,2.0845,2.1667,2.2492,2.3135,2.3135,2.3135,2.3047,2.2589,2.2227,2.1676,2.0845,2.0312,2.0054,2.0628,2.2098,2.3367,2.3164,2.3369,2.3564,2.3574,2.3574,2.3564,2.3574,2.3447,2.3359,2.3359,2.3613,2.373,2.3584,2.3828,2.4004,2.4004,2.4141,2.4463,2.5029,2.4932,2.499,2.5283,2.5293,2.5293,2.5293,2.5586,2.5742,2.5742,2.5742,2.5742,2.5742,2.5742,2.5742,0.0,0.0,0.0,1.3915,1.4282,1.4576,1.4883,1.4723,1.4502,1.4502,1.4502,1.4496,1.4502,1.497,1.5357,1.5371,1.5384,1.5297,1.5003,1.5204,1.5384,1.5398,1.5638,1.5698,1.5424,1.5384,1.5257,1.497,1.4676,1.4636,1.4923,1.4663,1.4502,1.4502,1.4235,1.4222,1.4502,1.4229,1.4369,1.4937,1.4643,1.481,1.5371,1.5378,1.5538,1.5818,1.5825,1.5832,1.5832,1.5832,1.5832,1.5832,1.5832,1.5832,1.5832,1.5832,1.5832,1.5832,1.5832,1.5832,1.6197,1.8672,1.9405,1.9861,2.2227,2.3047,2.3047,2.3047,2.3047,2.2775,2.1569,2.0395,1.9405,1.9405,1.9405,1.9405,1.9405,2.1,2.2546,2.2938,2.3728,2.4049,2.3222,2.3867,2.4131,2.3301,2.3525,2.3789,2.3789,2.3799,2.3965,2.4375,2.4424,2.4434,2.4434,2.4824,2.5078,2.5088,2.5498,2.5742,2.5742,2.5742,2.5742,2.5742,2.5742,2.5742,2.5742,2.5742,2.5742,2.5742,2.5752,2.5752,1.1964,0.0,0.0,0.0,0.0,0.0,1.4529,1.4416,1.4208,1.4208,1.4035,1.3948,1.4168,1.4342,1.4516,1.473,1.5117,1.5297,1.5003,1.503,1.5164,1.5371,1.5284,1.5257,1.5384,1.501,1.473,1.4649,1.4376,1.4242,1.4322,1.4249,1.4208,1.4208,1.4128,1.4128,1.4208,1.4128,1.4168,1.4329,1.4249,1.4402,1.477,1.4983,1.5244,1.5524,1.5738,1.5832,1.5832,1.5832,1.5832,1.5832,1.5832,1.5832,1.5832,1.5832,1.5832,1.5832,1.5832,1.5832,1.6103,1.7677,1.8234,1.8503,2.0042,2.1123,2.1756,2.1756,2.1756,2.148,2.0305,1.9131,1.8234,1.8234,1.749,1.7117,1.8048,1.8848,1.9682,2.0317,2.1643,2.2677,2.2741,2.3687,2.4336,2.4102,2.3906,2.3789,2.3789,2.4053,2.4287,2.4404,2.4697,2.4893,2.4893,2.5,2.5205,2.5527,2.5674,2.5742,2.5742,2.5742,2.5742,2.5742,2.5742,2.5742,2.5742,2.5742,2.5742,2.5742,2.6064,2.6211,1.187,1.2392,1.3013,1.3313,0.0,0.0,1.4102,1.4021,1.3868,1.3748,1.3587,1.3514,1.3687,1.3821,1.3955,1.4128,1.4549,1.479,1.4623,1.4703,1.4843,1.501,1.499,1.4983,1.503,1.4723,1.4469,1.4349,1.4182,1.4088,1.4088,1.4088,1.4088,1.4088,1.4088,1.4088,1.4088,1.4088,1.4088,1.4088,1.4088,1.4242,1.4529,1.483,1.5124,1.5404,1.5578,1.5718,1.5818,1.5698,1.5718,1.5832,1.5832,1.5832,1.5832,1.5832,1.5832,1.5832,1.5832,1.5832,1.6015,1.7318,1.7692,1.7963,1.9131,2.0034,2.0576,2.0576,2.0215,1.967,1.8948,1.7855,1.6943,1.6943,1.6386,1.6015,1.6763,1.7087,1.7749,1.9358,2.118,2.2541,2.2501,2.3853,2.4844,2.4473,2.4365,2.4326,2.4326,2.4541,2.4766,2.4941,2.5195,2.5352,2.5352,2.5352,2.5459,2.5723,2.5742,2.5742,2.5742,2.5742,2.5742,2.5742,2.5742,2.5742,2.5742,2.5742,2.583,2.6016,2.6269,2.6484,1.187,1.2498,1.3227,1.352,1.3814,0.0,1.3788,1.3714,1.3621,1.336,1.328,1.326,1.326,1.3305,1.3484,1.3605,1.3824,1.3913,1.4088,1.4309,1.4482,1.4516,1.4723,1.4776,1.4543,1.4489,1.4362,1.4108,1.4088,1.4088,1.4088,1.4088,1.4088,1.4088,1.4088,1.4088,1.4088,1.4088,1.4088,1.4088,1.4088,1.4222,1.4482,1.481,1.5104,1.5351,1.5418,1.5591,1.5805,1.5551,1.5591,1.5832,1.5832,1.5832,1.5832,1.5832,1.5832,1.5832,1.5832,1.5832,1.6015,1.7131,1.7505,1.7684,1.8764,1.9222,1.9314,1.9314,1.8503,1.7692,1.7505,1.6669,1.5832,1.5832,1.5832,1.5832,1.5832,1.5852,1.6612,1.9075,2.1292,2.2645,2.2342,2.4094,2.5247,2.4609,2.4814,2.5068,2.5068,2.5068,2.5244,2.5684,2.5742,2.5742,2.5742,2.5742,2.5742,2.5742,2.5742,2.5742,2.5742,2.5742,2.5742,2.5742,2.5742,2.5742,2.5742,2.5742,2.5967,2.6387,2.6435,2.6689,1.187,1.2345,1.2913,1.322,1.3514,0.0,1.4255,1.4168,1.3981,1.3928,1.3728,1.3561,1.3561,1.2839,1.2609,1.3787,1.3256,1.3027,1.3997,1.4135,1.4255,1.4489,1.4369,1.4329,1.4502,1.4309,1.4148,1.4088,1.4088,1.4088,1.4088,1.4088,1.4088,1.4088,1.4088,1.4088,1.4088,1.4088,1.4088,1.4088,1.4088,1.4115,1.4188,1.4723,1.4997,1.5077,1.5538,1.5772,1.5825,1.5765,1.5778,1.5832,1.5832,1.5832,1.5832,1.5832,1.5832,1.5832,1.5832,1.5832,1.5825,1.6109,1.6197,1.6197,1.6473,1.7217,1.8048,1.8048,1.787,1.7505,1.648,1.6015,1.5832,1.5832,1.5832,1.5832,1.5832,1.6019,1.6461,1.714,1.8557,1.9979,2.1251,2.2867,2.4333,2.4915,2.501,2.5068,2.5068,2.5068,2.5244,2.5684,2.5742,2.5742,2.5742,2.5742,2.5742,2.5742,2.5742,2.5742,2.5742,2.5742,2.5742,2.5742,2.5742,2.5742,2.5742,2.5742,2.5967,2.6396,2.6738,2.7129,1.2084,1.2412,1.2936,1.3313,1.3534,0.0,0.0,1.3968,1.3828,1.3681,1.2998,1.2431,1.2569,1.1572,1.1033,1.2003,1.2146,1.2397,1.328,1.3828,1.4142,1.4282,1.4175,1.4142,1.4289,1.4175,1.4088,1.4088,1.4088,1.4088,1.4088,1.4088,1.4088,1.4088,1.4088,1.4088,1.4088,1.4088,1.4088,1.4088,1.4088,1.4088,1.4102,1.4543,1.4743,1.477,1.5204,1.5478,1.5611,1.5611,1.5698,1.5832,1.5832,1.5832,1.5832,1.5832,1.5832,1.5832,1.5832,1.5832,1.5832,1.5832,1.5832,1.5832,1.5832,1.6292,1.6763,1.6763,1.6763,1.6574,1.6015,1.5832,1.5832,1.5832,1.5832,1.5832,1.5832,1.5945,1.6139,1.6433,1.7189,1.8316,2.0085,2.1628,2.3105,2.4221,2.4388,2.4591,2.5304,2.54,2.5488,2.5713,2.5742,2.5742,2.5742,2.5742,2.5742,2.5742,2.5742,2.5742,2.5742,2.5742,2.5742,2.5742,2.5742,2.5742,2.5742,2.5957,2.6172,2.6396,2.6816,2.7246,1.2465,1.2692,1.3039,1.352,1.3687,1.3714,0.0,0.0,0.0,1.3353,1.2251,1.147,1.1595,1.0412,0.959,1.0148,1.082,1.1556,1.225,1.301,1.3664,1.4249,1.4055,1.3981,1.4155,1.4168,1.4122,1.4008,1.4108,1.4142,1.4088,1.4088,1.4088,1.4088,1.4088,1.4088,1.4088,1.4088,1.4088,1.4088,1.4088,1.4088,1.4095,1.4389,1.4549,1.4623,1.4917,1.5211,1.5478,1.5478,1.5618,1.5832,1.5832,1.5832,1.5832,1.5832,1.5832,1.5832,1.5832,1.5832,1.5832,1.5832,1.5832,1.5832,1.5832,1.5832,1.5832,1.5832,1.5832,1.5832,1.5832,1.5832,1.5832,1.5832,1.5832,1.5832,1.5832,1.5872,1.5985,1.6226,1.6553,1.7332,1.9243,2.0499,2.1853,2.3484,2.3692,2.4196,2.5538,2.5742,2.5742,2.5742,2.5742,2.5742,2.5742,2.5742,2.5742,2.5742,2.5742,2.5742,2.5742,2.5742,2.5742,2.5742,2.5742,2.5742,2.5742,2.6172,2.6426,2.6523,2.6943,2.7373,1.3033,1.332,1.3554,1.3546,1.3841,1.3968,1.3701,0.0,1.3955,1.3654,0.0,1.2204,1.2234,0.0,0.0,1.0213,0.9767,0.9584,1.0537,1.0932,1.2054,1.4556,1.3941,1.3614,1.4396,1.4469,1.4255,1.3734,1.4175,1.4355,1.4102,1.4088,1.4088,1.4088,1.4088,1.4088,1.4088,1.4088,1.4088,1.4088,1.4088,1.4088,1.4095,1.4389,1.4663,1.493,1.5217,1.5511,1.5778,1.5778,1.5798,1.5832,1.5832,1.5832,1.5832,1.5832,1.5832,1.5832,1.5832,1.5832,1.5832,1.5832,1.5832,1.5832,1.5832,1.5832,1.5832,1.5832,1.5832,1.5832,1.5832,1.5832,1.5832,1.5832,1.5832,1.5832,1.5832,1.6039,1.6233,1.6266,1.672,1.7619,1.8992,1.9535,2.0743,2.3285,2.3692,2.4196,2.5538,2.5742,2.5742,2.5742,2.5742,2.5742,2.5742,2.5742,2.5742,2.5742,2.5742,2.5742,2.5742,2.5742,2.5742,2.5742,2.5742,2.5742,2.5742,2.6172,2.6582,2.6953,2.7393,2.7822,1.2859,1.2906,1.2993,1.3433,1.3607,1.3587,1.3634,1.3874,1.4001,1.3707,0.0,0.0,0.0,0.0,0.0,0.0,0.8748,0.9074,0.9708,1.0173,1.0952,1.2394,1.2163,1.2088,1.2874,1.3815,1.4028,1.3434,1.4095,1.4322,1.3854,1.3995,1.4088,1.4088,1.4088,1.4088,1.4088,1.4088,1.4088,1.4088,1.4088,1.4088,1.4088,1.4215,1.4429,1.4723,1.5017,1.5311,1.5591,1.5758,1.5832,1.5832,1.5832,1.5832,1.5832,1.5832,1.5832,1.5832,1.5832,1.5832,1.5832,1.5832,1.5832,1.5832,1.5832,1.5832,1.5832,1.5832,1.5832,1.5832,1.5832,1.5832,1.5832,1.5832,1.5832,1.5879,1.6052,1.6046,1.6119,1.646,1.672,1.7144,1.7918,1.8302,1.9117,2.1049,2.1355,2.1862,2.3176,2.3384,2.3384,2.3384,2.3384,2.3683,2.4501,2.4715,2.5168,2.5655,2.5742,2.5742,2.5742,2.5742,2.5742,2.5742,2.5742,2.5742,2.5742,2.6426,2.6846,2.7021,2.7461,2.7764,1.2792,1.2772,1.2826,1.348,1.3547,1.3467,1.3514,1.3814,1.3981,1.3601,1.1875,0.0,0.0,0.0,0.7007,0.7071,0.0,0.848,0.8649,0.9126,0.9854,1.0895,1.1036,1.1102,1.1433,1.2593,1.3259,1.2811,1.3548,1.3906,1.3592,1.3848,1.4001,1.4082,1.4088,1.4088,1.4088,1.4088,1.4088,1.4088,1.4088,1.4088,1.4088,1.4088,1.4249,1.4536,1.4836,1.513,1.5418,1.5712,1.5832,1.5832,1.5832,1.5832,1.5832,1.5832,1.5832,1.5832,1.5832,1.5832,1.5832,1.5832,1.5832,1.5832,1.5832,1.5832,1.5832,1.5832,1.5832,1.5832,1.5832,1.5832,1.5832,1.5832,1.5832,1.5885,1.6106,1.6046,1.6079,1.6506,1.672,1.6894,1.7114,1.7388,1.8101,1.9428,1.9627,2.0135,2.155,2.1752,2.1752,2.1752,2.1742,2.2418,2.3745,2.4206,2.4942,2.6005,2.6084,2.6035,2.5918,2.5918,2.5859,2.5742,2.5742,2.5742,2.5742,2.6592,2.7012,2.7021,2.7578,2.7832,1.3113,1.3394,1.3607,1.3552,1.3854,1.3915,1.3353,1.3667,1.3921,1.334,1.1815,1.06,1.0605,0.8698,0.7092,0.6956,0.7051,0.0,0.0,0.7269,0.8559,1.1348,1.1581,1.1134,1.0313,1.1091,1.1663,1.1773,1.2347,1.2942,1.3592,1.3654,1.3788,1.4082,1.4088,1.4088,1.4088,1.4088,1.4088,1.4088,1.4088,1.4088,1.4088,1.4088,1.4249,1.4536,1.4836,1.513,1.5418,1.5712,1.5832,1.5832,1.5832,1.5832,1.5832,1.5832,1.5832,1.5832,1.5832,1.5832,1.5832,1.5832,1.5832,1.5832,1.5832,1.5832,1.5832,1.5832,1.5832,1.5832,1.5832,1.5832,1.5832,1.5832,1.5832,1.5832,1.5838,1.6059,1.6266,1.6286,1.6747,1.7141,1.7148,1.7388,1.8101,1.9428,1.9627,2.0135,2.155,2.1752,2.1752,2.1752,2.1973,2.2714,2.4149,2.4612,2.5384,2.6871,2.6973,2.6787,2.6387,2.6367,2.6172,2.5742,2.5742,2.5742,2.5742,2.6592,2.7012,2.7031,2.7881,2.8271,1.3073,1.2986,1.2946,1.3741,1.3561,1.3253,1.3454,1.35,1.3507,1.35,1.1804,1.0354,1.0585,0.8703,0.7126,0.7078,0.7109,0.7122,0.0,0.7244,0.777,0.8698,0.9439,0.9534,0.9086,1.0595,1.1571,1.1572,1.2449,1.3065,1.3287,1.336,1.3487,1.3781,1.3794,1.3888,1.4082,1.4088,1.4088,1.4088,1.4088,1.4088,1.4088,1.4088,1.4355,1.481,1.471,1.5057,1.5671,1.5578,1.5658,1.5832,1.5832,1.5832,1.5832,1.5832,1.5832,1.5832,1.5832,1.5832,1.5832,1.5832,1.5832,1.5832,1.5832,1.5832,1.5832,1.5832,1.5832,1.5832,1.5832,1.5832,1.5832,1.5832,1.5832,1.5932,1.6326,1.6339,1.6446,1.7027,1.7141,1.7215,1.7402,1.7515,1.7786,1.8199,1.8304,1.8401,1.8909,1.9013,1.9013,1.9013,1.9114,2.0195,2.2808,2.4966,2.6596,2.7422,2.7178,2.6826,2.6406,2.6387,2.6182,2.5742,2.5742,2.5742,2.5742,2.6318,2.6738,2.7021,2.7607,2.8027,1.2812,1.2759,1.2812,1.3587,1.342,1.314,1.3427,1.3427,1.3387,1.3474,1.2064,1.0826,1.1059,0.9265,0.7735,0.7588,0.7278,0.7139,0.0,0.7224,0.7288,0.7288,0.8015,0.8521,0.8578,0.999,1.1038,1.1364,1.2153,1.2775,1.306,1.3153,1.3347,1.3552,1.3748,1.3895,1.4082,1.4088,1.4088,1.4088,1.4088,1.4088,1.4088,1.4088,1.4295,1.4643,1.4556,1.4843,1.5364,1.5391,1.5504,1.5685,1.5792,1.5832,1.5832,1.5832,1.5832,1.5832,1.5832,1.5832,1.5832,1.5832,1.5832,1.5832,1.5832,1.5832,1.5872,1.6079,1.5992,1.5879,1.6086,1.5985,1.5832,1.5832,1.5912,1.6092,1.6466,1.6573,1.6754,1.7321,1.7361,1.7361,1.7549,1.7582,1.7582,1.7582,1.7582,1.7582,1.7582,1.7582,1.7582,1.7582,1.7776,1.922,2.2527,2.5153,2.7036,2.7871,2.749,2.706,2.6631,2.6465,2.6328,2.6201,2.5898,2.5889,2.6191,2.6328,2.6523,2.6807,2.7236,2.7666]}]]